Wetterdaten: Freitag, 12.01.2024
Datum Zeit Temp. I. Temp. A. Feuchte I. Feuchte A. Luftdruck Regen Wind Richtung Richtung Sonnenschein Solar Taupunkt Windchill Windböen
12.01.2024 00:00 22,4 °C -0,4 °C 48 % 93 % 1032,4 hPa 0,0 l/m² 3,2 km/h (1 Bft) NW 315 ° 0 min 0 W/m² -1,4 °C -0,4 °C 4,8 km/h (1 Bft)
12.01.2024 00:01 22,4 °C -0,4 °C 48 % 93 % 1032,3 hPa 0,0 l/m² 1,6 km/h (1 Bft) NW 315 ° 0 min 0 W/m² -1,4 °C -0,4 °C 4,8 km/h (1 Bft)
12.01.2024 00:02 22,4 °C -0,4 °C 48 % 93 % 1032,3 hPa 0,0 l/m² 1,6 km/h (1 Bft) NW 315 ° 0 min 0 W/m² -1,4 °C -0,4 °C 4,8 km/h (1 Bft)
12.01.2024 00:03 22,4 °C -0,4 °C 48 % 93 % 1032,3 hPa 0,0 l/m² 1,6 km/h (1 Bft) NW 315 ° 0 min 0 W/m² -1,4 °C -0,4 °C 4,8 km/h (1 Bft)
12.01.2024 00:04 22,4 °C -0,4 °C 48 % 93 % 1032,2 hPa 0,0 l/m² 0,0 km/h (0 Bft) NW 315 ° 0 min 0 W/m² -1,4 °C -0,4 °C 1,6 km/h (1 Bft)
12.01.2024 00:05 22,4 °C -0,4 °C 48 % 93 % 1032,3 hPa 0,0 l/m² 1,6 km/h (1 Bft) W 270 ° 0 min 0 W/m² -1,4 °C -0,4 °C 6,4 km/h (2 Bft)
12.01.2024 00:06 22,4 °C -0,4 °C 48 % 93 % 1032,2 hPa 0,0 l/m² 0,0 km/h (0 Bft) W 270 ° 0 min 0 W/m² -1,4 °C -0,4 °C 1,6 km/h (1 Bft)
12.01.2024 00:07 22,4 °C -0,4 °C 48 % 93 % 1032,2 hPa 0,0 l/m² 0,0 km/h (0 Bft) W 270 ° 0 min 0 W/m² -1,4 °C -0,4 °C 1,6 km/h (1 Bft)
12.01.2024 00:08 22,4 °C -0,4 °C 48 % 93 % 1032,2 hPa 0,0 l/m² 1,6 km/h (1 Bft) W-NW 292 ° 0 min 0 W/m² -1,4 °C -0,4 °C 4,8 km/h (1 Bft)
12.01.2024 00:09 22,4 °C -0,4 °C 48 % 93 % 1032,2 hPa 0,0 l/m² 0,0 km/h (0 Bft) W-NW 292 ° 0 min 0 W/m² -1,4 °C -0,4 °C 1,6 km/h (1 Bft)
12.01.2024 00:10 22,4 °C -0,4 °C 48 % 93 % 1032,2 hPa 0,0 l/m² 1,6 km/h (1 Bft) W-NW 292 ° 0 min 0 W/m² -1,4 °C -0,4 °C 4,8 km/h (1 Bft)
12.01.2024 00:11 22,4 °C -0,4 °C 48 % 93 % 1032,2 hPa 0,0 l/m² 1,6 km/h (1 Bft) W-NW 292 ° 0 min 0 W/m² -1,4 °C -0,4 °C 4,8 km/h (1 Bft)
12.01.2024 00:12 22,4 °C -0,4 °C 48 % 93 % 1032,2 hPa 0,0 l/m² 3,2 km/h (1 Bft) W 270 ° 0 min 0 W/m² -1,4 °C -0,4 °C 4,8 km/h (1 Bft)
12.01.2024 00:13 22,4 °C -0,4 °C 49 % 93 % 1032,2 hPa 0,0 l/m² 1,6 km/h (1 Bft) W-NW 292 ° 0 min 0 W/m² -1,4 °C -0,4 °C 4,8 km/h (1 Bft)
12.01.2024 00:14 22,4 °C -0,4 °C 48 % 93 % 1032,2 hPa 0,0 l/m² 3,2 km/h (1 Bft) W 270 ° 0 min 0 W/m² -1,4 °C -0,4 °C 4,8 km/h (1 Bft)
12.01.2024 00:15 22,4 °C -0,4 °C 48 % 93 % 1032,2 hPa 0,0 l/m² 1,6 km/h (1 Bft) W 270 ° 0 min 0 W/m² -1,4 °C -0,4 °C 3,2 km/h (1 Bft)
12.01.2024 00:16 22,4 °C -0,4 °C 48 % 93 % 1032,1 hPa 0,0 l/m² 4,8 km/h (1 Bft) W-NW 292 ° 0 min 0 W/m² -1,4 °C -0,4 °C 6,4 km/h (2 Bft)
12.01.2024 00:17 22,4 °C -0,4 °C 48 % 93 % 1032,2 hPa 0,0 l/m² 3,2 km/h (1 Bft) W-NW 292 ° 0 min 0 W/m² -1,4 °C -0,4 °C 4,8 km/h (1 Bft)
12.01.2024 00:18 22,4 °C -0,4 °C 49 % 93 % 1032,0 hPa 0,0 l/m² 4,8 km/h (1 Bft) W 270 ° 0 min 0 W/m² -1,4 °C -0,4 °C 6,4 km/h (2 Bft)
12.01.2024 00:19 22,4 °C -0,4 °C 48 % 93 % 1032,2 hPa 0,0 l/m² 3,2 km/h (1 Bft) W 270 ° 0 min 0 W/m² -1,4 °C -0,4 °C 6,4 km/h (2 Bft)
12.01.2024 00:20 22,4 °C -0,4 °C 48 % 93 % 1032,1 hPa 0,0 l/m² 3,2 km/h (1 Bft) W-NW 292 ° 0 min 0 W/m² -1,4 °C -0,4 °C 6,4 km/h (2 Bft)
12.01.2024 00:21 22,4 °C -0,4 °C 48 % 93 % 1032,1 hPa 0,0 l/m² 4,8 km/h (1 Bft) W 270 ° 0 min 0 W/m² -1,4 °C -0,4 °C 6,4 km/h (2 Bft)
12.01.2024 00:22 22,4 °C -0,4 °C 48 % 93 % 1032,1 hPa 0,0 l/m² 1,6 km/h (1 Bft) W 270 ° 0 min 0 W/m² -1,4 °C -0,4 °C 4,8 km/h (1 Bft)
12.01.2024 00:23 22,4 °C -0,4 °C 48 % 93 % 1032,0 hPa 0,0 l/m² 1,6 km/h (1 Bft) W 270 ° 0 min 0 W/m² -1,4 °C -0,4 °C 4,8 km/h (1 Bft)
12.01.2024 00:24 22,4 °C -0,5 °C 49 % 93 % 1032,1 hPa 0,0 l/m² 3,2 km/h (1 Bft) W-NW 292 ° 0 min 0 W/m² -1,5 °C -0,5 °C 4,8 km/h (1 Bft)
12.01.2024 00:25 22,4 °C -0,5 °C 48 % 93 % 1032,0 hPa 0,0 l/m² 1,6 km/h (1 Bft) W-NW 292 ° 0 min 0 W/m² -1,5 °C -0,5 °C 6,4 km/h (2 Bft)
12.01.2024 00:26 22,4 °C -0,5 °C 48 % 93 % 1032,1 hPa 0,0 l/m² 1,6 km/h (1 Bft) W-NW 292 ° 0 min 0 W/m² -1,5 °C -0,5 °C 4,8 km/h (1 Bft)
12.01.2024 00:27 22,4 °C -0,5 °C 48 % 93 % 1032,1 hPa 0,0 l/m² 1,6 km/h (1 Bft) W-NW 292 ° 0 min 0 W/m² -1,5 °C -0,5 °C 6,4 km/h (2 Bft)
12.01.2024 00:28 22,4 °C -0,5 °C 48 % 93 % 1032,0 hPa 0,0 l/m² 4,8 km/h (1 Bft) W-NW 292 ° 0 min 0 W/m² -1,5 °C -0,5 °C 11,3 km/h (2 Bft)
12.01.2024 00:29 22,4 °C -0,5 °C 49 % 93 % 1032,0 hPa 0,0 l/m² 1,6 km/h (1 Bft) W-NW 292 ° 0 min 0 W/m² -1,5 °C -0,5 °C 11,3 km/h (2 Bft)
12.01.2024 00:30 22,4 °C -0,5 °C 48 % 93 % 1032,0 hPa 0,0 l/m² 3,2 km/h (1 Bft) W-NW 292 ° 0 min 0 W/m² -1,5 °C -0,5 °C 6,4 km/h (2 Bft)
12.01.2024 00:31 22,4 °C -0,5 °C 48 % 93 % 1031,9 hPa 0,0 l/m² 3,2 km/h (1 Bft) W-NW 292 ° 0 min 0 W/m² -1,5 °C -0,5 °C 11,3 km/h (2 Bft)
12.01.2024 00:32 22,4 °C -0,4 °C 48 % 93 % 1031,9 hPa 0,0 l/m² 1,6 km/h (1 Bft) W-NW 292 ° 0 min 0 W/m² -1,4 °C -0,4 °C 3,2 km/h (1 Bft)
12.01.2024 00:33 22,4 °C -0,5 °C 48 % 93 % 1032,0 hPa 0,0 l/m² 4,8 km/h (1 Bft) W 270 ° 0 min 0 W/m² -1,5 °C -0,5 °C 6,4 km/h (2 Bft)
12.01.2024 00:34 22,4 °C -0,5 °C 48 % 93 % 1032,0 hPa 0,0 l/m² 1,6 km/h (1 Bft) W-NW 292 ° 0 min 0 W/m² -1,5 °C -0,5 °C 3,2 km/h (1 Bft)
12.01.2024 00:35 22,4 °C -0,5 °C 48 % 93 % 1031,9 hPa 0,0 l/m² 1,6 km/h (1 Bft) NW 315 ° 0 min 0 W/m² -1,5 °C -0,5 °C 6,4 km/h (2 Bft)
12.01.2024 00:36 22,4 °C -0,5 °C 49 % 93 % 1032,0 hPa 0,0 l/m² 3,2 km/h (1 Bft) NW 315 ° 0 min 0 W/m² -1,5 °C -0,5 °C 4,8 km/h (1 Bft)
12.01.2024 00:37 22,4 °C -0,5 °C 49 % 93 % 1032,0 hPa 0,0 l/m² 1,6 km/h (1 Bft) W-NW 292 ° 0 min 0 W/m² -1,5 °C -0,5 °C 3,2 km/h (1 Bft)
12.01.2024 00:38 22,4 °C -0,5 °C 48 % 93 % 1031,9 hPa 0,0 l/m² 1,6 km/h (1 Bft) NW 315 ° 0 min 0 W/m² -1,5 °C -0,5 °C 6,4 km/h (2 Bft)
12.01.2024 00:39 22,4 °C -0,5 °C 48 % 93 % 1032,0 hPa 0,0 l/m² 1,6 km/h (1 Bft) NW 315 ° 0 min 0 W/m² -1,5 °C -0,5 °C 4,8 km/h (1 Bft)
12.01.2024 00:40 22,4 °C -0,5 °C 48 % 93 % 1032,0 hPa 0,0 l/m² 3,2 km/h (1 Bft) W-NW 292 ° 0 min 0 W/m² -1,5 °C -0,5 °C 6,4 km/h (2 Bft)
12.01.2024 00:41 22,4 °C -0,5 °C 48 % 93 % 1031,9 hPa 0,0 l/m² 4,8 km/h (1 Bft) NW 315 ° 0 min 0 W/m² -1,5 °C -0,5 °C 6,4 km/h (2 Bft)
12.01.2024 00:42 22,4 °C -0,5 °C 48 % 93 % 1031,9 hPa 0,0 l/m² 1,6 km/h (1 Bft) W-NW 292 ° 0 min 0 W/m² -1,5 °C -0,5 °C 4,8 km/h (1 Bft)
12.01.2024 00:43 22,4 °C -0,5 °C 48 % 93 % 1031,9 hPa 0,0 l/m² 1,6 km/h (1 Bft) W-NW 292 ° 0 min 0 W/m² -1,5 °C -0,5 °C 3,2 km/h (1 Bft)
12.01.2024 00:44 22,4 °C -0,5 °C 48 % 93 % 1031,8 hPa 0,0 l/m² 0,0 km/h (0 Bft) W-NW 292 ° 0 min 0 W/m² -1,5 °C -0,5 °C 1,6 km/h (1 Bft)
12.01.2024 00:45 22,4 °C -0,5 °C 48 % 93 % 1031,8 hPa 0,0 l/m² 0,0 km/h (0 Bft) N 0 ° 0 min 0 W/m² -1,5 °C -0,5 °C 0,0 km/h (0 Bft)
12.01.2024 00:46 22,4 °C -0,5 °C 48 % 93 % 1031,8 hPa 0,0 l/m² 1,6 km/h (1 Bft) W-NW 292 ° 0 min 0 W/m² -1,5 °C -0,5 °C 3,2 km/h (1 Bft)
12.01.2024 00:47 22,4 °C -0,5 °C 48 % 93 % 1031,9 hPa 0,0 l/m² 1,6 km/h (1 Bft) W 270 ° 0 min 0 W/m² -1,5 °C -0,5 °C 4,8 km/h (1 Bft)
12.01.2024 00:48 22,4 °C -0,5 °C 48 % 93 % 1031,8 hPa 0,0 l/m² 3,2 km/h (1 Bft) W-NW 292 ° 0 min 0 W/m² -1,5 °C -0,5 °C 6,4 km/h (2 Bft)
12.01.2024 00:49 22,4 °C -0,5 °C 49 % 93 % 1031,8 hPa 0,0 l/m² 3,2 km/h (1 Bft) W-NW 292 ° 0 min 0 W/m² -1,5 °C -0,5 °C 6,4 km/h (2 Bft)
12.01.2024 00:50 22,4 °C -0,6 °C 48 % 93 % 1031,8 hPa 0,0 l/m² 1,6 km/h (1 Bft) W-NW 292 ° 0 min 0 W/m² -1,6 °C -0,6 °C 4,8 km/h (1 Bft)
12.01.2024 00:51 22,4 °C -0,6 °C 48 % 93 % 1031,9 hPa 0,0 l/m² 0,0 km/h (0 Bft) W-NW 292 ° 0 min 0 W/m² -1,6 °C -0,6 °C 3,2 km/h (1 Bft)
12.01.2024 00:52 22,4 °C -0,5 °C 48 % 93 % 1031,8 hPa 0,0 l/m² 1,6 km/h (1 Bft) W-NW 292 ° 0 min 0 W/m² -1,5 °C -0,5 °C 3,2 km/h (1 Bft)
12.01.2024 00:53 22,4 °C -0,5 °C 48 % 93 % 1031,7 hPa 0,0 l/m² 3,2 km/h (1 Bft) W 270 ° 0 min 0 W/m² -1,5 °C -0,5 °C 6,4 km/h (2 Bft)
12.01.2024 00:54 22,4 °C -0,6 °C 48 % 93 % 1031,9 hPa 0,0 l/m² 3,2 km/h (1 Bft) W 270 ° 0 min 0 W/m² -1,6 °C -0,6 °C 3,2 km/h (1 Bft)
12.01.2024 00:55 22,4 °C -0,5 °C 48 % 93 % 1031,9 hPa 0,0 l/m² 3,2 km/h (1 Bft) W 270 ° 0 min 0 W/m² -1,5 °C -0,5 °C 4,8 km/h (1 Bft)
12.01.2024 00:56 22,4 °C -0,6 °C 48 % 93 % 1031,9 hPa 0,0 l/m² 0,0 km/h (0 Bft) W 270 ° 0 min 0 W/m² -1,6 °C -0,6 °C 3,2 km/h (1 Bft)
12.01.2024 00:57 22,4 °C -0,5 °C 48 % 93 % 1031,9 hPa 0,0 l/m² 3,2 km/h (1 Bft) W-NW 292 ° 0 min 0 W/m² -1,5 °C -0,5 °C 6,4 km/h (2 Bft)
12.01.2024 00:58 22,4 °C -0,6 °C 48 % 93 % 1031,9 hPa 0,0 l/m² 3,2 km/h (1 Bft) NW 315 ° 0 min 0 W/m² -1,6 °C -0,6 °C 11,3 km/h (2 Bft)
12.01.2024 00:59 22,4 °C -0,6 °C 48 % 93 % 1031,9 hPa 0,0 l/m² 6,4 km/h (2 Bft) NW 315 ° 0 min 0 W/m² -1,6 °C -0,6 °C 9,7 km/h (2 Bft)
12.01.2024 01:00 22,4 °C -0,6 °C 48 % 93 % 1031,9 hPa 0,0 l/m² 3,2 km/h (1 Bft) NW 315 ° 0 min 0 W/m² -1,6 °C -0,6 °C 4,8 km/h (1 Bft)
12.01.2024 01:01 22,4 °C -0,6 °C 48 % 93 % 1031,9 hPa 0,0 l/m² 3,2 km/h (1 Bft) W-NW 292 ° 0 min 0 W/m² -1,6 °C -0,6 °C 6,4 km/h (2 Bft)
12.01.2024 01:02 22,4 °C -0,6 °C 48 % 93 % 1031,9 hPa 0,0 l/m² 3,2 km/h (1 Bft) W-NW 292 ° 0 min 0 W/m² -1,6 °C -0,6 °C 6,4 km/h (2 Bft)
12.01.2024 01:03 22,4 °C -0,6 °C 48 % 93 % 1031,9 hPa 0,0 l/m² 0,0 km/h (0 Bft) W-NW 292 ° 0 min 0 W/m² -1,6 °C -0,6 °C 3,2 km/h (1 Bft)
12.01.2024 01:04 22,4 °C -0,6 °C 48 % 93 % 1032,0 hPa 0,0 l/m² 0,0 km/h (0 Bft) W 270 ° 0 min 0 W/m² -1,6 °C -0,6 °C 3,2 km/h (1 Bft)
12.01.2024 01:05 22,4 °C -0,6 °C 48 % 93 % 1031,9 hPa 0,0 l/m² 3,2 km/h (1 Bft) W-NW 292 ° 0 min 0 W/m² -1,6 °C -0,6 °C 4,8 km/h (1 Bft)
12.01.2024 01:06 22,4 °C -0,6 °C 48 % 93 % 1031,9 hPa 0,0 l/m² 0,0 km/h (0 Bft) W 270 ° 0 min 0 W/m² -1,6 °C -0,6 °C 3,2 km/h (1 Bft)
12.01.2024 01:07 22,4 °C -0,6 °C 48 % 93 % 1031,9 hPa 0,0 l/m² 0,0 km/h (0 Bft) N 0 ° 0 min 0 W/m² -1,6 °C -0,6 °C 0,0 km/h (0 Bft)
12.01.2024 01:08 22,4 °C -0,6 °C 48 % 93 % 1031,9 hPa 0,0 l/m² 0,0 km/h (0 Bft) W 270 ° 0 min 0 W/m² -1,6 °C -0,6 °C 1,6 km/h (1 Bft)
12.01.2024 01:09 22,4 °C -0,6 °C 48 % 93 % 1031,9 hPa 0,0 l/m² 1,6 km/h (1 Bft) W-NW 292 ° 0 min 0 W/m² -1,6 °C -0,6 °C 4,8 km/h (1 Bft)
12.01.2024 01:10 22,4 °C -0,5 °C 48 % 93 % 1032,0 hPa 0,0 l/m² 0,0 km/h (0 Bft) W-NW 292 ° 0 min 0 W/m² -1,5 °C -0,5 °C 1,6 km/h (1 Bft)
12.01.2024 01:11 22,4 °C -0,6 °C 48 % 93 % 1031,9 hPa 0,0 l/m² 0,0 km/h (0 Bft) W-NW 292 ° 0 min 0 W/m² -1,6 °C -0,6 °C 1,6 km/h (1 Bft)
12.01.2024 01:12 22,4 °C -0,5 °C 48 % 93 % 1032,0 hPa 0,0 l/m² 0,0 km/h (0 Bft) W-NW 292 ° 0 min 0 W/m² -1,5 °C -0,5 °C 3,2 km/h (1 Bft)
12.01.2024 01:13 22,4 °C -0,5 °C 48 % 93 % 1031,9 hPa 0,0 l/m² 1,6 km/h (1 Bft) W-NW 292 ° 0 min 0 W/m² -1,5 °C -0,5 °C 3,2 km/h (1 Bft)
12.01.2024 01:14 22,4 °C -0,6 °C 48 % 93 % 1031,9 hPa 0,0 l/m² 0,0 km/h (0 Bft) N 0 ° 0 min 0 W/m² -1,6 °C -0,6 °C 0,0 km/h (0 Bft)
12.01.2024 01:15 22,4 °C -0,6 °C 48 % 93 % 1031,9 hPa 0,0 l/m² 4,8 km/h (1 Bft) NW 315 ° 0 min 0 W/m² -1,6 °C -0,6 °C 9,7 km/h (2 Bft)
12.01.2024 01:16 22,4 °C -0,6 °C 48 % 93 % 1031,9 hPa 0,0 l/m² 1,6 km/h (1 Bft) W 270 ° 0 min 0 W/m² -1,6 °C -0,6 °C 4,8 km/h (1 Bft)
12.01.2024 01:17 22,4 °C -0,6 °C 48 % 93 % 1032,0 hPa 0,0 l/m² 3,2 km/h (1 Bft) W-NW 292 ° 0 min 0 W/m² -1,6 °C -0,6 °C 6,4 km/h (2 Bft)
12.01.2024 01:18 22,4 °C -0,6 °C 48 % 93 % 1032,0 hPa 0,0 l/m² 4,8 km/h (1 Bft) NW 315 ° 0 min 0 W/m² -1,6 °C -0,6 °C 8,0 km/h (2 Bft)
12.01.2024 01:19 22,4 °C -0,6 °C 48 % 93 % 1031,9 hPa 0,0 l/m² 1,6 km/h (1 Bft) NW 315 ° 0 min 0 W/m² -1,6 °C -0,6 °C 6,4 km/h (2 Bft)
12.01.2024 01:20 22,4 °C -0,6 °C 48 % 93 % 1031,9 hPa 0,0 l/m² 3,2 km/h (1 Bft) NW 315 ° 0 min 0 W/m² -1,6 °C -0,6 °C 6,4 km/h (2 Bft)
12.01.2024 01:21 22,4 °C -0,6 °C 48 % 93 % 1031,9 hPa 0,0 l/m² 4,8 km/h (1 Bft) NW 315 ° 0 min 0 W/m² -1,6 °C -0,6 °C 8,0 km/h (2 Bft)
12.01.2024 01:22 22,4 °C -0,6 °C 48 % 93 % 1031,9 hPa 0,0 l/m² 3,2 km/h (1 Bft) NW 315 ° 0 min 0 W/m² -1,6 °C -0,6 °C 4,8 km/h (1 Bft)
12.01.2024 01:23 22,4 °C -0,6 °C 48 % 93 % 1031,9 hPa 0,0 l/m² 1,6 km/h (1 Bft) NW 315 ° 0 min 0 W/m² -1,6 °C -0,6 °C 6,4 km/h (2 Bft)
12.01.2024 01:24 22,4 °C -0,6 °C 48 % 93 % 1032,0 hPa 0,0 l/m² 1,6 km/h (1 Bft) NW 315 ° 0 min 0 W/m² -1,6 °C -0,6 °C 4,8 km/h (1 Bft)
12.01.2024 01:25 22,4 °C -0,6 °C 48 % 93 % 1032,0 hPa 0,0 l/m² 0,0 km/h (0 Bft) NW 315 ° 0 min 0 W/m² -1,6 °C -0,6 °C 3,2 km/h (1 Bft)
12.01.2024 01:26 22,4 °C -0,6 °C 48 % 93 % 1031,9 hPa 0,0 l/m² 1,6 km/h (1 Bft) W-NW 292 ° 0 min 0 W/m² -1,6 °C -0,6 °C 4,8 km/h (1 Bft)
12.01.2024 01:27 22,4 °C -0,6 °C 48 % 93 % 1031,9 hPa 0,0 l/m² 0,0 km/h (0 Bft) W-NW 292 ° 0 min 0 W/m² -1,6 °C -0,6 °C 1,6 km/h (1 Bft)
12.01.2024 01:28 22,4 °C -0,6 °C 48 % 93 % 1032,0 hPa 0,0 l/m² 1,6 km/h (1 Bft) NW 315 ° 0 min 0 W/m² -1,6 °C -0,6 °C 4,8 km/h (1 Bft)
12.01.2024 01:29 22,4 °C -0,6 °C 48 % 93 % 1031,9 hPa 0,0 l/m² 1,6 km/h (1 Bft) NW 315 ° 0 min 0 W/m² -1,6 °C -0,6 °C 4,8 km/h (1 Bft)
12.01.2024 01:30 22,4 °C -0,6 °C 48 % 93 % 1032,0 hPa 0,0 l/m² 3,2 km/h (1 Bft) NW 315 ° 0 min 0 W/m² -1,6 °C -0,6 °C 6,4 km/h (2 Bft)
12.01.2024 01:31 22,4 °C -0,6 °C 48 % 93 % 1032,0 hPa 0,0 l/m² 3,2 km/h (1 Bft) N-NW 337 ° 0 min 0 W/m² -1,6 °C -0,6 °C 6,4 km/h (2 Bft)
12.01.2024 01:32 22,4 °C -0,6 °C 48 % 93 % 1031,9 hPa 0,0 l/m² 3,2 km/h (1 Bft) N-NW 337 ° 0 min 0 W/m² -1,6 °C -0,6 °C 6,4 km/h (2 Bft)
12.01.2024 01:33 22,4 °C -0,6 °C 48 % 93 % 1032,0 hPa 0,0 l/m² 8,0 km/h (2 Bft) NW 315 ° 0 min 0 W/m² -1,6 °C -2,3 °C 12,9 km/h (3 Bft)
12.01.2024 01:34 22,4 °C -0,6 °C 48 % 93 % 1031,9 hPa 0,0 l/m² 4,8 km/h (1 Bft) NW 315 ° 0 min 0 W/m² -1,6 °C -0,6 °C 12,9 km/h (3 Bft)
12.01.2024 01:35 22,4 °C -0,6 °C 48 % 93 % 1032,0 hPa 0,0 l/m² 3,2 km/h (1 Bft) NW 315 ° 0 min 0 W/m² -1,6 °C -0,6 °C 8,0 km/h (2 Bft)
12.01.2024 01:36 22,4 °C -0,6 °C 48 % 93 % 1032,0 hPa 0,0 l/m² 6,4 km/h (2 Bft) NW 315 ° 0 min 0 W/m² -1,6 °C -0,6 °C 8,0 km/h (2 Bft)
12.01.2024 01:37 22,4 °C -0,6 °C 48 % 93 % 1032,0 hPa 0,0 l/m² 4,8 km/h (1 Bft) NW 315 ° 0 min 0 W/m² -1,6 °C -0,6 °C 8,0 km/h (2 Bft)
12.01.2024 01:38 22,4 °C -0,6 °C 48 % 93 % 1032,0 hPa 0,0 l/m² 8,0 km/h (2 Bft) N-NW 337 ° 0 min 0 W/m² -1,6 °C -2,3 °C 9,7 km/h (2 Bft)
12.01.2024 01:39 22,4 °C -0,6 °C 48 % 93 % 1032,0 hPa 0,0 l/m² 6,4 km/h (2 Bft) NW 315 ° 0 min 0 W/m² -1,6 °C -0,6 °C 9,7 km/h (2 Bft)
12.01.2024 01:40 22,4 °C -0,6 °C 48 % 93 % 1032,1 hPa 0,0 l/m² 4,8 km/h (1 Bft) N-NW 337 ° 0 min 0 W/m² -1,6 °C -0,6 °C 6,4 km/h (2 Bft)
12.01.2024 01:41 22,4 °C -0,6 °C 48 % 93 % 1032,1 hPa 0,0 l/m² 4,8 km/h (1 Bft) NW 315 ° 0 min 0 W/m² -1,6 °C -0,6 °C 9,7 km/h (2 Bft)
12.01.2024 01:42 22,4 °C -0,6 °C 48 % 93 % 1032,0 hPa 0,0 l/m² 6,4 km/h (2 Bft) NW 315 ° 0 min 0 W/m² -1,6 °C -0,6 °C 12,9 km/h (3 Bft)
12.01.2024 01:43 22,4 °C -0,6 °C 48 % 93 % 1032,0 hPa 0,0 l/m² 3,2 km/h (1 Bft) NW 315 ° 0 min 0 W/m² -1,6 °C -0,6 °C 4,8 km/h (1 Bft)
12.01.2024 01:44 22,4 °C -0,6 °C 48 % 93 % 1032,0 hPa 0,0 l/m² 1,6 km/h (1 Bft) NW 315 ° 0 min 0 W/m² -1,6 °C -0,6 °C 4,8 km/h (1 Bft)
12.01.2024 01:45 22,4 °C -0,6 °C 48 % 93 % 1032,1 hPa 0,0 l/m² 3,2 km/h (1 Bft) W-NW 292 ° 0 min 0 W/m² -1,6 °C -0,6 °C 4,8 km/h (1 Bft)
12.01.2024 01:46 22,4 °C -0,6 °C 48 % 93 % 1032,1 hPa 0,0 l/m² 4,8 km/h (1 Bft) NW 315 ° 0 min 0 W/m² -1,6 °C -0,6 °C 6,4 km/h (2 Bft)
12.01.2024 01:47 22,4 °C -0,6 °C 48 % 93 % 1032,0 hPa 0,0 l/m² 4,8 km/h (1 Bft) NW 315 ° 0 min 0 W/m² -1,6 °C -0,6 °C 6,4 km/h (2 Bft)
12.01.2024 01:48 22,4 °C -0,6 °C 48 % 93 % 1032,0 hPa 0,0 l/m² 3,2 km/h (1 Bft) W-NW 292 ° 0 min 0 W/m² -1,6 °C -0,6 °C 4,8 km/h (1 Bft)
12.01.2024 01:49 22,4 °C -0,6 °C 48 % 93 % 1032,1 hPa 0,0 l/m² 3,2 km/h (1 Bft) W-NW 292 ° 0 min 0 W/m² -1,6 °C -0,6 °C 6,4 km/h (2 Bft)
12.01.2024 01:50 22,4 °C -0,6 °C 48 % 93 % 1032,1 hPa 0,0 l/m² 4,8 km/h (1 Bft) W-NW 292 ° 0 min 0 W/m² -1,6 °C -0,6 °C 8,0 km/h (2 Bft)
12.01.2024 01:51 22,4 °C -0,6 °C 48 % 93 % 1032,0 hPa 0,0 l/m² 3,2 km/h (1 Bft) W-NW 292 ° 0 min 0 W/m² -1,6 °C -0,6 °C 6,4 km/h (2 Bft)
12.01.2024 01:52 22,4 °C -0,6 °C 48 % 93 % 1032,0 hPa 0,0 l/m² 1,6 km/h (1 Bft) W-NW 292 ° 0 min 0 W/m² -1,6 °C -0,6 °C 3,2 km/h (1 Bft)
12.01.2024 01:53 22,4 °C -0,6 °C 48 % 93 % 1032,0 hPa 0,0 l/m² 4,8 km/h (1 Bft) NW 315 ° 0 min 0 W/m² -1,6 °C -0,6 °C 9,7 km/h (2 Bft)
12.01.2024 01:54 22,4 °C -0,6 °C 48 % 93 % 1032,0 hPa 0,0 l/m² 6,4 km/h (2 Bft) NW 315 ° 0 min 0 W/m² -1,6 °C -0,6 °C 11,3 km/h (2 Bft)
12.01.2024 01:55 22,4 °C -0,6 °C 48 % 93 % 1031,9 hPa 0,0 l/m² 3,2 km/h (1 Bft) NW 315 ° 0 min 0 W/m² -1,6 °C -0,6 °C 6,4 km/h (2 Bft)
12.01.2024 01:56 22,4 °C -0,6 °C 48 % 93 % 1031,9 hPa 0,0 l/m² 3,2 km/h (1 Bft) W-NW 292 ° 0 min 0 W/m² -1,6 °C -0,6 °C 6,4 km/h (2 Bft)
12.01.2024 01:57 22,4 °C -0,6 °C 48 % 93 % 1031,9 hPa 0,0 l/m² 3,2 km/h (1 Bft) W-NW 292 ° 0 min 0 W/m² -1,6 °C -0,6 °C 4,8 km/h (1 Bft)
12.01.2024 01:58 22,4 °C -0,6 °C 48 % 93 % 1031,9 hPa 0,0 l/m² 4,8 km/h (1 Bft) W-NW 292 ° 0 min 0 W/m² -1,6 °C -0,6 °C 9,7 km/h (2 Bft)
12.01.2024 01:59 22,4 °C -0,6 °C 48 % 93 % 1031,9 hPa 0,0 l/m² 4,8 km/h (1 Bft) NW 315 ° 0 min 0 W/m² -1,6 °C -0,6 °C 8,0 km/h (2 Bft)
12.01.2024 02:00 22,4 °C -0,6 °C 48 % 93 % 1032,0 hPa 0,0 l/m² 1,6 km/h (1 Bft) NW 315 ° 0 min 0 W/m² -1,6 °C -0,6 °C 3,2 km/h (1 Bft)
12.01.2024 02:01 22,4 °C -0,6 °C 48 % 93 % 1032,0 hPa 0,0 l/m² 3,2 km/h (1 Bft) NW 315 ° 0 min 0 W/m² -1,6 °C -0,6 °C 4,8 km/h (1 Bft)
12.01.2024 02:02 22,4 °C -0,6 °C 48 % 93 % 1031,9 hPa 0,0 l/m² 3,2 km/h (1 Bft) W-NW 292 ° 0 min 0 W/m² -1,6 °C -0,6 °C 8,0 km/h (2 Bft)
12.01.2024 02:03 22,4 °C -0,6 °C 48 % 93 % 1031,9 hPa 0,0 l/m² 1,6 km/h (1 Bft) W-NW 292 ° 0 min 0 W/m² -1,6 °C -0,6 °C 4,8 km/h (1 Bft)
12.01.2024 02:04 22,4 °C -0,6 °C 48 % 93 % 1031,9 hPa 0,0 l/m² 3,2 km/h (1 Bft) W 270 ° 0 min 0 W/m² -1,6 °C -0,6 °C 6,4 km/h (2 Bft)
12.01.2024 02:05 22,4 °C -0,6 °C 48 % 93 % 1031,9 hPa 0,0 l/m² 6,4 km/h (2 Bft) NW 315 ° 0 min 0 W/m² -1,6 °C -0,6 °C 11,3 km/h (2 Bft)
12.01.2024 02:06 22,4 °C -0,7 °C 48 % 93 % 1031,9 hPa 0,0 l/m² 8,0 km/h (2 Bft) NW 315 ° 0 min 0 W/m² -1,7 °C -2,4 °C 11,3 km/h (2 Bft)
12.01.2024 02:07 22,4 °C -0,7 °C 48 % 93 % 1031,9 hPa 0,0 l/m² 6,4 km/h (2 Bft) NW 315 ° 0 min 0 W/m² -1,7 °C -0,7 °C 12,9 km/h (3 Bft)
12.01.2024 02:08 22,4 °C -0,7 °C 48 % 93 % 1031,9 hPa 0,0 l/m² 1,6 km/h (1 Bft) W-NW 292 ° 0 min 0 W/m² -1,7 °C -0,7 °C 6,4 km/h (2 Bft)
12.01.2024 02:09 22,4 °C -0,7 °C 48 % 93 % 1031,9 hPa 0,0 l/m² 1,6 km/h (1 Bft) W-NW 292 ° 0 min 0 W/m² -1,7 °C -0,7 °C 6,4 km/h (2 Bft)
12.01.2024 02:10 22,3 °C -0,7 °C 48 % 93 % 1031,9 hPa 0,0 l/m² 6,4 km/h (2 Bft) W-NW 292 ° 0 min 0 W/m² -1,7 °C -0,7 °C 11,3 km/h (2 Bft)
12.01.2024 02:11 22,3 °C -0,7 °C 48 % 93 % 1031,9 hPa 0,0 l/m² 4,8 km/h (1 Bft) NW 315 ° 0 min 0 W/m² -1,7 °C -0,7 °C 8,0 km/h (2 Bft)
12.01.2024 02:12 22,3 °C -0,7 °C 48 % 93 % 1031,9 hPa 0,0 l/m² 4,8 km/h (1 Bft) NW 315 ° 0 min 0 W/m² -1,7 °C -0,7 °C 11,3 km/h (2 Bft)
12.01.2024 02:13 22,4 °C -0,7 °C 48 % 93 % 1031,9 hPa 0,0 l/m² 8,0 km/h (2 Bft) NW 315 ° 0 min 0 W/m² -1,7 °C -2,4 °C 12,9 km/h (3 Bft)
12.01.2024 02:14 22,4 °C -0,7 °C 48 % 93 % 1032,0 hPa 0,0 l/m² 6,4 km/h (2 Bft) NW 315 ° 0 min 0 W/m² -1,7 °C -0,7 °C 8,0 km/h (2 Bft)
12.01.2024 02:15 22,4 °C -0,7 °C 48 % 93 % 1032,0 hPa 0,0 l/m² 3,2 km/h (1 Bft) NW 315 ° 0 min 0 W/m² -1,7 °C -0,7 °C 6,4 km/h (2 Bft)
12.01.2024 02:16 22,3 °C -0,7 °C 48 % 93 % 1032,0 hPa 0,0 l/m² 3,2 km/h (1 Bft) NW 315 ° 0 min 0 W/m² -1,7 °C -0,7 °C 6,4 km/h (2 Bft)
12.01.2024 02:17 22,3 °C -0,7 °C 48 % 93 % 1032,0 hPa 0,0 l/m² 6,4 km/h (2 Bft) NW 315 ° 0 min 0 W/m² -1,7 °C -0,7 °C 11,3 km/h (2 Bft)
12.01.2024 02:18 22,3 °C -0,7 °C 48 % 93 % 1032,1 hPa 0,0 l/m² 4,8 km/h (1 Bft) NW 315 ° 0 min 0 W/m² -1,7 °C -0,7 °C 8,0 km/h (2 Bft)
12.01.2024 02:19 22,3 °C -0,7 °C 48 % 93 % 1032,0 hPa 0,0 l/m² 6,4 km/h (2 Bft) NW 315 ° 0 min 0 W/m² -1,7 °C -0,7 °C 8,0 km/h (2 Bft)
12.01.2024 02:20 22,3 °C -0,7 °C 48 % 93 % 1031,9 hPa 0,0 l/m² 4,8 km/h (1 Bft) W-NW 292 ° 0 min 0 W/m² -1,7 °C -0,7 °C 14,5 km/h (3 Bft)
12.01.2024 02:21 22,3 °C -0,7 °C 48 % 93 % 1032,0 hPa 0,0 l/m² 8,0 km/h (2 Bft) W-NW 292 ° 0 min 0 W/m² -1,7 °C -2,4 °C 12,9 km/h (3 Bft)
12.01.2024 02:22 22,3 °C -0,7 °C 48 % 93 % 1032,0 hPa 0,0 l/m² 4,8 km/h (1 Bft) W-NW 292 ° 0 min 0 W/m² -1,7 °C -0,7 °C 14,5 km/h (3 Bft)
12.01.2024 02:23 22,3 °C -0,7 °C 48 % 93 % 1032,0 hPa 0,0 l/m² 0,0 km/h (0 Bft) W-NW 292 ° 0 min 0 W/m² -1,7 °C -0,7 °C 3,2 km/h (1 Bft)
12.01.2024 02:24 22,3 °C -0,7 °C 48 % 93 % 1032,0 hPa 0,0 l/m² 1,6 km/h (1 Bft) NW 315 ° 0 min 0 W/m² -1,7 °C -0,7 °C 4,8 km/h (1 Bft)
12.01.2024 02:25 22,3 °C -0,7 °C 48 % 93 % 1032,0 hPa 0,0 l/m² 3,2 km/h (1 Bft) W-NW 292 ° 0 min 0 W/m² -1,7 °C -0,7 °C 6,4 km/h (2 Bft)
12.01.2024 02:26 22,3 °C -0,7 °C 48 % 93 % 1032,0 hPa 0,0 l/m² 4,8 km/h (1 Bft) NW 315 ° 0 min 0 W/m² -1,7 °C -0,7 °C 8,0 km/h (2 Bft)
12.01.2024 02:27 22,3 °C -0,7 °C 48 % 93 % 1032,0 hPa 0,0 l/m² 6,4 km/h (2 Bft) NW 315 ° 0 min 0 W/m² -1,7 °C -0,7 °C 8,0 km/h (2 Bft)
12.01.2024 02:28 22,3 °C -0,7 °C 48 % 93 % 1032,1 hPa 0,0 l/m² 6,4 km/h (2 Bft) NW 315 ° 0 min 0 W/m² -1,7 °C -0,7 °C 8,0 km/h (2 Bft)
12.01.2024 02:29 22,3 °C -0,7 °C 48 % 93 % 1032,0 hPa 0,0 l/m² 1,6 km/h (1 Bft) NW 315 ° 0 min 0 W/m² -1,7 °C -0,7 °C 3,2 km/h (1 Bft)
12.01.2024 02:30 22,3 °C -0,7 °C 48 % 93 % 1032,1 hPa 0,0 l/m² 3,2 km/h (1 Bft) NW 315 ° 0 min 0 W/m² -1,7 °C -0,7 °C 4,8 km/h (1 Bft)
12.01.2024 02:31 22,3 °C -0,7 °C 48 % 93 % 1032,1 hPa 0,0 l/m² 1,6 km/h (1 Bft) NW 315 ° 0 min 0 W/m² -1,7 °C -0,7 °C 6,4 km/h (2 Bft)
12.01.2024 02:32 22,3 °C -0,7 °C 48 % 93 % 1032,0 hPa 0,0 l/m² 1,6 km/h (1 Bft) NW 315 ° 0 min 0 W/m² -1,7 °C -0,7 °C 3,2 km/h (1 Bft)
12.01.2024 02:33 22,3 °C -0,7 °C 48 % 93 % 1032,0 hPa 0,0 l/m² 3,2 km/h (1 Bft) N-NW 337 ° 0 min 0 W/m² -1,7 °C -0,7 °C 4,8 km/h (1 Bft)
12.01.2024 02:34 22,3 °C -0,7 °C 48 % 93 % 1032,0 hPa 0,0 l/m² 3,2 km/h (1 Bft) N-NW 337 ° 0 min 0 W/m² -1,7 °C -0,7 °C 6,4 km/h (2 Bft)
12.01.2024 02:35 22,3 °C -0,7 °C 48 % 93 % 1032,0 hPa 0,0 l/m² 3,2 km/h (1 Bft) N-NW 337 ° 0 min 0 W/m² -1,7 °C -0,7 °C 8,0 km/h (2 Bft)
12.01.2024 02:36 22,3 °C -0,7 °C 48 % 93 % 1032,0 hPa 0,0 l/m² 4,8 km/h (1 Bft) NW 315 ° 0 min 0 W/m² -1,7 °C -0,7 °C 8,0 km/h (2 Bft)
12.01.2024 02:37 22,3 °C -0,7 °C 48 % 93 % 1032,0 hPa 0,0 l/m² 6,4 km/h (2 Bft) NW 315 ° 0 min 0 W/m² -1,7 °C -0,7 °C 12,9 km/h (3 Bft)
12.01.2024 02:38 22,3 °C -0,7 °C 48 % 93 % 1031,9 hPa 0,0 l/m² 6,4 km/h (2 Bft) N-NW 337 ° 0 min 0 W/m² -1,7 °C -0,7 °C 9,7 km/h (2 Bft)
12.01.2024 02:39 22,3 °C -0,7 °C 48 % 93 % 1032,0 hPa 0,0 l/m² 6,4 km/h (2 Bft) N-NW 337 ° 0 min 0 W/m² -1,7 °C -0,7 °C 12,9 km/h (3 Bft)
12.01.2024 02:40 22,3 °C -0,7 °C 48 % 93 % 1032,1 hPa 0,0 l/m² 8,0 km/h (2 Bft) N-NW 337 ° 0 min 0 W/m² -1,7 °C -2,4 °C 12,9 km/h (3 Bft)
12.01.2024 02:41 22,3 °C -0,7 °C 48 % 93 % 1032,1 hPa 0,0 l/m² 6,4 km/h (2 Bft) N-NW 337 ° 0 min 0 W/m² -1,7 °C -0,7 °C 8,0 km/h (2 Bft)
12.01.2024 02:42 22,3 °C -0,7 °C 48 % 93 % 1032,0 hPa 0,0 l/m² 4,8 km/h (1 Bft) NW 315 ° 0 min 0 W/m² -1,7 °C -0,7 °C 6,4 km/h (2 Bft)
12.01.2024 02:43 22,3 °C -0,7 °C 48 % 93 % 1032,0 hPa 0,0 l/m² 3,2 km/h (1 Bft) N-NW 337 ° 0 min 0 W/m² -1,7 °C -0,7 °C 6,4 km/h (2 Bft)
12.01.2024 02:44 22,3 °C -0,7 °C 48 % 93 % 1032,1 hPa 0,0 l/m² 8,0 km/h (2 Bft) NW 315 ° 0 min 0 W/m² -1,7 °C -2,4 °C 14,5 km/h (3 Bft)
12.01.2024 02:45 22,3 °C -0,7 °C 48 % 93 % 1032,1 hPa 0,0 l/m² 6,4 km/h (2 Bft) NW 315 ° 0 min 0 W/m² -1,7 °C -0,7 °C 9,7 km/h (2 Bft)
12.01.2024 02:46 22,3 °C -0,7 °C 48 % 93 % 1032,1 hPa 0,0 l/m² 4,8 km/h (1 Bft) NW 315 ° 0 min 0 W/m² -1,7 °C -0,7 °C 9,7 km/h (2 Bft)
12.01.2024 02:47 22,3 °C -0,7 °C 48 % 93 % 1032,1 hPa 0,0 l/m² 6,4 km/h (2 Bft) N-NW 337 ° 0 min 0 W/m² -1,7 °C -0,7 °C 9,7 km/h (2 Bft)
12.01.2024 02:48 22,3 °C -0,7 °C 48 % 93 % 1032,1 hPa 0,0 l/m² 4,8 km/h (1 Bft) NW 315 ° 0 min 0 W/m² -1,7 °C -0,7 °C 6,4 km/h (2 Bft)
12.01.2024 02:49 22,3 °C -0,7 °C 48 % 93 % 1032,1 hPa 0,0 l/m² 3,2 km/h (1 Bft) NW 315 ° 0 min 0 W/m² -1,7 °C -0,7 °C 6,4 km/h (2 Bft)
12.01.2024 02:50 22,3 °C -0,7 °C 48 % 93 % 1032,2 hPa 0,0 l/m² 3,2 km/h (1 Bft) NW 315 ° 0 min 0 W/m² -1,7 °C -0,7 °C 6,4 km/h (2 Bft)
12.01.2024 02:51 22,3 °C -0,7 °C 48 % 93 % 1032,2 hPa 0,0 l/m² 1,6 km/h (1 Bft) NW 315 ° 0 min 0 W/m² -1,7 °C -0,7 °C 6,4 km/h (2 Bft)
12.01.2024 02:52 22,3 °C -0,7 °C 48 % 93 % 1032,2 hPa 0,0 l/m² 1,6 km/h (1 Bft) W-NW 292 ° 0 min 0 W/m² -1,7 °C -0,7 °C 3,2 km/h (1 Bft)
12.01.2024 02:53 22,3 °C -0,7 °C 48 % 93 % 1032,1 hPa 0,0 l/m² 1,6 km/h (1 Bft) W-NW 292 ° 0 min 0 W/m² -1,7 °C -0,7 °C 3,2 km/h (1 Bft)
12.01.2024 02:54 22,3 °C -0,7 °C 48 % 93 % 1032,1 hPa 0,0 l/m² 0,0 km/h (0 Bft) W-NW 292 ° 0 min 0 W/m² -1,7 °C -0,7 °C 1,6 km/h (1 Bft)
12.01.2024 02:55 22,3 °C -0,7 °C 48 % 93 % 1032,2 hPa 0,0 l/m² 1,6 km/h (1 Bft) W-NW 292 ° 0 min 0 W/m² -1,7 °C -0,7 °C 3,2 km/h (1 Bft)
12.01.2024 02:56 22,3 °C -0,7 °C 48 % 93 % 1032,1 hPa 0,0 l/m² 0,0 km/h (0 Bft) W-NW 292 ° 0 min 0 W/m² -1,7 °C -0,7 °C 3,2 km/h (1 Bft)
12.01.2024 02:57 22,3 °C -0,7 °C 48 % 93 % 1032,0 hPa 0,0 l/m² 0,0 km/h (0 Bft) N 0 ° 0 min 0 W/m² -1,7 °C -0,7 °C 0,0 km/h (0 Bft)
12.01.2024 02:58 22,3 °C -0,7 °C 48 % 93 % 1032,2 hPa 0,0 l/m² 0,0 km/h (0 Bft) W-NW 292 ° 0 min 0 W/m² -1,7 °C -0,7 °C 3,2 km/h (1 Bft)
12.01.2024 02:59 22,3 °C -0,7 °C 48 % 93 % 1032,1 hPa 0,0 l/m² 1,6 km/h (1 Bft) W-NW 292 ° 0 min 0 W/m² -1,7 °C -0,7 °C 3,2 km/h (1 Bft)
12.01.2024 03:00 22,3 °C -0,7 °C 48 % 93 % 1032,2 hPa 0,0 l/m² 1,6 km/h (1 Bft) W-NW 292 ° 0 min 0 W/m² -1,7 °C -0,7 °C 4,8 km/h (1 Bft)
12.01.2024 03:01 22,3 °C -0,7 °C 48 % 93 % 1032,1 hPa 0,0 l/m² 0,0 km/h (0 Bft) N 0 ° 0 min 0 W/m² -1,7 °C -0,7 °C 0,0 km/h (0 Bft)
12.01.2024 03:02 22,3 °C -0,7 °C 48 % 93 % 1032,2 hPa 0,0 l/m² 3,2 km/h (1 Bft) W-NW 292 ° 0 min 0 W/m² -1,7 °C -0,7 °C 4,8 km/h (1 Bft)
12.01.2024 03:03 22,3 °C -0,7 °C 48 % 93 % 1032,2 hPa 0,0 l/m² 0,0 km/h (0 Bft) W-NW 292 ° 0 min 0 W/m² -1,7 °C -0,7 °C 1,6 km/h (1 Bft)
12.01.2024 03:04 22,3 °C -0,7 °C 48 % 93 % 1032,2 hPa 0,0 l/m² 1,6 km/h (1 Bft) W 270 ° 0 min 0 W/m² -1,7 °C -0,7 °C 3,2 km/h (1 Bft)
12.01.2024 03:05 22,3 °C -0,7 °C 48 % 93 % 1032,2 hPa 0,0 l/m² 1,6 km/h (1 Bft) W-NW 292 ° 0 min 0 W/m² -1,7 °C -0,7 °C 4,8 km/h (1 Bft)
12.01.2024 03:06 22,3 °C -0,7 °C 48 % 93 % 1032,1 hPa 0,0 l/m² 0,0 km/h (0 Bft) W-NW 292 ° 0 min 0 W/m² -1,7 °C -0,7 °C 1,6 km/h (1 Bft)
12.01.2024 03:07 22,3 °C -0,7 °C 48 % 93 % 1032,0 hPa 0,0 l/m² 0,0 km/h (0 Bft) W-NW 292 ° 0 min 0 W/m² -1,7 °C -0,7 °C 3,2 km/h (1 Bft)
12.01.2024 03:08 22,3 °C -0,7 °C 48 % 93 % 1032,1 hPa 0,0 l/m² 0,0 km/h (0 Bft) W-NW 292 ° 0 min 0 W/m² -1,7 °C -0,7 °C 1,6 km/h (1 Bft)
12.01.2024 03:09 22,3 °C -0,7 °C 48 % 93 % 1032,1 hPa 0,0 l/m² 0,0 km/h (0 Bft) W-NW 292 ° 0 min 0 W/m² -1,7 °C -0,7 °C 1,6 km/h (1 Bft)
12.01.2024 03:10 22,3 °C -0,7 °C 48 % 93 % 1032,1 hPa 0,0 l/m² 1,6 km/h (1 Bft) W-NW 292 ° 0 min 0 W/m² -1,7 °C -0,7 °C 3,2 km/h (1 Bft)
12.01.2024 03:11 22,3 °C -0,7 °C 48 % 93 % 1032,1 hPa 0,0 l/m² 1,6 km/h (1 Bft) W-NW 292 ° 0 min 0 W/m² -1,7 °C -0,7 °C 3,2 km/h (1 Bft)
12.01.2024 03:12 22,3 °C -0,7 °C 48 % 93 % 1032,1 hPa 0,0 l/m² 0,0 km/h (0 Bft) W-NW 292 ° 0 min 0 W/m² -1,7 °C -0,7 °C 1,6 km/h (1 Bft)
12.01.2024 03:13 22,3 °C -0,7 °C 48 % 93 % 1032,2 hPa 0,0 l/m² 0,0 km/h (0 Bft) W-NW 292 ° 0 min 0 W/m² -1,7 °C -0,7 °C 3,2 km/h (1 Bft)
12.01.2024 03:14 22,3 °C -0,7 °C 48 % 93 % 1032,1 hPa 0,0 l/m² 1,6 km/h (1 Bft) W-NW 292 ° 0 min 0 W/m² -1,7 °C -0,7 °C 3,2 km/h (1 Bft)
12.01.2024 03:15 22,3 °C -0,7 °C 48 % 93 % 1032,0 hPa 0,0 l/m² 3,2 km/h (1 Bft) W-NW 292 ° 0 min 0 W/m² -1,7 °C -0,7 °C 6,4 km/h (2 Bft)
12.01.2024 03:16 22,3 °C -0,7 °C 48 % 93 % 1032,0 hPa 0,0 l/m² 0,0 km/h (0 Bft) W-NW 292 ° 0 min 0 W/m² -1,7 °C -0,7 °C 1,6 km/h (1 Bft)
12.01.2024 03:17 22,3 °C -0,7 °C 48 % 93 % 1032,0 hPa 0,0 l/m² 3,2 km/h (1 Bft) W-NW 292 ° 0 min 0 W/m² -1,7 °C -0,7 °C 4,8 km/h (1 Bft)
12.01.2024 03:18 22,3 °C -0,7 °C 48 % 93 % 1032,1 hPa 0,0 l/m² 1,6 km/h (1 Bft) W 270 ° 0 min 0 W/m² -1,7 °C -0,7 °C 4,8 km/h (1 Bft)
12.01.2024 03:19 22,3 °C -0,7 °C 48 % 93 % 1032,0 hPa 0,0 l/m² 4,8 km/h (1 Bft) W 270 ° 0 min 0 W/m² -1,7 °C -0,7 °C 9,7 km/h (2 Bft)
12.01.2024 03:20 22,3 °C -0,7 °C 48 % 93 % 1032,0 hPa 0,0 l/m² 4,8 km/h (1 Bft) W 270 ° 0 min 0 W/m² -1,7 °C -0,7 °C 9,7 km/h (2 Bft)
12.01.2024 03:21 22,3 °C -0,7 °C 48 % 93 % 1032,1 hPa 0,0 l/m² 3,2 km/h (1 Bft) W 270 ° 0 min 0 W/m² -1,7 °C -0,7 °C 6,4 km/h (2 Bft)
12.01.2024 03:22 22,3 °C -0,8 °C 48 % 93 % 1032,1 hPa 0,0 l/m² 8,0 km/h (2 Bft) W 270 ° 0 min 0 W/m² -1,8 °C -2,5 °C 11,3 km/h (2 Bft)
12.01.2024 03:23 22,3 °C -0,8 °C 48 % 93 % 1032,0 hPa 0,0 l/m² 4,8 km/h (1 Bft) W-NW 292 ° 0 min 0 W/m² -1,8 °C -0,8 °C 8,0 km/h (2 Bft)
12.01.2024 03:24 22,3 °C -0,8 °C 48 % 93 % 1032,0 hPa 0,0 l/m² 1,6 km/h (1 Bft) W 270 ° 0 min 0 W/m² -1,8 °C -0,8 °C 4,8 km/h (1 Bft)
12.01.2024 03:25 22,3 °C -0,8 °C 48 % 93 % 1031,9 hPa 0,0 l/m² 0,0 km/h (0 Bft) W 270 ° 0 min 0 W/m² -1,8 °C -0,8 °C 1,6 km/h (1 Bft)
12.01.2024 03:26 22,3 °C -0,8 °C 48 % 93 % 1031,9 hPa 0,0 l/m² 0,0 km/h (0 Bft) W 270 ° 0 min 0 W/m² -1,8 °C -0,8 °C 3,2 km/h (1 Bft)
12.01.2024 03:27 22,3 °C -0,8 °C 48 % 93 % 1031,9 hPa 0,0 l/m² 3,2 km/h (1 Bft) W 270 ° 0 min 0 W/m² -1,8 °C -0,8 °C 4,8 km/h (1 Bft)
12.01.2024 03:28 22,3 °C -0,8 °C 48 % 93 % 1031,9 hPa 0,0 l/m² 3,2 km/h (1 Bft) W-NW 292 ° 0 min 0 W/m² -1,8 °C -0,8 °C 4,8 km/h (1 Bft)
12.01.2024 03:29 22,3 °C -0,8 °C 48 % 93 % 1032,0 hPa 0,0 l/m² 1,6 km/h (1 Bft) W-NW 292 ° 0 min 0 W/m² -1,8 °C -0,8 °C 4,8 km/h (1 Bft)
12.01.2024 03:30 22,3 °C -0,8 °C 48 % 93 % 1031,9 hPa 0,0 l/m² 1,6 km/h (1 Bft) NW 315 ° 0 min 0 W/m² -1,8 °C -0,8 °C 4,8 km/h (1 Bft)
12.01.2024 03:31 22,3 °C -0,8 °C 48 % 93 % 1032,0 hPa 0,0 l/m² 3,2 km/h (1 Bft) NW 315 ° 0 min 0 W/m² -1,8 °C -0,8 °C 6,4 km/h (2 Bft)
12.01.2024 03:32 22,3 °C -0,8 °C 48 % 93 % 1032,0 hPa 0,0 l/m² 1,6 km/h (1 Bft) W-NW 292 ° 0 min 0 W/m² -1,8 °C -0,8 °C 4,8 km/h (1 Bft)
12.01.2024 03:33 22,3 °C -0,8 °C 48 % 93 % 1032,1 hPa 0,0 l/m² 3,2 km/h (1 Bft) W-NW 292 ° 0 min 0 W/m² -1,8 °C -0,8 °C 9,7 km/h (2 Bft)
12.01.2024 03:34 22,3 °C -0,8 °C 48 % 93 % 1032,1 hPa 0,0 l/m² 4,8 km/h (1 Bft) W-NW 292 ° 0 min 0 W/m² -1,8 °C -0,8 °C 8,0 km/h (2 Bft)
12.01.2024 03:35 22,3 °C -0,8 °C 47 % 93 % 1032,1 hPa 0,0 l/m² 0,0 km/h (0 Bft) W-NW 292 ° 0 min 0 W/m² -1,8 °C -0,8 °C 4,8 km/h (1 Bft)
12.01.2024 03:36 22,3 °C -0,8 °C 47 % 93 % 1032,0 hPa 0,0 l/m² 1,6 km/h (1 Bft) W-NW 292 ° 0 min 0 W/m² -1,8 °C -0,8 °C 3,2 km/h (1 Bft)
12.01.2024 03:37 22,3 °C -0,8 °C 47 % 93 % 1032,0 hPa 0,0 l/m² 1,6 km/h (1 Bft) W-NW 292 ° 0 min 0 W/m² -1,8 °C -0,8 °C 4,8 km/h (1 Bft)
12.01.2024 03:38 22,3 °C -0,8 °C 48 % 93 % 1032,1 hPa 0,0 l/m² 4,8 km/h (1 Bft) W-NW 292 ° 0 min 0 W/m² -1,8 °C -0,8 °C 6,4 km/h (2 Bft)
12.01.2024 03:39 22,3 °C -0,8 °C 47 % 93 % 1032,0 hPa 0,0 l/m² 3,2 km/h (1 Bft) W-NW 292 ° 0 min 0 W/m² -1,8 °C -0,8 °C 6,4 km/h (2 Bft)
12.01.2024 03:40 22,3 °C -0,8 °C 47 % 93 % 1032,0 hPa 0,0 l/m² 1,6 km/h (1 Bft) W 270 ° 0 min 0 W/m² -1,8 °C -0,8 °C 9,7 km/h (2 Bft)
12.01.2024 03:41 22,3 °C -0,8 °C 47 % 93 % 1032,1 hPa 0,0 l/m² 3,2 km/h (1 Bft) NW 315 ° 0 min 0 W/m² -1,8 °C -0,8 °C 9,7 km/h (2 Bft)
12.01.2024 03:42 22,3 °C -0,8 °C 47 % 93 % 1032,1 hPa 0,0 l/m² 1,6 km/h (1 Bft) W-NW 292 ° 0 min 0 W/m² -1,8 °C -0,8 °C 4,8 km/h (1 Bft)
12.01.2024 03:43 22,4 °C -0,8 °C 47 % 93 % 1032,2 hPa 0,0 l/m² 0,0 km/h (0 Bft) W 270 ° 0 min 0 W/m² -1,8 °C -0,8 °C 1,6 km/h (1 Bft)
12.01.2024 03:44 22,3 °C -0,8 °C 47 % 93 % 1032,1 hPa 0,0 l/m² 3,2 km/h (1 Bft) W-NW 292 ° 0 min 0 W/m² -1,8 °C -0,8 °C 8,0 km/h (2 Bft)
12.01.2024 03:45 22,3 °C -0,8 °C 47 % 93 % 1032,1 hPa 0,0 l/m² 1,6 km/h (1 Bft) W-NW 292 ° 0 min 0 W/m² -1,8 °C -0,8 °C 4,8 km/h (1 Bft)
12.01.2024 03:46 22,4 °C -0,8 °C 47 % 93 % 1032,1 hPa 0,0 l/m² 1,6 km/h (1 Bft) NW 315 ° 0 min 0 W/m² -1,8 °C -0,8 °C 3,2 km/h (1 Bft)
12.01.2024 03:47 22,3 °C -0,8 °C 47 % 93 % 1032,0 hPa 0,0 l/m² 1,6 km/h (1 Bft) NW 315 ° 0 min 0 W/m² -1,8 °C -0,8 °C 3,2 km/h (1 Bft)
12.01.2024 03:48 22,3 °C -0,8 °C 47 % 93 % 1032,1 hPa 0,0 l/m² 3,2 km/h (1 Bft) N-NW 337 ° 0 min 0 W/m² -1,8 °C -0,8 °C 6,4 km/h (2 Bft)
12.01.2024 03:49 22,3 °C -0,8 °C 47 % 93 % 1032,0 hPa 0,0 l/m² 1,6 km/h (1 Bft) NW 315 ° 0 min 0 W/m² -1,8 °C -0,8 °C 4,8 km/h (1 Bft)
12.01.2024 03:50 22,3 °C -0,8 °C 47 % 93 % 1032,1 hPa 0,0 l/m² 3,2 km/h (1 Bft) NW 315 ° 0 min 0 W/m² -1,8 °C -0,8 °C 4,8 km/h (1 Bft)
12.01.2024 03:51 22,3 °C -0,8 °C 47 % 93 % 1032,0 hPa 0,0 l/m² 1,6 km/h (1 Bft) NW 315 ° 0 min 0 W/m² -1,8 °C -0,8 °C 6,4 km/h (2 Bft)
12.01.2024 03:52 22,3 °C -0,8 °C 47 % 93 % 1032,0 hPa 0,0 l/m² 0,0 km/h (0 Bft) NW 315 ° 0 min 0 W/m² -1,8 °C -0,8 °C 1,6 km/h (1 Bft)
12.01.2024 03:53 22,3 °C -0,8 °C 47 % 93 % 1032,0 hPa 0,0 l/m² 3,2 km/h (1 Bft) NW 315 ° 0 min 0 W/m² -1,8 °C -0,8 °C 4,8 km/h (1 Bft)
12.01.2024 03:54 22,3 °C -0,8 °C 47 % 93 % 1032,0 hPa 0,0 l/m² 3,2 km/h (1 Bft) NW 315 ° 0 min 0 W/m² -1,8 °C -0,8 °C 4,8 km/h (1 Bft)
12.01.2024 03:55 22,4 °C -0,8 °C 47 % 93 % 1031,9 hPa 0,0 l/m² 1,6 km/h (1 Bft) NW 315 ° 0 min 0 W/m² -1,8 °C -0,8 °C 4,8 km/h (1 Bft)
12.01.2024 03:56 22,3 °C -0,8 °C 47 % 93 % 1031,9 hPa 0,0 l/m² 0,0 km/h (0 Bft) NW 315 ° 0 min 0 W/m² -1,8 °C -0,8 °C 1,6 km/h (1 Bft)
12.01.2024 03:57 22,3 °C -0,8 °C 47 % 93 % 1031,9 hPa 0,0 l/m² 3,2 km/h (1 Bft) NW 315 ° 0 min 0 W/m² -1,8 °C -0,8 °C 6,4 km/h (2 Bft)
12.01.2024 03:58 22,4 °C -0,8 °C 47 % 93 % 1031,8 hPa 0,0 l/m² 1,6 km/h (1 Bft) W-NW 292 ° 0 min 0 W/m² -1,8 °C -0,8 °C 4,8 km/h (1 Bft)
12.01.2024 03:59 22,3 °C -0,8 °C 47 % 93 % 1031,8 hPa 0,0 l/m² 3,2 km/h (1 Bft) W-NW 292 ° 0 min 0 W/m² -1,8 °C -0,8 °C 6,4 km/h (2 Bft)
12.01.2024 04:00 22,3 °C -0,8 °C 47 % 93 % 1031,9 hPa 0,0 l/m² 0,0 km/h (0 Bft) W-NW 292 ° 0 min 0 W/m² -1,8 °C -0,8 °C 3,2 km/h (1 Bft)
12.01.2024 04:01 22,3 °C -0,8 °C 47 % 93 % 1031,9 hPa 0,0 l/m² 0,0 km/h (0 Bft) W-NW 292 ° 0 min 0 W/m² -1,8 °C -0,8 °C 3,2 km/h (1 Bft)
12.01.2024 04:02 22,3 °C -0,8 °C 47 % 93 % 1031,9 hPa 0,0 l/m² 4,8 km/h (1 Bft) W 270 ° 0 min 0 W/m² -1,8 °C -0,8 °C 9,7 km/h (2 Bft)
12.01.2024 04:03 22,3 °C -0,8 °C 47 % 93 % 1031,9 hPa 0,0 l/m² 6,4 km/h (2 Bft) W 270 ° 0 min 0 W/m² -1,8 °C -0,8 °C 9,7 km/h (2 Bft)
12.01.2024 04:04 22,3 °C -0,8 °C 47 % 93 % 1032,0 hPa 0,0 l/m² 1,6 km/h (1 Bft) W-NW 292 ° 0 min 0 W/m² -1,8 °C -0,8 °C 3,2 km/h (1 Bft)
12.01.2024 04:05 22,4 °C -0,8 °C 47 % 93 % 1031,9 hPa 0,0 l/m² 1,6 km/h (1 Bft) W 270 ° 0 min 0 W/m² -1,8 °C -0,8 °C 3,2 km/h (1 Bft)
12.01.2024 04:06 22,3 °C -0,8 °C 47 % 93 % 1031,9 hPa 0,0 l/m² 1,6 km/h (1 Bft) W-NW 292 ° 0 min 0 W/m² -1,8 °C -0,8 °C 4,8 km/h (1 Bft)
12.01.2024 04:07 22,4 °C -0,8 °C 47 % 93 % 1032,0 hPa 0,0 l/m² 1,6 km/h (1 Bft) W 270 ° 0 min 0 W/m² -1,8 °C -0,8 °C 6,4 km/h (2 Bft)
12.01.2024 04:08 22,4 °C -0,8 °C 47 % 93 % 1032,0 hPa 0,0 l/m² 6,4 km/h (2 Bft) W 270 ° 0 min 0 W/m² -1,8 °C -0,8 °C 11,3 km/h (2 Bft)
12.01.2024 04:09 22,3 °C -0,8 °C 47 % 93 % 1031,9 hPa 0,0 l/m² 8,0 km/h (2 Bft) W 270 ° 0 min 0 W/m² -1,8 °C -2,5 °C 11,3 km/h (2 Bft)
12.01.2024 04:10 22,3 °C -0,8 °C 47 % 93 % 1031,9 hPa 0,0 l/m² 9,7 km/h (2 Bft) W 270 ° 0 min 0 W/m² -1,8 °C -4,1 °C 12,9 km/h (3 Bft)
12.01.2024 04:11 22,3 °C -0,8 °C 47 % 93 % 1032,0 hPa 0,0 l/m² 8,0 km/h (2 Bft) W 270 ° 0 min 0 W/m² -1,8 °C -2,5 °C 11,3 km/h (2 Bft)
12.01.2024 04:12 22,3 °C -0,8 °C 47 % 93 % 1032,0 hPa 0,0 l/m² 4,8 km/h (1 Bft) W-NW 292 ° 0 min 0 W/m² -1,8 °C -0,8 °C 9,7 km/h (2 Bft)
12.01.2024 04:13 22,3 °C -0,8 °C 47 % 93 % 1031,9 hPa 0,0 l/m² 6,4 km/h (2 Bft) W 270 ° 0 min 0 W/m² -1,8 °C -0,8 °C 9,7 km/h (2 Bft)
12.01.2024 04:14 22,4 °C -0,8 °C 47 % 93 % 1031,9 hPa 0,0 l/m² 6,4 km/h (2 Bft) W-NW 292 ° 0 min 0 W/m² -1,8 °C -0,8 °C 11,3 km/h (2 Bft)
12.01.2024 04:15 22,3 °C -0,8 °C 47 % 93 % 1031,9 hPa 0,0 l/m² 3,2 km/h (1 Bft) W 270 ° 0 min 0 W/m² -1,8 °C -0,8 °C 9,7 km/h (2 Bft)
12.01.2024 04:16 22,4 °C -0,8 °C 47 % 93 % 1031,9 hPa 0,0 l/m² 3,2 km/h (1 Bft) W 270 ° 0 min 0 W/m² -1,8 °C -0,8 °C 9,7 km/h (2 Bft)
12.01.2024 04:17 22,3 °C -0,8 °C 47 % 93 % 1031,9 hPa 0,0 l/m² 6,4 km/h (2 Bft) W 270 ° 0 min 0 W/m² -1,8 °C -0,8 °C 9,7 km/h (2 Bft)
12.01.2024 04:18 22,4 °C -0,8 °C 47 % 93 % 1032,0 hPa 0,0 l/m² 6,4 km/h (2 Bft) W 270 ° 0 min 0 W/m² -1,8 °C -0,8 °C 11,3 km/h (2 Bft)
12.01.2024 04:19 22,3 °C -0,8 °C 47 % 93 % 1031,9 hPa 0,0 l/m² 8,0 km/h (2 Bft) W-NW 292 ° 0 min 0 W/m² -1,8 °C -2,5 °C 12,9 km/h (3 Bft)
12.01.2024 04:20 22,3 °C -0,8 °C 47 % 93 % 1031,9 hPa 0,0 l/m² 6,4 km/h (2 Bft) W-NW 292 ° 0 min 0 W/m² -1,8 °C -0,8 °C 11,3 km/h (2 Bft)
12.01.2024 04:21 22,3 °C -0,8 °C 47 % 93 % 1031,9 hPa 0,0 l/m² 6,4 km/h (2 Bft) W-NW 292 ° 0 min 0 W/m² -1,8 °C -0,8 °C 11,3 km/h (2 Bft)
12.01.2024 04:22 22,4 °C -0,9 °C 47 % 93 % 1031,9 hPa 0,0 l/m² 4,8 km/h (1 Bft) W-NW 292 ° 0 min 0 W/m² -1,9 °C -0,9 °C 11,3 km/h (2 Bft)
12.01.2024 04:23 22,4 °C -0,8 °C 47 % 93 % 1031,9 hPa 0,0 l/m² 4,8 km/h (1 Bft) W-NW 292 ° 0 min 0 W/m² -1,8 °C -0,8 °C 9,7 km/h (2 Bft)
12.01.2024 04:24 22,4 °C -0,9 °C 47 % 93 % 1031,8 hPa 0,0 l/m² 1,6 km/h (1 Bft) W-NW 292 ° 0 min 0 W/m² -1,9 °C -0,9 °C 4,8 km/h (1 Bft)
12.01.2024 04:25 22,3 °C -0,9 °C 47 % 93 % 1031,8 hPa 0,0 l/m² 0,0 km/h (0 Bft) W-NW 292 ° 0 min 0 W/m² -1,9 °C -0,9 °C 1,6 km/h (1 Bft)
12.01.2024 04:26 22,3 °C -0,9 °C 47 % 93 % 1031,9 hPa 0,0 l/m² 1,6 km/h (1 Bft) W-NW 292 ° 0 min 0 W/m² -1,9 °C -0,9 °C 3,2 km/h (1 Bft)
12.01.2024 04:27 22,3 °C -0,8 °C 47 % 93 % 1031,9 hPa 0,0 l/m² 1,6 km/h (1 Bft) W-NW 292 ° 0 min 0 W/m² -1,8 °C -0,8 °C 4,8 km/h (1 Bft)
12.01.2024 04:28 22,4 °C -0,8 °C 47 % 93 % 1031,8 hPa 0,0 l/m² 3,2 km/h (1 Bft) W-NW 292 ° 0 min 0 W/m² -1,8 °C -0,8 °C 9,7 km/h (2 Bft)
12.01.2024 04:29 22,3 °C -0,9 °C 47 % 93 % 1031,8 hPa 0,0 l/m² 3,2 km/h (1 Bft) W-NW 292 ° 0 min 0 W/m² -1,9 °C -0,9 °C 6,4 km/h (2 Bft)
12.01.2024 04:30 22,3 °C -0,8 °C 47 % 93 % 1031,9 hPa 0,0 l/m² 3,2 km/h (1 Bft) W 270 ° 0 min 0 W/m² -1,8 °C -0,8 °C 6,4 km/h (2 Bft)
12.01.2024 04:31 22,4 °C -0,9 °C 47 % 93 % 1031,9 hPa 0,0 l/m² 3,2 km/h (1 Bft) W-NW 292 ° 0 min 0 W/m² -1,9 °C -0,9 °C 6,4 km/h (2 Bft)
12.01.2024 04:32 22,3 °C -0,8 °C 47 % 93 % 1031,9 hPa 0,0 l/m² 3,2 km/h (1 Bft) W-NW 292 ° 0 min 0 W/m² -1,8 °C -0,8 °C 8,0 km/h (2 Bft)
12.01.2024 04:33 22,3 °C -0,8 °C 47 % 93 % 1031,9 hPa 0,0 l/m² 0,0 km/h (0 Bft) W-NW 292 ° 0 min 0 W/m² -1,8 °C -0,8 °C 1,6 km/h (1 Bft)
12.01.2024 04:34 22,4 °C -0,8 °C 47 % 93 % 1031,8 hPa 0,0 l/m² 1,6 km/h (1 Bft) W-NW 292 ° 0 min 0 W/m² -1,8 °C -0,8 °C 4,8 km/h (1 Bft)
12.01.2024 04:35 22,3 °C -0,8 °C 47 % 93 % 1031,9 hPa 0,0 l/m² 0,0 km/h (0 Bft) N 0 ° 0 min 0 W/m² -1,8 °C -0,8 °C 0,0 km/h (0 Bft)
12.01.2024 04:36 22,3 °C -0,8 °C 47 % 93 % 1031,8 hPa 0,0 l/m² 1,6 km/h (1 Bft) W-NW 292 ° 0 min 0 W/m² -1,8 °C -0,8 °C 3,2 km/h (1 Bft)
12.01.2024 04:37 22,3 °C -0,8 °C 47 % 93 % 1031,8 hPa 0,0 l/m² 0,0 km/h (0 Bft) W-NW 292 ° 0 min 0 W/m² -1,8 °C -0,8 °C 3,2 km/h (1 Bft)
12.01.2024 04:38 22,3 °C -0,8 °C 47 % 93 % 1031,9 hPa 0,0 l/m² 0,0 km/h (0 Bft) W-NW 292 ° 0 min 0 W/m² -1,8 °C -0,8 °C 1,6 km/h (1 Bft)
12.01.2024 04:39 22,4 °C -0,8 °C 47 % 93 % 1031,8 hPa 0,0 l/m² 3,2 km/h (1 Bft) W-NW 292 ° 0 min 0 W/m² -1,8 °C -0,8 °C 6,4 km/h (2 Bft)
12.01.2024 04:40 22,3 °C -0,8 °C 47 % 93 % 1031,9 hPa 0,0 l/m² 4,8 km/h (1 Bft) W-NW 292 ° 0 min 0 W/m² -1,8 °C -0,8 °C 9,7 km/h (2 Bft)
12.01.2024 04:41 22,3 °C -0,8 °C 47 % 93 % 1031,8 hPa 0,0 l/m² 3,2 km/h (1 Bft) W 270 ° 0 min 0 W/m² -1,8 °C -0,8 °C 6,4 km/h (2 Bft)
12.01.2024 04:42 22,3 °C -0,8 °C 47 % 93 % 1031,8 hPa 0,0 l/m² 3,2 km/h (1 Bft) W 270 ° 0 min 0 W/m² -1,8 °C -0,8 °C 6,4 km/h (2 Bft)
12.01.2024 04:43 22,3 °C -0,8 °C 47 % 93 % 1031,8 hPa 0,0 l/m² 4,8 km/h (1 Bft) W 270 ° 0 min 0 W/m² -1,8 °C -0,8 °C 8,0 km/h (2 Bft)
12.01.2024 04:44 22,3 °C -0,8 °C 47 % 93 % 1031,7 hPa 0,0 l/m² 3,2 km/h (1 Bft) W 270 ° 0 min 0 W/m² -1,8 °C -0,8 °C 6,4 km/h (2 Bft)
12.01.2024 04:45 22,3 °C -0,8 °C 47 % 93 % 1031,7 hPa 0,0 l/m² 3,2 km/h (1 Bft) W 270 ° 0 min 0 W/m² -1,8 °C -0,8 °C 6,4 km/h (2 Bft)
12.01.2024 04:46 22,3 °C -0,8 °C 47 % 93 % 1031,8 hPa 0,0 l/m² 0,0 km/h (0 Bft) W 270 ° 0 min 0 W/m² -1,8 °C -0,8 °C 3,2 km/h (1 Bft)
12.01.2024 04:47 22,4 °C -0,8 °C 47 % 93 % 1031,8 hPa 0,0 l/m² 3,2 km/h (1 Bft) W-NW 292 ° 0 min 0 W/m² -1,8 °C -0,8 °C 4,8 km/h (1 Bft)
12.01.2024 04:48 22,3 °C -0,8 °C 47 % 93 % 1031,7 hPa 0,0 l/m² 3,2 km/h (1 Bft) W-NW 292 ° 0 min 0 W/m² -1,8 °C -0,8 °C 6,4 km/h (2 Bft)
12.01.2024 04:49 22,3 °C -0,8 °C 47 % 93 % 1031,7 hPa 0,0 l/m² 1,6 km/h (1 Bft) W-NW 292 ° 0 min 0 W/m² -1,8 °C -0,8 °C 4,8 km/h (1 Bft)
12.01.2024 04:50 22,3 °C -0,8 °C 47 % 93 % 1031,8 hPa 0,0 l/m² 1,6 km/h (1 Bft) W-NW 292 ° 0 min 0 W/m² -1,8 °C -0,8 °C 8,0 km/h (2 Bft)
12.01.2024 04:51 22,3 °C -0,8 °C 47 % 93 % 1031,8 hPa 0,0 l/m² 3,2 km/h (1 Bft) NW 315 ° 0 min 0 W/m² -1,8 °C -0,8 °C 8,0 km/h (2 Bft)
12.01.2024 04:52 22,3 °C -0,8 °C 47 % 93 % 1031,8 hPa 0,0 l/m² 1,6 km/h (1 Bft) W-NW 292 ° 0 min 0 W/m² -1,8 °C -0,8 °C 9,7 km/h (2 Bft)
12.01.2024 04:53 22,3 °C -0,8 °C 47 % 93 % 1031,8 hPa 0,0 l/m² 3,2 km/h (1 Bft) W 270 ° 0 min 0 W/m² -1,8 °C -0,8 °C 4,8 km/h (1 Bft)
12.01.2024 04:54 22,3 °C -0,8 °C 47 % 93 % 1031,8 hPa 0,0 l/m² 1,6 km/h (1 Bft) W 270 ° 0 min 0 W/m² -1,8 °C -0,8 °C 4,8 km/h (1 Bft)
12.01.2024 04:55 22,3 °C -0,8 °C 47 % 93 % 1031,8 hPa 0,0 l/m² 3,2 km/h (1 Bft) W 270 ° 0 min 0 W/m² -1,8 °C -0,8 °C 8,0 km/h (2 Bft)
12.01.2024 05:00 22,3 °C -0,8 °C 47 % 93 % 1031,7 hPa 0,0 l/m² 5,5 km/h (2 Bft) NW 311 ° 0 min 0 W/m² -1,8 °C -0,8 °C 8,0 km/h (2 Bft)
12.01.2024 05:02 22,4 °C -0,8 °C 47 % 93 % 1031,8 hPa 0,0 l/m² 7,3 km/h (2 Bft) NW 309 ° 0 min 0 W/m² -1,8 °C -1,8 °C 11,3 km/h (2 Bft)
12.01.2024 05:04 22,4 °C -0,8 °C 47 % 93 % 1031,7 hPa 0,0 l/m² 1,6 km/h (1 Bft) W 275 ° 0 min 0 W/m² -1,8 °C -0,8 °C 4,8 km/h (1 Bft)
12.01.2024 05:06 22,4 °C -0,8 °C 47 % 93 % 1031,8 hPa 0,0 l/m² 1,8 km/h (1 Bft) W-NW 297 ° 0 min 0 W/m² -1,8 °C -0,8 °C 4,8 km/h (1 Bft)
12.01.2024 05:08 22,4 °C -0,8 °C 47 % 93 % 1031,8 hPa 0,0 l/m² 2,0 km/h (1 Bft) NW 305 ° 0 min 0 W/m² -1,8 °C -0,8 °C 6,4 km/h (2 Bft)
12.01.2024 05:10 22,4 °C -0,8 °C 47 % 93 % 1031,8 hPa 0,0 l/m² 2,1 km/h (1 Bft) NW 305 ° 0 min 0 W/m² -1,8 °C -0,8 °C 4,8 km/h (1 Bft)
12.01.2024 05:11 22,4 °C -0,8 °C 47 % 93 % 1031,7 hPa 0,0 l/m² 2,8 km/h (1 Bft) NW 305 ° 0 min 0 W/m² -1,8 °C -0,8 °C 4,8 km/h (1 Bft)
12.01.2024 05:12 22,4 °C -0,8 °C 47 % 93 % 1031,7 hPa 0,0 l/m² 1,2 km/h (1 Bft) NW 305 ° 0 min 0 W/m² -1,8 °C -0,8 °C 4,8 km/h (1 Bft)
12.01.2024 05:14 22,4 °C -0,8 °C 46 % 93 % 1031,7 hPa 0,0 l/m² 0,3 km/h (0 Bft) NW 305 ° 0 min 0 W/m² -1,8 °C -0,8 °C 1,6 km/h (1 Bft)
12.01.2024 05:16 22,5 °C -0,8 °C 46 % 93 % 1031,6 hPa 0,0 l/m² 1,9 km/h (1 Bft) NW 305 ° 0 min 0 W/m² -1,8 °C -0,8 °C 6,4 km/h (2 Bft)
12.01.2024 05:18 22,5 °C -0,8 °C 46 % 93 % 1031,7 hPa 0,0 l/m² 3,1 km/h (1 Bft) W-NW 290 ° 0 min 0 W/m² -1,8 °C -0,8 °C 6,4 km/h (2 Bft)
12.01.2024 05:19 22,4 °C -0,8 °C 46 % 93 % 1031,8 hPa 0,0 l/m² 0,8 km/h (0 Bft) W-NW 290 ° 0 min 0 W/m² -1,8 °C -0,8 °C 3,2 km/h (1 Bft)
12.01.2024 05:21 22,5 °C -0,9 °C 46 % 93 % 1031,7 hPa 0,0 l/m² 0,0 km/h (0 Bft) W-NW 290 ° 0 min 0 W/m² -1,9 °C -0,9 °C 1,6 km/h (1 Bft)
12.01.2024 05:22 22,5 °C -0,8 °C 46 % 93 % 1031,7 hPa 0,0 l/m² 1,4 km/h (1 Bft) W-NW 290 ° 0 min 0 W/m² -1,8 °C -0,8 °C 4,8 km/h (1 Bft)
12.01.2024 05:23 22,5 °C -0,8 °C 46 % 93 % 1031,7 hPa 0,0 l/m² 1,8 km/h (1 Bft) W-NW 290 ° 0 min 0 W/m² -1,8 °C -0,8 °C 4,8 km/h (1 Bft)
12.01.2024 05:25 22,5 °C -0,8 °C 46 % 93 % 1031,6 hPa 0,0 l/m² 0,5 km/h (0 Bft) W-NW 290 ° 0 min 0 W/m² -1,8 °C -0,8 °C 3,2 km/h (1 Bft)
12.01.2024 05:27 22,5 °C -0,8 °C 46 % 93 % 1031,7 hPa 0,0 l/m² 0,0 km/h (0 Bft) W-NW 290 ° 0 min 0 W/m² -1,8 °C -0,8 °C 0,0 km/h (0 Bft)
12.01.2024 05:29 22,5 °C -0,8 °C 46 % 93 % 1031,7 hPa 0,0 l/m² 1,8 km/h (1 Bft) W-NW 290 ° 0 min 0 W/m² -1,8 °C -0,8 °C 4,8 km/h (1 Bft)
12.01.2024 05:30 22,6 °C -0,8 °C 46 % 93 % 1031,6 hPa 0,0 l/m² 3,2 km/h (1 Bft) W-NW 298 ° 0 min 0 W/m² -1,8 °C -0,8 °C 6,4 km/h (2 Bft)
12.01.2024 05:32 22,6 °C -0,8 °C 46 % 93 % 1031,6 hPa 0,0 l/m² 1,3 km/h (1 Bft) W-NW 298 ° 0 min 0 W/m² -1,8 °C -0,8 °C 6,4 km/h (2 Bft)
12.01.2024 05:34 22,6 °C -0,8 °C 46 % 93 % 1031,7 hPa 0,0 l/m² 0,4 km/h (0 Bft) W-NW 298 ° 0 min 0 W/m² -1,8 °C -0,8 °C 3,2 km/h (1 Bft)
12.01.2024 05:36 22,6 °C -0,8 °C 46 % 93 % 1031,6 hPa 0,0 l/m² 0,2 km/h (0 Bft) W-NW 298 ° 0 min 0 W/m² -1,8 °C -0,8 °C 3,2 km/h (1 Bft)
12.01.2024 05:38 22,6 °C -0,8 °C 46 % 93 % 1031,6 hPa 0,0 l/m² 0,8 km/h (0 Bft) W-NW 298 ° 0 min 0 W/m² -1,8 °C -0,8 °C 4,8 km/h (1 Bft)
12.01.2024 05:40 22,6 °C -0,8 °C 46 % 93 % 1031,7 hPa 0,0 l/m² 2,2 km/h (1 Bft) W-NW 298 ° 0 min 0 W/m² -1,8 °C -0,8 °C 4,8 km/h (1 Bft)
12.01.2024 05:41 22,6 °C -0,8 °C 46 % 93 % 1031,6 hPa 0,0 l/m² 0,3 km/h (0 Bft) W-NW 298 ° 0 min 0 W/m² -1,8 °C -0,8 °C 1,6 km/h (1 Bft)
12.01.2024 05:42 22,6 °C -0,8 °C 46 % 93 % 1031,6 hPa 0,0 l/m² 0,0 km/h (0 Bft) W-NW 298 ° 0 min 0 W/m² -1,8 °C -0,8 °C 0,0 km/h (0 Bft)
12.01.2024 05:43 22,6 °C -0,8 °C 46 % 93 % 1031,7 hPa 0,0 l/m² 1,6 km/h (1 Bft) W-NW 298 ° 0 min 0 W/m² -1,8 °C -0,8 °C 4,8 km/h (1 Bft)
12.01.2024 05:44 22,6 °C -0,8 °C 46 % 93 % 1031,5 hPa 0,0 l/m² 2,1 km/h (1 Bft) W-NW 298 ° 0 min 0 W/m² -1,8 °C -0,8 °C 4,8 km/h (1 Bft)
12.01.2024 05:46 22,6 °C -0,8 °C 46 % 93 % 1031,5 hPa 0,0 l/m² 0,1 km/h (0 Bft) W-NW 298 ° 0 min 0 W/m² -1,8 °C -0,8 °C 1,6 km/h (1 Bft)
12.01.2024 05:48 22,6 °C -0,8 °C 46 % 93 % 1031,4 hPa 0,0 l/m² 1,7 km/h (1 Bft) W-NW 298 ° 0 min 0 W/m² -1,8 °C -0,8 °C 4,8 km/h (1 Bft)
12.01.2024 05:50 22,6 °C -0,8 °C 46 % 93 % 1031,4 hPa 0,0 l/m² 2,0 km/h (1 Bft) W-NW 298 ° 0 min 0 W/m² -1,8 °C -0,8 °C 4,8 km/h (1 Bft)
12.01.2024 05:51 22,6 °C -0,8 °C 46 % 93 % 1031,3 hPa 0,0 l/m² 1,5 km/h (1 Bft) W-NW 298 ° 0 min 0 W/m² -1,8 °C -0,8 °C 3,2 km/h (1 Bft)
12.01.2024 05:53 22,6 °C -0,8 °C 46 % 93 % 1031,3 hPa 0,0 l/m² 2,9 km/h (1 Bft) W-NW 298 ° 0 min 0 W/m² -1,8 °C -0,8 °C 4,8 km/h (1 Bft)
12.01.2024 05:54 22,6 °C -0,8 °C 46 % 93 % 1031,4 hPa 0,0 l/m² 3,2 km/h (1 Bft) W-NW 298 ° 0 min 0 W/m² -1,8 °C -0,8 °C 4,8 km/h (1 Bft)
12.01.2024 05:56 22,6 °C -0,8 °C 46 % 93 % 1031,3 hPa 0,0 l/m² 1,4 km/h (1 Bft) W-NW 298 ° 0 min 0 W/m² -1,8 °C -0,8 °C 4,8 km/h (1 Bft)
12.01.2024 05:58 22,6 °C -0,8 °C 46 % 93 % 1031,3 hPa 0,0 l/m² 1,0 km/h (0 Bft) W-NW 298 ° 0 min 0 W/m² -1,8 °C -0,8 °C 3,2 km/h (1 Bft)
12.01.2024 05:59 22,6 °C -0,8 °C 46 % 93 % 1031,3 hPa 0,0 l/m² 0,1 km/h (0 Bft) W-NW 298 ° 0 min 0 W/m² -1,8 °C -0,8 °C 1,6 km/h (1 Bft)
12.01.2024 06:01 22,6 °C -0,8 °C 46 % 93 % 1031,3 hPa 0,0 l/m² 0,5 km/h (0 Bft) W-NW 298 ° 0 min 0 W/m² -1,8 °C -0,8 °C 3,2 km/h (1 Bft)
12.01.2024 06:02 22,6 °C -0,8 °C 46 % 94 % 1031,3 hPa 0,0 l/m² 0,1 km/h (0 Bft) W-NW 298 ° 0 min 0 W/m² -1,6 °C -0,8 °C 1,6 km/h (1 Bft)
12.01.2024 06:04 22,6 °C -0,8 °C 46 % 93 % 1031,3 hPa 0,0 l/m² 1,4 km/h (1 Bft) W-NW 298 ° 0 min 0 W/m² -1,8 °C -0,8 °C 3,2 km/h (1 Bft)
12.01.2024 06:06 22,6 °C -0,8 °C 46 % 94 % 1031,3 hPa 0,0 l/m² 1,5 km/h (1 Bft) W-NW 298 ° 0 min 0 W/m² -1,6 °C -0,8 °C 4,8 km/h (1 Bft)
12.01.2024 06:08 22,6 °C -0,8 °C 46 % 94 % 1031,3 hPa 0,0 l/m² 2,2 km/h (1 Bft) W-NW 298 ° 0 min 0 W/m² -1,6 °C -0,8 °C 3,2 km/h (1 Bft)
12.01.2024 06:10 22,6 °C -0,8 °C 46 % 93 % 1031,3 hPa 0,0 l/m² 2,6 km/h (1 Bft) W-NW 298 ° 0 min 0 W/m² -1,8 °C -0,8 °C 4,8 km/h (1 Bft)
12.01.2024 06:11 22,6 °C -0,8 °C 46 % 94 % 1031,3 hPa 0,0 l/m² 1,8 km/h (1 Bft) W-NW 298 ° 0 min 0 W/m² -1,6 °C -0,8 °C 3,2 km/h (1 Bft)
12.01.2024 06:13 22,6 °C -0,8 °C 46 % 93 % 1031,2 hPa 0,0 l/m² 1,2 km/h (1 Bft) W-NW 298 ° 0 min 0 W/m² -1,8 °C -0,8 °C 3,2 km/h (1 Bft)
12.01.2024 06:14 22,6 °C -0,8 °C 46 % 93 % 1031,3 hPa 0,0 l/m² 1,6 km/h (1 Bft) W-NW 298 ° 0 min 0 W/m² -1,8 °C -0,8 °C 3,2 km/h (1 Bft)
12.01.2024 06:16 22,6 °C -0,8 °C 46 % 93 % 1031,3 hPa 0,0 l/m² 0,3 km/h (0 Bft) W-NW 298 ° 0 min 0 W/m² -1,8 °C -0,8 °C 1,6 km/h (1 Bft)
12.01.2024 06:18 22,6 °C -0,8 °C 46 % 93 % 1031,4 hPa 0,0 l/m² 0,0 km/h (0 Bft) W-NW 298 ° 0 min 0 W/m² -1,8 °C -0,8 °C 1,6 km/h (1 Bft)
12.01.2024 06:20 22,6 °C -0,8 °C 46 % 93 % 1031,4 hPa 0,0 l/m² 1,6 km/h (1 Bft) W-NW 298 ° 0 min 0 W/m² -1,8 °C -0,8 °C 3,2 km/h (1 Bft)
12.01.2024 06:21 22,6 °C -0,8 °C 46 % 93 % 1031,4 hPa 0,0 l/m² 1,6 km/h (1 Bft) W-NW 298 ° 0 min 0 W/m² -1,8 °C -0,8 °C 3,2 km/h (1 Bft)
12.01.2024 06:23 22,6 °C -0,8 °C 46 % 93 % 1031,3 hPa 0,0 l/m² 0,1 km/h (0 Bft) W-NW 298 ° 0 min 0 W/m² -1,8 °C -0,8 °C 1,6 km/h (1 Bft)
12.01.2024 06:24 22,6 °C -0,8 °C 46 % 93 % 1031,4 hPa 0,0 l/m² 0,0 km/h (0 Bft) W-NW 298 ° 0 min 0 W/m² -1,8 °C -0,8 °C 0,0 km/h (0 Bft)
12.01.2024 06:25 22,6 °C -0,8 °C 46 % 93 % 1031,4 hPa 0,0 l/m² 0,0 km/h (0 Bft) W-NW 298 ° 0 min 0 W/m² -1,8 °C -0,8 °C 0,0 km/h (0 Bft)
12.01.2024 06:27 22,6 °C -0,8 °C 46 % 93 % 1031,3 hPa 0,0 l/m² 0,6 km/h (0 Bft) W-NW 298 ° 0 min 0 W/m² -1,8 °C -0,8 °C 3,2 km/h (1 Bft)
12.01.2024 06:29 22,6 °C -0,8 °C 46 % 93 % 1031,3 hPa 0,0 l/m² 2,5 km/h (1 Bft) W-NW 298 ° 0 min 0 W/m² -1,8 °C -0,8 °C 4,8 km/h (1 Bft)
12.01.2024 06:30 22,6 °C -0,8 °C 46 % 93 % 1031,3 hPa 0,0 l/m² 3,3 km/h (1 Bft) W-NW 298 ° 0 min 0 W/m² -1,8 °C -0,8 °C 4,8 km/h (1 Bft)
12.01.2024 06:32 22,6 °C -0,8 °C 46 % 93 % 1031,4 hPa 0,0 l/m² 3,9 km/h (1 Bft) W 276 ° 0 min 0 W/m² -1,8 °C -0,8 °C 6,4 km/h (2 Bft)
12.01.2024 06:34 22,6 °C -0,8 °C 46 % 93 % 1031,4 hPa 0,0 l/m² 4,0 km/h (1 Bft) W 271 ° 0 min 0 W/m² -1,8 °C -0,8 °C 4,8 km/h (1 Bft)
12.01.2024 06:36 22,6 °C -0,8 °C 46 % 93 % 1031,3 hPa 0,0 l/m² 2,7 km/h (1 Bft) W 272 ° 0 min 0 W/m² -1,8 °C -0,8 °C 4,8 km/h (1 Bft)
12.01.2024 06:38 22,6 °C -0,8 °C 46 % 94 % 1031,3 hPa 0,0 l/m² 1,6 km/h (1 Bft) W 272 ° 0 min 0 W/m² -1,6 °C -0,8 °C 6,4 km/h (2 Bft)
12.01.2024 06:40 22,6 °C -0,8 °C 46 % 93 % 1031,4 hPa 0,0 l/m² 1,8 km/h (1 Bft) W 272 ° 0 min 0 W/m² -1,8 °C -0,8 °C 4,8 km/h (1 Bft)
12.01.2024 06:41 22,6 °C -0,8 °C 46 % 93 % 1031,4 hPa 0,0 l/m² 2,8 km/h (1 Bft) W 272 ° 0 min 0 W/m² -1,8 °C -0,8 °C 4,8 km/h (1 Bft)
12.01.2024 06:43 22,6 °C -0,8 °C 46 % 93 % 1031,3 hPa 0,0 l/m² 1,1 km/h (1 Bft) W 272 ° 0 min 0 W/m² -1,8 °C -0,8 °C 3,2 km/h (1 Bft)
12.01.2024 06:45 22,6 °C -0,8 °C 46 % 94 % 1031,4 hPa 0,0 l/m² 5,0 km/h (1 Bft) W 272 ° 0 min 0 W/m² -1,6 °C -0,8 °C 9,7 km/h (2 Bft)
12.01.2024 06:47 22,6 °C -0,7 °C 46 % 94 % 1031,4 hPa 0,0 l/m² 4,2 km/h (1 Bft) W 275 ° 0 min 0 W/m² -1,5 °C -0,7 °C 6,4 km/h (2 Bft)
12.01.2024 06:49 22,6 °C -0,7 °C 46 % 94 % 1031,3 hPa 0,0 l/m² 3,6 km/h (1 Bft) W 271 ° 0 min 0 W/m² -1,5 °C -0,7 °C 6,4 km/h (2 Bft)
12.01.2024 06:50 22,6 °C -0,7 °C 46 % 94 % 1031,2 hPa 0,0 l/m² 1,9 km/h (1 Bft) W 271 ° 0 min 0 W/m² -1,5 °C -0,7 °C 3,2 km/h (1 Bft)
12.01.2024 06:52 22,6 °C -0,7 °C 45 % 94 % 1031,4 hPa 0,0 l/m² 2,6 km/h (1 Bft) W 271 ° 0 min 0 W/m² -1,5 °C -0,7 °C 4,8 km/h (1 Bft)
12.01.2024 06:54 22,6 °C -0,7 °C 45 % 94 % 1031,4 hPa 0,0 l/m² 2,0 km/h (1 Bft) W 271 ° 0 min 0 W/m² -1,5 °C -0,7 °C 4,8 km/h (1 Bft)
12.01.2024 06:56 22,6 °C -0,7 °C 45 % 94 % 1031,4 hPa 0,0 l/m² 2,1 km/h (1 Bft) W 272 ° 0 min 0 W/m² -1,5 °C -0,7 °C 6,4 km/h (2 Bft)
12.01.2024 06:58 22,7 °C -0,7 °C 45 % 94 % 1031,4 hPa 0,0 l/m² 2,0 km/h (1 Bft) W 272 ° 0 min 0 W/m² -1,5 °C -0,7 °C 4,8 km/h (1 Bft)
12.01.2024 07:00 22,6 °C -0,7 °C 45 % 94 % 1031,4 hPa 0,0 l/m² 1,6 km/h (1 Bft) W 272 ° 0 min 0 W/m² -1,5 °C -0,7 °C 3,2 km/h (1 Bft)
12.01.2024 07:01 22,7 °C -0,7 °C 45 % 94 % 1031,4 hPa 0,0 l/m² 0,0 km/h (0 Bft) W 272 ° 0 min 0 W/m² -1,5 °C -0,7 °C 0,0 km/h (0 Bft)
12.01.2024 07:03 22,7 °C -0,7 °C 45 % 94 % 1031,4 hPa 0,0 l/m² 1,0 km/h (0 Bft) W 272 ° 0 min 0 W/m² -1,5 °C -0,7 °C 4,8 km/h (1 Bft)
12.01.2024 07:04 22,7 °C -0,7 °C 45 % 94 % 1031,4 hPa 0,0 l/m² 1,5 km/h (1 Bft) W 272 ° 0 min 0 W/m² -1,5 °C -0,7 °C 3,2 km/h (1 Bft)
12.01.2024 07:06 22,7 °C -0,6 °C 45 % 94 % 1031,3 hPa 0,0 l/m² 0,8 km/h (0 Bft) W 272 ° 0 min 0 W/m² -1,4 °C -0,6 °C 3,2 km/h (1 Bft)
12.01.2024 07:08 22,6 °C -0,7 °C 45 % 94 % 1031,3 hPa 0,0 l/m² 0,1 km/h (0 Bft) W 272 ° 0 min 0 W/m² -1,5 °C -0,7 °C 1,6 km/h (1 Bft)
12.01.2024 07:10 22,6 °C -0,6 °C 45 % 94 % 1031,3 hPa 0,0 l/m² 1,1 km/h (1 Bft) W 272 ° 0 min 0 W/m² -1,4 °C -0,6 °C 3,2 km/h (1 Bft)
12.01.2024 07:11 22,6 °C -0,6 °C 45 % 94 % 1031,3 hPa 0,0 l/m² 2,2 km/h (1 Bft) W 272 ° 0 min 0 W/m² -1,4 °C -0,6 °C 3,2 km/h (1 Bft)
12.01.2024 07:13 22,6 °C -0,7 °C 45 % 94 % 1031,3 hPa 0,0 l/m² 1,3 km/h (1 Bft) W 272 ° 0 min 0 W/m² -1,5 °C -0,7 °C 4,8 km/h (1 Bft)
12.01.2024 07:15 22,6 °C -0,7 °C 45 % 94 % 1031,3 hPa 0,0 l/m² 1,3 km/h (1 Bft) W 272 ° 0 min 0 W/m² -1,5 °C -0,7 °C 3,2 km/h (1 Bft)
12.01.2024 07:17 22,6 °C -0,7 °C 45 % 94 % 1031,2 hPa 0,0 l/m² 1,5 km/h (1 Bft) W 272 ° 0 min 0 W/m² -1,5 °C -0,7 °C 3,2 km/h (1 Bft)
12.01.2024 07:19 22,6 °C -0,7 °C 45 % 94 % 1031,3 hPa 0,0 l/m² 1,2 km/h (1 Bft) W 272 ° 0 min 0 W/m² -1,5 °C -0,7 °C 3,2 km/h (1 Bft)
12.01.2024 07:20 22,6 °C -0,6 °C 45 % 94 % 1031,3 hPa 0,0 l/m² 0,0 km/h (0 Bft) W 272 ° 0 min 0 W/m² -1,4 °C -0,6 °C 0,0 km/h (0 Bft)
12.01.2024 07:22 22,6 °C -0,7 °C 45 % 94 % 1031,3 hPa 0,0 l/m² 0,5 km/h (0 Bft) W 272 ° 0 min 0 W/m² -1,5 °C -0,7 °C 1,6 km/h (1 Bft)
12.01.2024 07:23 22,6 °C -0,6 °C 45 % 94 % 1031,3 hPa 0,0 l/m² 0,0 km/h (0 Bft) W 272 ° 0 min 0 W/m² -1,4 °C -0,6 °C 0,0 km/h (0 Bft)
12.01.2024 07:25 22,6 °C -0,6 °C 45 % 94 % 1031,3 hPa 0,0 l/m² 1,0 km/h (0 Bft) W 272 ° 0 min 0 W/m² -1,4 °C -0,6 °C 3,2 km/h (1 Bft)
12.01.2024 07:27 22,6 °C -0,6 °C 45 % 94 % 1031,3 hPa 0,0 l/m² 0,5 km/h (0 Bft) W 272 ° 0 min 0 W/m² -1,4 °C -0,6 °C 1,6 km/h (1 Bft)
12.01.2024 07:29 22,6 °C -0,6 °C 45 % 94 % 1031,3 hPa 0,0 l/m² 0,9 km/h (0 Bft) W 272 ° 0 min 0 W/m² -1,4 °C -0,6 °C 3,2 km/h (1 Bft)
12.01.2024 07:30 22,6 °C -0,6 °C 45 % 94 % 1031,3 hPa 0,0 l/m² 0,1 km/h (0 Bft) W 272 ° 0 min 0 W/m² -1,4 °C -0,6 °C 1,6 km/h (1 Bft)
12.01.2024 07:32 22,6 °C -0,7 °C 45 % 94 % 1031,3 hPa 0,0 l/m² 0,4 km/h (0 Bft) W 272 ° 0 min 0 W/m² -1,5 °C -0,7 °C 1,6 km/h (1 Bft)
12.01.2024 07:33 22,6 °C -0,6 °C 45 % 94 % 1031,3 hPa 0,0 l/m² 0,1 km/h (0 Bft) W 272 ° 0 min 0 W/m² -1,4 °C -0,6 °C 1,6 km/h (1 Bft)
12.01.2024 07:35 22,6 °C -0,6 °C 45 % 94 % 1031,3 hPa 0,0 l/m² 0,0 km/h (0 Bft) W 272 ° 0 min 0 W/m² -1,4 °C -0,6 °C 0,0 km/h (0 Bft)
12.01.2024 07:37 22,6 °C -0,6 °C 45 % 94 % 1031,4 hPa 0,0 l/m² 0,0 km/h (0 Bft) W 272 ° 0 min 0 W/m² -1,4 °C -0,6 °C 0,0 km/h (0 Bft)
12.01.2024 07:39 22,6 °C -0,6 °C 45 % 94 % 1031,3 hPa 0,0 l/m² 0,0 km/h (0 Bft) W 272 ° 0 min 0 W/m² -1,4 °C -0,6 °C 0,0 km/h (0 Bft)
12.01.2024 07:40 22,6 °C -0,6 °C 45 % 94 % 1031,3 hPa 0,0 l/m² 0,0 km/h (0 Bft) W 272 ° 0 min 0 W/m² -1,4 °C -0,6 °C 0,0 km/h (0 Bft)
12.01.2024 07:42 22,6 °C -0,6 °C 45 % 94 % 1031,3 hPa 0,0 l/m² 0,0 km/h (0 Bft) W 272 ° 0 min 0 W/m² -1,4 °C -0,6 °C 0,0 km/h (0 Bft)
12.01.2024 07:44 22,6 °C -0,6 °C 45 % 94 % 1031,3 hPa 0,0 l/m² 0,0 km/h (0 Bft) W 272 ° 0 min 0 W/m² -1,4 °C -0,6 °C 0,0 km/h (0 Bft)
12.01.2024 07:46 22,6 °C -0,6 °C 45 % 94 % 1031,3 hPa 0,0 l/m² 0,0 km/h (0 Bft) W 272 ° 0 min 0 W/m² -1,4 °C -0,6 °C 0,0 km/h (0 Bft)
12.01.2024 07:48 22,6 °C -0,6 °C 45 % 94 % 1031,4 hPa 0,0 l/m² 0,0 km/h (0 Bft) W 272 ° 0 min 0 W/m² -1,4 °C -0,6 °C 0,0 km/h (0 Bft)
12.01.2024 07:50 22,6 °C -0,6 °C 45 % 94 % 1031,4 hPa 0,0 l/m² 0,0 km/h (0 Bft) W 272 ° 0 min 0 W/m² -1,4 °C -0,6 °C 0,0 km/h (0 Bft)
12.01.2024 07:51 22,6 °C -0,6 °C 45 % 94 % 1031,3 hPa 0,0 l/m² 0,0 km/h (0 Bft) W 272 ° 0 min 0 W/m² -1,4 °C -0,6 °C 0,0 km/h (0 Bft)
12.01.2024 07:53 22,6 °C -0,6 °C 45 % 94 % 1031,3 hPa 0,0 l/m² 0,0 km/h (0 Bft) W 272 ° 0 min 0 W/m² -1,4 °C -0,6 °C 0,0 km/h (0 Bft)
12.01.2024 07:54 22,6 °C -0,6 °C 45 % 94 % 1031,3 hPa 0,0 l/m² 0,0 km/h (0 Bft) W 272 ° 0 min 0 W/m² -1,4 °C -0,6 °C 0,0 km/h (0 Bft)
12.01.2024 07:56 22,6 °C -0,6 °C 45 % 94 % 1031,3 hPa 0,0 l/m² 0,0 km/h (0 Bft) W 272 ° 0 min 0 W/m² -1,4 °C -0,6 °C 0,0 km/h (0 Bft)
12.01.2024 07:58 22,6 °C -0,6 °C 45 % 94 % 1031,3 hPa 0,0 l/m² 0,0 km/h (0 Bft) W 272 ° 0 min 0 W/m² -1,4 °C -0,6 °C 0,0 km/h (0 Bft)
12.01.2024 08:00 22,6 °C -0,6 °C 45 % 94 % 1031,2 hPa 0,0 l/m² 0,0 km/h (0 Bft) W 272 ° 0 min 0 W/m² -1,4 °C -0,6 °C 0,0 km/h (0 Bft)
12.01.2024 08:01 22,6 °C -0,6 °C 45 % 94 % 1031,3 hPa 0,0 l/m² 0,0 km/h (0 Bft) W 272 ° 0 min 0 W/m² -1,4 °C -0,6 °C 0,0 km/h (0 Bft)
12.01.2024 08:03 22,6 °C -0,6 °C 45 % 94 % 1031,3 hPa 0,0 l/m² 0,0 km/h (0 Bft) W 272 ° 0 min 0 W/m² -1,4 °C -0,6 °C 0,0 km/h (0 Bft)
12.01.2024 08:05 22,6 °C -0,6 °C 45 % 94 % 1031,3 hPa 0,0 l/m² 0,0 km/h (0 Bft) W 272 ° 0 min 0 W/m² -1,4 °C -0,6 °C 0,0 km/h (0 Bft)
12.01.2024 08:07 22,6 °C -0,6 °C 45 % 94 % 1031,3 hPa 0,0 l/m² 0,0 km/h (0 Bft) W 272 ° 0 min 0 W/m² -1,4 °C -0,6 °C 0,0 km/h (0 Bft)
12.01.2024 08:09 22,6 °C -0,6 °C 45 % 94 % 1031,3 hPa 0,0 l/m² 0,0 km/h (0 Bft) W 272 ° 0 min 0 W/m² -1,4 °C -0,6 °C 0,0 km/h (0 Bft)
12.01.2024 08:10 22,6 °C -0,6 °C 45 % 94 % 1031,3 hPa 0,0 l/m² 0,0 km/h (0 Bft) W 272 ° 0 min 0 W/m² -1,4 °C -0,6 °C 0,0 km/h (0 Bft)
12.01.2024 08:12 22,6 °C -0,6 °C 45 % 94 % 1031,3 hPa 0,0 l/m² 0,0 km/h (0 Bft) W 272 ° 0 min 0 W/m² -1,4 °C -0,6 °C 0,0 km/h (0 Bft)
12.01.2024 08:13 22,6 °C -0,6 °C 45 % 94 % 1031,3 hPa 0,0 l/m² 0,0 km/h (0 Bft) W 272 ° 0 min 0 W/m² -1,4 °C -0,6 °C 0,0 km/h (0 Bft)
12.01.2024 08:14 22,6 °C -0,6 °C 45 % 94 % 1031,3 hPa 0,0 l/m² 0,0 km/h (0 Bft) W 272 ° 0 min 0 W/m² -1,4 °C -0,6 °C 0,0 km/h (0 Bft)
12.01.2024 08:16 22,6 °C -0,5 °C 45 % 94 % 1031,3 hPa 0,0 l/m² 0,0 km/h (0 Bft) W 272 ° 0 min 0 W/m² -1,3 °C -0,5 °C 0,0 km/h (0 Bft)
12.01.2024 08:18 22,6 °C -0,5 °C 45 % 94 % 1031,2 hPa 0,0 l/m² 0,0 km/h (0 Bft) W 272 ° 0 min 0 W/m² -1,3 °C -0,5 °C 0,0 km/h (0 Bft)
12.01.2024 08:20 22,6 °C -0,6 °C 45 % 94 % 1031,1 hPa 0,0 l/m² 0,0 km/h (0 Bft) W 272 ° 0 min 0 W/m² -1,4 °C -0,6 °C 0,0 km/h (0 Bft)
12.01.2024 08:21 22,6 °C -0,5 °C 45 % 94 % 1031,1 hPa 0,0 l/m² 0,0 km/h (0 Bft) W 272 ° 0 min 0 W/m² -1,3 °C -0,5 °C 0,0 km/h (0 Bft)
12.01.2024 08:23 22,6 °C -0,5 °C 45 % 94 % 1031,2 hPa 0,0 l/m² 0,0 km/h (0 Bft) W 272 ° 0 min 0 W/m² -1,3 °C -0,5 °C 0,0 km/h (0 Bft)
12.01.2024 08:25 22,6 °C -0,5 °C 45 % 94 % 1031,2 hPa 0,0 l/m² 0,0 km/h (0 Bft) W 272 ° 0 min 0 W/m² -1,3 °C -0,5 °C 0,0 km/h (0 Bft)
12.01.2024 08:27 22,6 °C -0,5 °C 45 % 94 % 1031,2 hPa 0,0 l/m² 0,0 km/h (0 Bft) W 272 ° 0 min 0 W/m² -1,3 °C -0,5 °C 0,0 km/h (0 Bft)
12.01.2024 08:29 22,6 °C -0,5 °C 45 % 94 % 1031,2 hPa 0,0 l/m² 0,0 km/h (0 Bft) W 272 ° 0 min 0 W/m² -1,3 °C -0,5 °C 0,0 km/h (0 Bft)
12.01.2024 08:30 22,6 °C -0,4 °C 45 % 94 % 1031,2 hPa 0,0 l/m² 0,0 km/h (0 Bft) W 272 ° 0 min 0 W/m² -1,2 °C -0,4 °C 0,0 km/h (0 Bft)
12.01.2024 08:32 22,6 °C -0,4 °C 45 % 94 % 1031,2 hPa 0,0 l/m² 0,0 km/h (0 Bft) W 272 ° 0 min 0 W/m² -1,2 °C -0,4 °C 0,0 km/h (0 Bft)
12.01.2024 08:33 22,6 °C -0,4 °C 45 % 94 % 1031,2 hPa 0,0 l/m² 0,0 km/h (0 Bft) W 272 ° 0 min 0 W/m² -1,2 °C -0,4 °C 0,0 km/h (0 Bft)
12.01.2024 08:34 22,6 °C -0,4 °C 45 % 94 % 1031,2 hPa 0,0 l/m² 0,0 km/h (0 Bft) W 272 ° 0 min 0 W/m² -1,2 °C -0,4 °C 0,0 km/h (0 Bft)
12.01.2024 08:36 22,6 °C -0,4 °C 45 % 94 % 1031,2 hPa 0,0 l/m² 0,0 km/h (0 Bft) W 272 ° 0 min 0 W/m² -1,2 °C -0,4 °C 0,0 km/h (0 Bft)
12.01.2024 08:38 22,6 °C -0,4 °C 45 % 94 % 1031,3 hPa 0,0 l/m² 0,0 km/h (0 Bft) W 272 ° 0 min 0 W/m² -1,2 °C -0,4 °C 0,0 km/h (0 Bft)
12.01.2024 08:40 22,6 °C -0,4 °C 45 % 94 % 1031,3 hPa 0,0 l/m² 0,0 km/h (0 Bft) W 272 ° 0 min 0 W/m² -1,2 °C -0,4 °C 0,0 km/h (0 Bft)
12.01.2024 08:41 22,6 °C -0,4 °C 45 % 94 % 1031,3 hPa 0,0 l/m² 0,0 km/h (0 Bft) W 272 ° 0 min 0 W/m² -1,2 °C -0,4 °C 0,0 km/h (0 Bft)
12.01.2024 08:43 22,6 °C -0,4 °C 45 % 94 % 1031,3 hPa 0,0 l/m² 0,0 km/h (0 Bft) W 272 ° 0 min 0 W/m² -1,2 °C -0,4 °C 0,0 km/h (0 Bft)
12.01.2024 08:44 22,6 °C -0,3 °C 45 % 94 % 1031,2 hPa 0,0 l/m² 0,0 km/h (0 Bft) W 272 ° 0 min 0 W/m² -1,1 °C -0,3 °C 0,0 km/h (0 Bft)
12.01.2024 08:45 22,6 °C -0,4 °C 45 % 94 % 1031,2 hPa 0,0 l/m² 0,0 km/h (0 Bft) W 272 ° 0 min 0 W/m² -1,2 °C -0,4 °C 0,0 km/h (0 Bft)
12.01.2024 08:47 22,6 °C -0,4 °C 45 % 94 % 1031,3 hPa 0,0 l/m² 0,0 km/h (0 Bft) W 272 ° 0 min 0 W/m² -1,2 °C -0,4 °C 0,0 km/h (0 Bft)
12.01.2024 08:49 22,6 °C -0,4 °C 45 % 94 % 1031,3 hPa 0,0 l/m² 0,0 km/h (0 Bft) W 272 ° 0 min 5 W/m² -1,2 °C -0,4 °C 0,0 km/h (0 Bft)
12.01.2024 08:51 22,6 °C -0,4 °C 45 % 94 % 1031,2 hPa 0,0 l/m² 0,0 km/h (0 Bft) W 272 ° 0 min 5 W/m² -1,2 °C -0,4 °C 0,0 km/h (0 Bft)
12.01.2024 08:52 22,6 °C -0,3 °C 45 % 94 % 1031,3 hPa 0,0 l/m² 0,0 km/h (0 Bft) W 272 ° 0 min 5 W/m² -1,1 °C -0,3 °C 0,0 km/h (0 Bft)
12.01.2024 08:53 22,6 °C -0,3 °C 45 % 94 % 1031,3 hPa 0,0 l/m² 0,0 km/h (0 Bft) W 272 ° 0 min 5 W/m² -1,1 °C -0,3 °C 0,0 km/h (0 Bft)
12.01.2024 08:54 22,6 °C -0,3 °C 45 % 94 % 1031,3 hPa 0,0 l/m² 0,0 km/h (0 Bft) W 272 ° 0 min 7 W/m² -1,1 °C -0,3 °C 0,0 km/h (0 Bft)
12.01.2024 08:55 22,6 °C -0,4 °C 45 % 94 % 1031,3 hPa 0,0 l/m² 0,0 km/h (0 Bft) W 272 ° 0 min 7 W/m² -1,2 °C -0,4 °C 0,0 km/h (0 Bft)
12.01.2024 08:57 22,6 °C -0,3 °C 45 % 94 % 1031,3 hPa 0,0 l/m² 0,0 km/h (0 Bft) W 272 ° 0 min 7 W/m² -1,1 °C -0,3 °C 1,6 km/h (1 Bft)
12.01.2024 08:59 22,6 °C -0,3 °C 45 % 94 % 1031,3 hPa 0,0 l/m² 2,2 km/h (1 Bft) W 272 ° 0 min 7 W/m² -1,1 °C -0,3 °C 3,2 km/h (1 Bft)
12.01.2024 09:01 22,6 °C -0,3 °C 45 % 94 % 1031,3 hPa 0,0 l/m² 1,7 km/h (1 Bft) W 272 ° 0 min 7 W/m² -1,1 °C -0,3 °C 3,2 km/h (1 Bft)
12.01.2024 09:02 22,6 °C -0,3 °C 45 % 94 % 1031,3 hPa 0,0 l/m² 0,6 km/h (0 Bft) W 272 ° 0 min 7 W/m² -1,1 °C -0,3 °C 1,6 km/h (1 Bft)
12.01.2024 09:03 22,6 °C -0,3 °C 45 % 94 % 1031,3 hPa 0,0 l/m² 0,4 km/h (0 Bft) W 272 ° 0 min 7 W/m² -1,1 °C -0,3 °C 1,6 km/h (1 Bft)
12.01.2024 09:06 22,7 °C -0,3 °C 45 % 94 % 1031,2 hPa 0,0 l/m² 0,4 km/h (0 Bft) W 272 ° 0 min 7 W/m² -1,1 °C -0,3 °C 1,6 km/h (1 Bft)
12.01.2024 09:08 22,6 °C -0,3 °C 45 % 94 % 1031,3 hPa 0,0 l/m² 0,5 km/h (0 Bft) W 272 ° 0 min 7 W/m² -1,1 °C -0,3 °C 3,2 km/h (1 Bft)
12.01.2024 09:10 22,6 °C -0,2 °C 45 % 94 % 1031,2 hPa 0,0 l/m² 0,4 km/h (0 Bft) W 272 ° 0 min 7 W/m² -1,0 °C -0,2 °C 1,6 km/h (1 Bft)
12.01.2024 09:11 22,7 °C -0,2 °C 45 % 94 % 1031,3 hPa 0,0 l/m² 0,7 km/h (0 Bft) W 272 ° 0 min 9 W/m² -1,0 °C -0,2 °C 3,2 km/h (1 Bft)
12.01.2024 09:13 22,7 °C -0,1 °C 45 % 94 % 1031,3 hPa 0,0 l/m² 3,5 km/h (1 Bft) W 274 ° 0 min 9 W/m² -0,9 °C -0,1 °C 6,4 km/h (2 Bft)
12.01.2024 09:15 22,7 °C -0,1 °C 45 % 95 % 1031,3 hPa 0,0 l/m² 5,3 km/h (1 Bft) W 269 ° 0 min 7 W/m² -0,8 °C -0,1 °C 11,3 km/h (2 Bft)
12.01.2024 09:17 22,7 °C -0,1 °C 45 % 95 % 1031,2 hPa 0,0 l/m² 7,1 km/h (2 Bft) W 279 ° 0 min 9 W/m² -0,8 °C -0,8 °C 11,3 km/h (2 Bft)
12.01.2024 09:19 22,6 °C 0,1 °C 45 % 95 % 1031,3 hPa 0,0 l/m² 2,7 km/h (1 Bft) W 261 ° 0 min 9 W/m² -0,6 °C 0,1 °C 4,8 km/h (1 Bft)
12.01.2024 09:21 22,7 °C 0,1 °C 45 % 95 % 1031,3 hPa 0,0 l/m² 5,5 km/h (2 Bft) W 269 ° 0 min 9 W/m² -0,6 °C 0,1 °C 9,7 km/h (2 Bft)
12.01.2024 09:22 22,7 °C 0,1 °C 45 % 94 % 1031,3 hPa 0,0 l/m² 4,9 km/h (1 Bft) W 271 ° 0 min 9 W/m² -0,7 °C 0,1 °C 9,7 km/h (2 Bft)
12.01.2024 09:23 22,7 °C 0,1 °C 45 % 94 % 1031,3 hPa 0,0 l/m² 4,8 km/h (1 Bft) W 272 ° 0 min 11 W/m² -0,7 °C 0,1 °C 6,4 km/h (2 Bft)
12.01.2024 09:25 22,7 °C 0,1 °C 45 % 94 % 1031,1 hPa 0,0 l/m² 5,5 km/h (2 Bft) W 271 ° 0 min 11 W/m² -0,7 °C 0,1 °C 9,7 km/h (2 Bft)
12.01.2024 09:27 22,7 °C 0,1 °C 45 % 94 % 1031,2 hPa 0,0 l/m² 3,1 km/h (1 Bft) W 276 ° 0 min 11 W/m² -0,7 °C 0,1 °C 6,4 km/h (2 Bft)
12.01.2024 09:29 22,7 °C 0,1 °C 45 % 94 % 1031,2 hPa 0,0 l/m² 1,5 km/h (1 Bft) W 276 ° 0 min 12 W/m² -0,7 °C 0,1 °C 3,2 km/h (1 Bft)
12.01.2024 09:31 22,7 °C 0,1 °C 45 % 94 % 1031,1 hPa 0,0 l/m² 4,7 km/h (1 Bft) W 277 ° 0 min 12 W/m² -0,7 °C 0,1 °C 9,7 km/h (2 Bft)
12.01.2024 09:32 22,7 °C 0,1 °C 45 % 94 % 1031,0 hPa 0,0 l/m² 7,5 km/h (2 Bft) W 273 ° 0 min 12 W/m² -0,7 °C -1,0 °C 11,3 km/h (2 Bft)
12.01.2024 09:33 22,7 °C 0,2 °C 45 % 94 % 1031,0 hPa 0,0 l/m² 5,5 km/h (2 Bft) W 272 ° 0 min 12 W/m² -0,6 °C 0,2 °C 9,7 km/h (2 Bft)
12.01.2024 09:36 22,7 °C 0,2 °C 45 % 94 % 1031,0 hPa 0,0 l/m² 4,9 km/h (1 Bft) W 272 ° 0 min 12 W/m² -0,6 °C 0,2 °C 9,7 km/h (2 Bft)
12.01.2024 09:38 22,7 °C 0,2 °C 45 % 94 % 1031,0 hPa 0,0 l/m² 3,2 km/h (1 Bft) W 275 ° 0 min 12 W/m² -0,6 °C 0,2 °C 6,4 km/h (2 Bft)
12.01.2024 09:40 22,7 °C 0,2 °C 45 % 94 % 1031,1 hPa 0,0 l/m² 3,9 km/h (1 Bft) W 271 ° 0 min 12 W/m² -0,6 °C 0,2 °C 6,4 km/h (2 Bft)
12.01.2024 09:41 22,7 °C 0,2 °C 45 % 94 % 1031,0 hPa 0,0 l/m² 2,6 km/h (1 Bft) W 269 ° 0 min 12 W/m² -0,6 °C 0,2 °C 6,4 km/h (2 Bft)
12.01.2024 09:43 22,7 °C 0,2 °C 45 % 94 % 1031,1 hPa 0,0 l/m² 3,0 km/h (1 Bft) W 269 ° 0 min 12 W/m² -0,6 °C 0,2 °C 4,8 km/h (1 Bft)
12.01.2024 09:45 22,7 °C 0,2 °C 45 % 94 % 1031,1 hPa 0,0 l/m² 4,0 km/h (1 Bft) W 271 ° 0 min 12 W/m² -0,6 °C 0,2 °C 6,4 km/h (2 Bft)
12.01.2024 09:46 22,7 °C 0,2 °C 45 % 94 % 1031,1 hPa 0,0 l/m² 4,5 km/h (1 Bft) W 270 ° 0 min 12 W/m² -0,6 °C 0,2 °C 4,8 km/h (1 Bft)
12.01.2024 09:47 22,7 °C 0,2 °C 45 % 94 % 1031,1 hPa 0,0 l/m² 4,6 km/h (1 Bft) W 270 ° 0 min 14 W/m² -0,6 °C 0,2 °C 6,4 km/h (2 Bft)
12.01.2024 09:49 22,7 °C 0,2 °C 45 % 94 % 1030,9 hPa 0,0 l/m² 4,9 km/h (1 Bft) W 272 ° 0 min 16 W/m² -0,6 °C 0,2 °C 6,4 km/h (2 Bft)
12.01.2024 09:51 22,7 °C 0,2 °C 45 % 94 % 1031,0 hPa 0,0 l/m² 7,1 km/h (2 Bft) W 268 ° 0 min 14 W/m² -0,6 °C -0,5 °C 12,9 km/h (3 Bft)
12.01.2024 09:52 22,7 °C 0,2 °C 45 % 94 % 1031,1 hPa 0,0 l/m² 5,6 km/h (2 Bft) W 267 ° 0 min 14 W/m² -0,6 °C 0,2 °C 11,3 km/h (2 Bft)
12.01.2024 09:53 22,7 °C 0,2 °C 45 % 94 % 1031,0 hPa 0,0 l/m² 5,2 km/h (1 Bft) W 271 ° 0 min 14 W/m² -0,6 °C 0,2 °C 9,7 km/h (2 Bft)
12.01.2024 09:56 22,7 °C 0,2 °C 45 % 94 % 1031,0 hPa 0,0 l/m² 7,5 km/h (2 Bft) W 273 ° 0 min 19 W/m² -0,6 °C -0,9 °C 12,9 km/h (3 Bft)
12.01.2024 09:58 22,7 °C 0,2 °C 45 % 94 % 1031,0 hPa 0,0 l/m² 7,3 km/h (2 Bft) W 262 ° 0 min 19 W/m² -0,6 °C -0,7 °C 12,9 km/h (3 Bft)
12.01.2024 10:00 22,7 °C 0,3 °C 45 % 94 % 1031,0 hPa 0,0 l/m² 5,8 km/h (2 Bft) W 273 ° 0 min 21 W/m² -0,5 °C 0,3 °C 12,9 km/h (3 Bft)
12.01.2024 10:01 22,7 °C 0,3 °C 45 % 94 % 1030,9 hPa 0,0 l/m² 6,1 km/h (2 Bft) W 267 ° 0 min 21 W/m² -0,5 °C 0,3 °C 9,7 km/h (2 Bft)
12.01.2024 10:03 22,7 °C 0,3 °C 45 % 94 % 1030,9 hPa 0,0 l/m² 5,0 km/h (1 Bft) W 264 ° 0 min 21 W/m² -0,5 °C 0,3 °C 9,7 km/h (2 Bft)
12.01.2024 10:05 22,7 °C 0,3 °C 45 % 94 % 1030,9 hPa 0,0 l/m² 6,2 km/h (2 Bft) W 273 ° 0 min 21 W/m² -0,5 °C 0,3 °C 11,3 km/h (2 Bft)
12.01.2024 10:07 22,7 °C 0,3 °C 45 % 94 % 1030,9 hPa 0,0 l/m² 7,0 km/h (2 Bft) W-SW 257 ° 0 min 21 W/m² -0,5 °C -0,3 °C 11,3 km/h (2 Bft)
12.01.2024 10:09 22,7 °C 0,3 °C 45 % 94 % 1030,8 hPa 0,0 l/m² 5,6 km/h (2 Bft) W-SW 251 ° 0 min 23 W/m² -0,5 °C 0,3 °C 8,0 km/h (2 Bft)
12.01.2024 10:11 22,7 °C 0,3 °C 45 % 94 % 1030,9 hPa 0,0 l/m² 5,4 km/h (2 Bft) W-SW 257 ° 0 min 25 W/m² -0,5 °C 0,3 °C 8,0 km/h (2 Bft)
12.01.2024 10:12 22,7 °C 0,3 °C 45 % 94 % 1030,9 hPa 0,0 l/m² 4,0 km/h (1 Bft) W-SW 254 ° 0 min 25 W/m² -0,5 °C 0,3 °C 6,4 km/h (2 Bft)
12.01.2024 10:13 22,7 °C 0,3 °C 45 % 94 % 1030,9 hPa 0,0 l/m² 2,8 km/h (1 Bft) W-SW 254 ° 0 min 25 W/m² -0,5 °C 0,3 °C 3,2 km/h (1 Bft)
12.01.2024 10:16 22,7 °C 0,3 °C 45 % 94 % 1030,9 hPa 0,0 l/m² 3,1 km/h (1 Bft) SW 216 ° 0 min 25 W/m² -0,5 °C 0,3 °C 6,4 km/h (2 Bft)
12.01.2024 10:18 22,7 °C 0,3 °C 45 % 94 % 1030,8 hPa 0,0 l/m² 4,3 km/h (1 Bft) SW 224 ° 0 min 26 W/m² -0,5 °C 0,3 °C 6,4 km/h (2 Bft)
12.01.2024 10:20 22,7 °C 0,2 °C 45 % 94 % 1030,7 hPa 0,0 l/m² 5,4 km/h (2 Bft) SW 229 ° 0 min 30 W/m² -0,6 °C 0,2 °C 8,0 km/h (2 Bft)
12.01.2024 10:21 22,7 °C 0,2 °C 45 % 94 % 1030,8 hPa 0,0 l/m² 3,5 km/h (1 Bft) SW 217 ° 0 min 32 W/m² -0,6 °C 0,2 °C 6,4 km/h (2 Bft)
12.01.2024 10:23 22,7 °C 0,2 °C 45 % 94 % 1030,8 hPa 0,0 l/m² 7,9 km/h (2 Bft) W-SW 240 ° 0 min 32 W/m² -0,6 °C -1,3 °C 11,3 km/h (2 Bft)
12.01.2024 10:26 22,7 °C 0,2 °C 45 % 94 % 1030,8 hPa 0,0 l/m² 6,7 km/h (2 Bft) SW 221 ° 0 min 30 W/m² -0,6 °C -0,1 °C 11,3 km/h (2 Bft)
12.01.2024 10:28 22,7 °C 0,2 °C 45 % 94 % 1030,8 hPa 0,0 l/m² 7,7 km/h (2 Bft) S-SW 207 ° 0 min 28 W/m² -0,6 °C -1,1 °C 9,7 km/h (2 Bft)
12.01.2024 10:30 22,7 °C 0,2 °C 45 % 94 % 1030,8 hPa 0,0 l/m² 9,5 km/h (2 Bft) S-SW 199 ° 0 min 28 W/m² -0,6 °C -2,8 °C 11,3 km/h (2 Bft)
12.01.2024 10:31 22,7 °C 0,1 °C 45 % 94 % 1030,9 hPa 0,0 l/m² 8,5 km/h (2 Bft) S-SW 210 ° 0 min 28 W/m² -0,7 °C -2,0 °C 9,7 km/h (2 Bft)
12.01.2024 10:33 22,7 °C 0,1 °C 45 % 94 % 1030,9 hPa 0,0 l/m² 6,9 km/h (2 Bft) S-SW 210 ° 0 min 32 W/m² -0,7 °C -0,4 °C 9,7 km/h (2 Bft)
12.01.2024 10:35 22,7 °C 0,1 °C 45 % 94 % 1030,8 hPa 0,0 l/m² 5,9 km/h (2 Bft) S-SW 210 ° 0 min 32 W/m² -0,7 °C 0,1 °C 8,0 km/h (2 Bft)
12.01.2024 10:37 22,7 °C 0,1 °C 45 % 94 % 1030,8 hPa 0,0 l/m² 6,7 km/h (2 Bft) S-SW 212 ° 0 min 32 W/m² -0,7 °C -0,2 °C 9,7 km/h (2 Bft)
12.01.2024 10:39 22,7 °C 0,1 °C 45 % 94 % 1030,8 hPa 0,0 l/m² 6,7 km/h (2 Bft) SW 223 ° 0 min 30 W/m² -0,7 °C -0,2 °C 9,7 km/h (2 Bft)
12.01.2024 10:41 22,7 °C 0,1 °C 45 % 94 % 1030,8 hPa 0,0 l/m² 5,3 km/h (1 Bft) SW 216 ° 0 min 26 W/m² -0,7 °C 0,1 °C 9,7 km/h (2 Bft)
12.01.2024 10:42 22,7 °C 0,1 °C 45 % 94 % 1030,9 hPa 0,0 l/m² 7,4 km/h (2 Bft) S-SW 213 ° 0 min 26 W/m² -0,7 °C -0,9 °C 9,7 km/h (2 Bft)
12.01.2024 10:43 22,7 °C 0,1 °C 45 % 94 % 1030,9 hPa 0,0 l/m² 8,9 km/h (2 Bft) S-SW 211 ° 0 min 28 W/m² -0,7 °C -2,4 °C 9,7 km/h (2 Bft)
12.01.2024 10:46 22,7 °C 0,1 °C 45 % 94 % 1030,9 hPa 0,0 l/m² 7,6 km/h (2 Bft) SW 215 ° 0 min 30 W/m² -0,7 °C -1,1 °C 9,7 km/h (2 Bft)
12.01.2024 10:48 22,6 °C 0,1 °C 45 % 94 % 1030,8 hPa 0,0 l/m² 8,2 km/h (2 Bft) SW 219 ° 0 min 32 W/m² -0,7 °C -1,7 °C 11,3 km/h (2 Bft)
12.01.2024 10:50 22,7 °C 0,0 °C 45 % 94 % 1030,8 hPa 0,0 l/m² 8,1 km/h (2 Bft) SW 215 ° 0 min 32 W/m² -0,8 °C -1,7 °C 12,9 km/h (3 Bft)
12.01.2024 10:51 22,6 °C 0,1 °C 45 % 94 % 1030,8 hPa 0,0 l/m² 8,8 km/h (2 Bft) SW 219 ° 0 min 33 W/m² -0,7 °C -2,3 °C 11,3 km/h (2 Bft)
12.01.2024 10:53 22,7 °C 0,1 °C 45 % 94 % 1030,8 hPa 0,0 l/m² 9,1 km/h (2 Bft) SW 214 ° 0 min 35 W/m² -0,7 °C -2,6 °C 11,3 km/h (2 Bft)
12.01.2024 10:55 22,6 °C 0,1 °C 45 % 94 % 1030,8 hPa 0,0 l/m² 9,1 km/h (2 Bft) SW 229 ° 0 min 37 W/m² -0,7 °C -2,6 °C 12,9 km/h (3 Bft)
12.01.2024 10:57 22,7 °C 0,1 °C 45 % 94 % 1030,8 hPa 0,0 l/m² 7,0 km/h (2 Bft) SW 226 ° 0 min 35 W/m² -0,7 °C -0,5 °C 9,7 km/h (2 Bft)
12.01.2024 10:59 22,7 °C 0,1 °C 45 % 94 % 1030,7 hPa 0,0 l/m² 7,1 km/h (2 Bft) SW 226 ° 0 min 37 W/m² -0,7 °C -0,6 °C 9,7 km/h (2 Bft)
12.01.2024 11:01 22,7 °C 0,1 °C 45 % 94 % 1030,7 hPa 0,0 l/m² 8,7 km/h (2 Bft) SW 220 ° 0 min 37 W/m² -0,7 °C -2,2 °C 12,9 km/h (3 Bft)
12.01.2024 11:02 22,6 °C 0,1 °C 45 % 94 % 1030,8 hPa 0,0 l/m² 10,5 km/h (2 Bft) SW 216 ° 0 min 35 W/m² -0,7 °C -3,7 °C 12,9 km/h (3 Bft)
12.01.2024 11:03 22,6 °C 0,1 °C 45 % 94 % 1030,8 hPa 0,0 l/m² 9,1 km/h (2 Bft) SW 227 ° 0 min 35 W/m² -0,7 °C -2,6 °C 11,3 km/h (2 Bft)
12.01.2024 11:06 22,7 °C 0,1 °C 45 % 94 % 1031,0 hPa 0,0 l/m² 8,3 km/h (2 Bft) SW 221 ° 0 min 33 W/m² -0,7 °C -1,8 °C 12,9 km/h (3 Bft)
12.01.2024 11:08 22,7 °C 0,1 °C 45 % 94 % 1031,0 hPa 0,0 l/m² 8,5 km/h (2 Bft) S-SW 210 ° 0 min 32 W/m² -0,7 °C -2,0 °C 11,3 km/h (2 Bft)
12.01.2024 11:10 22,7 °C 0,1 °C 45 % 94 % 1030,8 hPa 0,0 l/m² 8,8 km/h (2 Bft) S-SW 211 ° 0 min 35 W/m² -0,7 °C -2,3 °C 12,9 km/h (3 Bft)
12.01.2024 11:11 22,7 °C 0,1 °C 45 % 94 % 1030,8 hPa 0,0 l/m² 8,0 km/h (2 Bft) S-SW 211 ° 0 min 35 W/m² -0,7 °C -1,5 °C 9,7 km/h (2 Bft)
12.01.2024 11:12 22,7 °C 0,1 °C 45 % 94 % 1030,8 hPa 0,0 l/m² 7,2 km/h (2 Bft) S-SW 211 ° 0 min 37 W/m² -0,7 °C -0,7 °C 8,0 km/h (2 Bft)
12.01.2024 11:14 22,6 °C 0,1 °C 45 % 94 % 1031,0 hPa 0,0 l/m² 8,8 km/h (2 Bft) SW 214 ° 0 min 39 W/m² -0,7 °C -2,3 °C 11,3 km/h (2 Bft)
12.01.2024 11:15 22,7 °C 0,1 °C 45 % 94 % 1030,7 hPa 0,0 l/m² 10,1 km/h (2 Bft) SW 221 ° 0 min 39 W/m² -0,7 °C -3,4 °C 12,9 km/h (3 Bft)
12.01.2024 11:17 22,7 °C 0,1 °C 45 % 94 % 1030,6 hPa 0,0 l/m² 8,7 km/h (2 Bft) SW 229 ° 0 min 40 W/m² -0,7 °C -2,2 °C 11,3 km/h (2 Bft)
12.01.2024 11:19 22,7 °C 0,1 °C 45 % 94 % 1030,6 hPa 0,0 l/m² 7,9 km/h (2 Bft) SW 223 ° 0 min 42 W/m² -0,7 °C -1,4 °C 11,3 km/h (2 Bft)
12.01.2024 11:20 22,7 °C 0,1 °C 45 % 94 % 1030,7 hPa 0,0 l/m² 8,5 km/h (2 Bft) SW 231 ° 0 min 42 W/m² -0,7 °C -2,0 °C 11,3 km/h (2 Bft)
12.01.2024 11:22 22,7 °C 0,2 °C 45 % 94 % 1030,6 hPa 0,0 l/m² 9,4 km/h (2 Bft) SW 222 ° 0 min 40 W/m² -0,6 °C -2,7 °C 12,9 km/h (3 Bft)
12.01.2024 11:23 22,7 °C 0,1 °C 45 % 94 % 1030,7 hPa 0,0 l/m² 8,7 km/h (2 Bft) SW 223 ° 0 min 40 W/m² -0,7 °C -2,2 °C 12,9 km/h (3 Bft)
12.01.2024 11:24 22,7 °C 0,1 °C 45 % 94 % 1030,7 hPa 0,0 l/m² 10,9 km/h (2 Bft) SW 233 ° 0 min 40 W/m² -0,7 °C -4,1 °C 14,5 km/h (3 Bft)
12.01.2024 11:26 22,7 °C 0,2 °C 45 % 94 % 1030,6 hPa 0,0 l/m² 6,7 km/h (2 Bft) SW 236 ° 0 min 40 W/m² -0,6 °C -0,1 °C 11,3 km/h (2 Bft)
12.01.2024 11:28 22,7 °C 0,2 °C 45 % 94 % 1030,5 hPa 0,0 l/m² 9,2 km/h (2 Bft) SW 217 ° 0 min 42 W/m² -0,6 °C -2,5 °C 14,5 km/h (3 Bft)
12.01.2024 11:30 22,7 °C 0,2 °C 45 % 94 % 1030,5 hPa 0,0 l/m² 10,4 km/h (2 Bft) SW 223 ° 0 min 42 W/m² -0,6 °C -3,6 °C 16,1 km/h (3 Bft)
12.01.2024 11:31 22,7 °C 0,2 °C 45 % 94 % 1030,6 hPa 0,0 l/m² 9,0 km/h (2 Bft) SW 221 ° 0 min 42 W/m² -0,6 °C -2,4 °C 11,3 km/h (2 Bft)
12.01.2024 11:32 22,7 °C 0,2 °C 45 % 94 % 1030,6 hPa 0,0 l/m² 7,3 km/h (2 Bft) SW 221 ° 0 min 42 W/m² -0,6 °C -0,7 °C 9,7 km/h (2 Bft)
12.01.2024 11:33 22,7 °C 0,2 °C 45 % 94 % 1030,5 hPa 0,0 l/m² 6,4 km/h (2 Bft) SW 225 ° 0 min 42 W/m² -0,6 °C 0,2 °C 8,0 km/h (2 Bft)
12.01.2024 11:34 22,7 °C 0,2 °C 45 % 94 % 1030,5 hPa 0,0 l/m² 7,1 km/h (2 Bft) SW 227 ° 0 min 42 W/m² -0,6 °C -0,5 °C 9,7 km/h (2 Bft)
12.01.2024 11:36 22,7 °C 0,2 °C 45 % 94 % 1030,4 hPa 0,0 l/m² 9,2 km/h (2 Bft) SW 236 ° 0 min 44 W/m² -0,6 °C -2,5 °C 12,9 km/h (3 Bft)
12.01.2024 11:38 22,7 °C 0,2 °C 45 % 94 % 1030,4 hPa 0,0 l/m² 8,4 km/h (2 Bft) SW 226 ° 0 min 46 W/m² -0,6 °C -1,8 °C 12,9 km/h (3 Bft)
12.01.2024 11:40 22,7 °C 0,2 °C 45 % 94 % 1030,5 hPa 0,0 l/m² 10,4 km/h (2 Bft) SW 227 ° 0 min 44 W/m² -0,6 °C -3,6 °C 16,1 km/h (3 Bft)
12.01.2024 11:41 22,6 °C 0,2 °C 45 % 93 % 1030,4 hPa 0,0 l/m² 5,8 km/h (2 Bft) SW 225 ° 0 min 44 W/m² -0,8 °C 0,2 °C 9,7 km/h (2 Bft)
12.01.2024 11:42 22,7 °C 0,2 °C 45 % 94 % 1030,4 hPa 0,0 l/m² 10,2 km/h (2 Bft) SW 227 ° 0 min 44 W/m² -0,6 °C -3,4 °C 12,9 km/h (3 Bft)
12.01.2024 11:43 22,7 °C 0,2 °C 45 % 93 % 1030,4 hPa 0,0 l/m² 10,3 km/h (2 Bft) SW 226 ° 0 min 44 W/m² -0,8 °C -3,5 °C 12,9 km/h (3 Bft)
12.01.2024 11:44 22,7 °C 0,2 °C 45 % 93 % 1030,4 hPa 0,0 l/m² 8,8 km/h (2 Bft) SW 219 ° 0 min 44 W/m² -0,8 °C -2,2 °C 11,3 km/h (2 Bft)
12.01.2024 11:46 22,7 °C 0,2 °C 45 % 93 % 1030,5 hPa 0,0 l/m² 9,7 km/h (2 Bft) SW 220 ° 0 min 44 W/m² -0,8 °C -3,0 °C 12,9 km/h (3 Bft)
12.01.2024 11:48 22,7 °C 0,2 °C 45 % 93 % 1030,4 hPa 0,0 l/m² 10,1 km/h (2 Bft) SW 217 ° 0 min 42 W/m² -0,8 °C -3,3 °C 16,1 km/h (3 Bft)
12.01.2024 11:50 22,7 °C 0,2 °C 45 % 93 % 1030,4 hPa 0,0 l/m² 10,7 km/h (2 Bft) SW 215 ° 0 min 46 W/m² -0,8 °C -3,8 °C 14,5 km/h (3 Bft)
12.01.2024 11:51 22,7 °C 0,2 °C 45 % 93 % 1030,4 hPa 0,0 l/m² 11,5 km/h (2 Bft) S-SW 203 ° 0 min 46 W/m² -0,8 °C -4,4 °C 16,1 km/h (3 Bft)
12.01.2024 11:52 22,7 °C 0,2 °C 45 % 93 % 1030,4 hPa 0,0 l/m² 11,8 km/h (2 Bft) SW 217 ° 0 min 46 W/m² -0,8 °C -4,6 °C 14,5 km/h (3 Bft)
12.01.2024 11:53 22,7 °C 0,2 °C 45 % 93 % 1030,4 hPa 0,0 l/m² 9,7 km/h (2 Bft) SW 229 ° 0 min 47 W/m² -0,8 °C -3,0 °C 12,9 km/h (3 Bft)
12.01.2024 11:54 22,7 °C 0,2 °C 45 % 93 % 1030,4 hPa 0,0 l/m² 8,8 km/h (2 Bft) SW 223 ° 0 min 49 W/m² -0,8 °C -2,2 °C 11,3 km/h (2 Bft)
12.01.2024 11:56 22,6 °C 0,2 °C 45 % 93 % 1030,3 hPa 0,0 l/m² 7,4 km/h (2 Bft) SW 218 ° 0 min 51 W/m² -0,8 °C -0,8 °C 11,3 km/h (2 Bft)
12.01.2024 11:58 22,6 °C 0,2 °C 45 % 94 % 1030,3 hPa 0,0 l/m² 9,6 km/h (2 Bft) SW 227 ° 0 min 51 W/m² -0,6 °C -2,9 °C 16,1 km/h (3 Bft)
12.01.2024 12:00 22,6 °C 0,2 °C 45 % 93 % 1030,3 hPa 0,0 l/m² 9,4 km/h (2 Bft) SW 221 ° 0 min 49 W/m² -0,8 °C -2,7 °C 16,1 km/h (3 Bft)
12.01.2024 12:01 22,6 °C 0,2 °C 45 % 93 % 1030,3 hPa 0,0 l/m² 10,6 km/h (2 Bft) SW 217 ° 0 min 51 W/m² -0,8 °C -3,7 °C 16,1 km/h (3 Bft)
12.01.2024 12:02 22,7 °C 0,2 °C 45 % 93 % 1030,2 hPa 0,0 l/m² 9,1 km/h (2 Bft) SW 234 ° 0 min 51 W/m² -0,8 °C -2,5 °C 11,3 km/h (2 Bft)
12.01.2024 12:04 22,6 °C 0,2 °C 45 % 93 % 1030,2 hPa 0,0 l/m² 8,6 km/h (2 Bft) W-SW 254 ° 0 min 51 W/m² -0,8 °C -2,0 °C 11,3 km/h (2 Bft)
12.01.2024 12:05 22,6 °C 0,2 °C 45 % 93 % 1030,2 hPa 0,0 l/m² 9,0 km/h (2 Bft) SW 218 ° 1 min 53 W/m² -0,8 °C -2,4 °C 11,3 km/h (2 Bft)
12.01.2024 12:07 22,7 °C 0,2 °C 45 % 93 % 1030,2 hPa 0,0 l/m² 11,5 km/h (2 Bft) W-SW 242 ° 2 min 54 W/m² -0,8 °C -4,4 °C 16,1 km/h (3 Bft)
12.01.2024 12:09 22,6 °C 0,2 °C 45 % 93 % 1030,2 hPa 0,0 l/m² 10,6 km/h (2 Bft) W-SW 241 ° 0 min 49 W/m² -0,8 °C -3,7 °C 14,5 km/h (3 Bft)
12.01.2024 12:10 22,6 °C 0,2 °C 45 % 93 % 1030,2 hPa 0,0 l/m² 7,6 km/h (2 Bft) SW 215 ° 0 min 49 W/m² -0,8 °C -1,0 °C 12,9 km/h (3 Bft)
12.01.2024 12:12 22,6 °C 0,2 °C 45 % 93 % 1030,1 hPa 0,0 l/m² 10,0 km/h (2 Bft) SW 227 ° 0 min 47 W/m² -0,8 °C -3,2 °C 14,5 km/h (3 Bft)
12.01.2024 12:13 22,7 °C 0,2 °C 45 % 93 % 1030,2 hPa 0,0 l/m² 10,9 km/h (2 Bft) SW 219 ° 0 min 47 W/m² -0,8 °C -3,9 °C 14,5 km/h (3 Bft)
12.01.2024 12:15 22,6 °C 0,2 °C 45 % 93 % 1030,2 hPa 0,0 l/m² 8,5 km/h (2 Bft) SW 232 ° 0 min 51 W/m² -0,8 °C -1,9 °C 11,3 km/h (2 Bft)
12.01.2024 12:17 22,6 °C 0,2 °C 45 % 93 % 1030,2 hPa 0,0 l/m² 9,9 km/h (2 Bft) SW 215 ° 2 min 53 W/m² -0,8 °C -3,1 °C 14,5 km/h (3 Bft)
12.01.2024 12:19 22,6 °C 0,3 °C 45 % 93 % 1030,2 hPa 0,0 l/m² 7,8 km/h (2 Bft) SW 227 ° 2 min 54 W/m² -0,7 °C -1,1 °C 11,3 km/h (2 Bft)
12.01.2024 12:21 22,6 °C 0,3 °C 45 % 93 % 1030,1 hPa 0,0 l/m² 10,5 km/h (2 Bft) SW 222 ° 2 min 54 W/m² -0,7 °C -3,5 °C 14,5 km/h (3 Bft)
12.01.2024 12:22 22,6 °C 0,3 °C 45 % 93 % 1030,1 hPa 0,0 l/m² 8,3 km/h (2 Bft) SW 232 ° 1 min 54 W/m² -0,7 °C -1,6 °C 11,3 km/h (2 Bft)
12.01.2024 12:24 22,6 °C 0,3 °C 45 % 93 % 1030,1 hPa 0,0 l/m² 9,5 km/h (2 Bft) SW 215 ° 2 min 53 W/m² -0,7 °C -2,7 °C 14,5 km/h (3 Bft)
12.01.2024 12:25 22,6 °C 0,3 °C 45 % 93 % 1030,1 hPa 0,0 l/m² 9,2 km/h (2 Bft) SW 218 ° 1 min 53 W/m² -0,7 °C -2,4 °C 12,9 km/h (3 Bft)
12.01.2024 12:26 22,6 °C 0,3 °C 45 % 93 % 1030,1 hPa 0,0 l/m² 9,6 km/h (2 Bft) SW 221 ° 1 min 53 W/m² -0,7 °C -2,8 °C 12,9 km/h (3 Bft)
12.01.2024 12:28 22,6 °C 0,3 °C 45 % 93 % 1030,1 hPa 0,0 l/m² 8,7 km/h (2 Bft) S-SW 207 ° 2 min 54 W/m² -0,7 °C -2,0 °C 11,3 km/h (2 Bft)
12.01.2024 12:30 22,6 °C 0,3 °C 45 % 93 % 1030,2 hPa 0,0 l/m² 9,5 km/h (2 Bft) SW 221 ° 2 min 53 W/m² -0,7 °C -2,7 °C 12,9 km/h (3 Bft)
12.01.2024 12:32 22,6 °C 0,3 °C 45 % 93 % 1030,0 hPa 0,0 l/m² 9,6 km/h (2 Bft) SW 215 ° 2 min 53 W/m² -0,7 °C -2,8 °C 12,9 km/h (3 Bft)
12.01.2024 12:33 22,6 °C 0,3 °C 45 % 93 % 1030,0 hPa 0,0 l/m² 11,2 km/h (2 Bft) S-SW 205 ° 1 min 53 W/m² -0,7 °C -4,1 °C 12,9 km/h (3 Bft)
12.01.2024 12:34 22,6 °C 0,3 °C 45 % 93 % 1030,0 hPa 0,0 l/m² 7,0 km/h (2 Bft) SW 218 ° 1 min 54 W/m² -0,7 °C -0,3 °C 12,9 km/h (3 Bft)
12.01.2024 12:36 22,6 °C 0,3 °C 45 % 93 % 1030,0 hPa 0,0 l/m² 10,5 km/h (2 Bft) SW 226 ° 2 min 53 W/m² -0,7 °C -3,5 °C 14,5 km/h (3 Bft)
12.01.2024 12:38 22,6 °C 0,3 °C 45 % 93 % 1030,0 hPa 0,0 l/m² 11,1 km/h (2 Bft) SW 221 ° 0 min 51 W/m² -0,7 °C -4,0 °C 14,5 km/h (3 Bft)
12.01.2024 12:40 22,6 °C 0,3 °C 45 % 93 % 1030,1 hPa 0,0 l/m² 10,6 km/h (2 Bft) SW 215 ° 0 min 47 W/m² -0,7 °C -3,6 °C 12,9 km/h (3 Bft)
12.01.2024 12:42 22,6 °C 0,3 °C 45 % 93 % 1030,1 hPa 0,0 l/m² 10,4 km/h (2 Bft) SW 214 ° 0 min 49 W/m² -0,7 °C -3,4 °C 16,1 km/h (3 Bft)
12.01.2024 12:43 22,6 °C 0,3 °C 45 % 93 % 1030,1 hPa 0,0 l/m² 13,1 km/h (3 Bft) S-SW 212 ° 0 min 49 W/m² -0,7 °C -5,4 °C 16,1 km/h (3 Bft)
12.01.2024 12:46 22,6 °C 0,2 °C 45 % 93 % 1030,1 hPa 0,0 l/m² 11,2 km/h (2 Bft) SW 215 ° 0 min 47 W/m² -0,8 °C -4,2 °C 16,1 km/h (3 Bft)
12.01.2024 12:48 22,6 °C 0,3 °C 45 % 93 % 1030,0 hPa 0,0 l/m² 8,5 km/h (2 Bft) SW 217 ° 0 min 47 W/m² -0,7 °C -1,8 °C 11,3 km/h (2 Bft)
12.01.2024 12:50 22,6 °C 0,2 °C 45 % 93 % 1030,0 hPa 0,0 l/m² 10,9 km/h (2 Bft) SW 223 ° 0 min 49 W/m² -0,8 °C -3,9 °C 14,5 km/h (3 Bft)
12.01.2024 12:52 22,6 °C 0,2 °C 45 % 93 % 1030,0 hPa 0,0 l/m² 10,4 km/h (2 Bft) SW 220 ° 0 min 49 W/m² -0,8 °C -3,6 °C 14,5 km/h (3 Bft)
12.01.2024 12:53 22,6 °C 0,2 °C 45 % 93 % 1030,0 hPa 0,0 l/m² 10,3 km/h (2 Bft) SW 229 ° 0 min 51 W/m² -0,8 °C -3,5 °C 12,9 km/h (3 Bft)
12.01.2024 12:55 22,6 °C 0,2 °C 45 % 93 % 1030,0 hPa 0,0 l/m² 11,4 km/h (2 Bft) SW 224 ° 2 min 53 W/m² -0,8 °C -4,3 °C 14,5 km/h (3 Bft)
12.01.2024 12:57 22,6 °C 0,2 °C 45 % 93 % 1030,0 hPa 0,0 l/m² 10,6 km/h (2 Bft) SW 229 ° 0 min 49 W/m² -0,8 °C -3,7 °C 12,9 km/h (3 Bft)
12.01.2024 12:59 22,6 °C 0,2 °C 45 % 93 % 1029,9 hPa 0,0 l/m² 8,5 km/h (2 Bft) SW 227 ° 0 min 51 W/m² -0,8 °C -1,9 °C 11,3 km/h (2 Bft)
12.01.2024 13:01 22,6 °C 0,2 °C 45 % 93 % 1029,9 hPa 0,0 l/m² 10,0 km/h (2 Bft) W-SW 252 ° 2 min 54 W/m² -0,8 °C -3,2 °C 14,5 km/h (3 Bft)
12.01.2024 13:02 22,6 °C 0,2 °C 45 % 93 % 1029,9 hPa 0,0 l/m² 10,2 km/h (2 Bft) SW 219 ° 1 min 53 W/m² -0,8 °C -3,4 °C 12,9 km/h (3 Bft)
12.01.2024 13:04 22,6 °C 0,2 °C 45 % 93 % 1030,0 hPa 0,0 l/m² 7,9 km/h (2 Bft) SW 223 ° 0 min 51 W/m² -0,8 °C -1,3 °C 12,9 km/h (3 Bft)
12.01.2024 13:05 22,6 °C 0,3 °C 45 % 93 % 1029,9 hPa 0,0 l/m² 6,2 km/h (2 Bft) SW 232 ° 0 min 49 W/m² -0,7 °C 0,3 °C 9,7 km/h (2 Bft)
12.01.2024 13:06 22,6 °C 0,2 °C 44 % 93 % 1029,9 hPa 0,0 l/m² 6,0 km/h (2 Bft) SW 221 ° 0 min 51 W/m² -0,8 °C 0,2 °C 9,7 km/h (2 Bft)
12.01.2024 13:08 22,6 °C 0,2 °C 44 % 93 % 1029,9 hPa 0,0 l/m² 9,6 km/h (2 Bft) SW 217 ° 2 min 53 W/m² -0,8 °C -2,9 °C 16,1 km/h (3 Bft)
12.01.2024 13:10 22,6 °C 0,2 °C 45 % 93 % 1029,8 hPa 0,0 l/m² 9,6 km/h (2 Bft) SW 227 ° 0 min 51 W/m² -0,8 °C -2,9 °C 14,5 km/h (3 Bft)
12.01.2024 13:12 22,5 °C 0,2 °C 45 % 93 % 1029,8 hPa 0,0 l/m² 8,5 km/h (2 Bft) SW 225 ° 2 min 53 W/m² -0,8 °C -1,9 °C 14,5 km/h (3 Bft)
12.01.2024 13:13 22,6 °C 0,3 °C 45 % 93 % 1029,8 hPa 0,0 l/m² 9,7 km/h (2 Bft) SW 221 ° 0 min 51 W/m² -0,7 °C -2,9 °C 14,5 km/h (3 Bft)
12.01.2024 13:14 22,6 °C 0,2 °C 44 % 93 % 1029,7 hPa 0,0 l/m² 10,2 km/h (2 Bft) SW 231 ° 0 min 49 W/m² -0,8 °C -3,4 °C 11,3 km/h (2 Bft)
12.01.2024 13:16 22,6 °C 0,3 °C 45 % 92 % 1029,7 hPa 0,0 l/m² 10,7 km/h (2 Bft) SW 223 ° 0 min 49 W/m² -0,8 °C -3,7 °C 14,5 km/h (3 Bft)
12.01.2024 13:18 22,6 °C 0,3 °C 45 % 92 % 1029,7 hPa 0,0 l/m² 9,0 km/h (2 Bft) SW 229 ° 0 min 49 W/m² -0,8 °C -2,3 °C 16,1 km/h (3 Bft)
12.01.2024 13:20 22,6 °C 0,3 °C 45 % 92 % 1029,7 hPa 0,0 l/m² 11,7 km/h (2 Bft) SW 235 ° 0 min 49 W/m² -0,8 °C -4,4 °C 17,7 km/h (3 Bft)
12.01.2024 13:22 22,6 °C 0,2 °C 45 % 93 % 1029,6 hPa 0,0 l/m² 9,2 km/h (2 Bft) SW 223 ° 2 min 53 W/m² -0,8 °C -2,5 °C 14,5 km/h (3 Bft)
12.01.2024 13:23 22,5 °C 0,3 °C 44 % 93 % 1029,6 hPa 0,0 l/m² 6,7 km/h (2 Bft) SW 231 ° 1 min 54 W/m² -0,7 °C 0,0 °C 11,3 km/h (2 Bft)
12.01.2024 13:25 22,5 °C 0,3 °C 45 % 93 % 1029,8 hPa 0,0 l/m² 9,6 km/h (2 Bft) SW 228 ° 2 min 53 W/m² -0,7 °C -2,8 °C 16,1 km/h (3 Bft)
12.01.2024 13:26 22,5 °C 0,3 °C 45 % 93 % 1029,7 hPa 0,0 l/m² 8,9 km/h (2 Bft) S-SW 209 ° 0 min 49 W/m² -0,7 °C -2,2 °C 16,1 km/h (3 Bft)
12.01.2024 13:27 22,5 °C 0,3 °C 45 % 93 % 1029,7 hPa 0,0 l/m² 8,6 km/h (2 Bft) SW 236 ° 0 min 49 W/m² -0,7 °C -1,9 °C 12,9 km/h (3 Bft)
12.01.2024 13:29 22,5 °C 0,3 °C 45 % 93 % 1029,7 hPa 0,0 l/m² 7,3 km/h (2 Bft) SW 223 ° 0 min 49 W/m² -0,7 °C -0,6 °C 9,7 km/h (2 Bft)
12.01.2024 13:31 22,5 °C 0,3 °C 44 % 93 % 1029,7 hPa 0,0 l/m² 11,6 km/h (2 Bft) W-SW 238 ° 2 min 54 W/m² -0,7 °C -4,4 °C 16,1 km/h (3 Bft)
12.01.2024 13:32 22,5 °C 0,3 °C 44 % 92 % 1029,7 hPa 0,0 l/m² 11,8 km/h (2 Bft) W-SW 238 ° 1 min 53 W/m² -0,8 °C -4,5 °C 14,5 km/h (3 Bft)
12.01.2024 13:34 22,5 °C 0,3 °C 45 % 92 % 1029,6 hPa 0,0 l/m² 10,3 km/h (2 Bft) SW 217 ° 0 min 51 W/m² -0,8 °C -3,4 °C 16,1 km/h (3 Bft)
12.01.2024 13:36 22,5 °C 0,3 °C 44 % 92 % 1029,6 hPa 0,0 l/m² 8,5 km/h (2 Bft) S-SW 211 ° 0 min 49 W/m² -0,8 °C -1,8 °C 12,9 km/h (3 Bft)
12.01.2024 13:38 22,5 °C 0,4 °C 44 % 92 % 1029,4 hPa 0,0 l/m² 8,4 km/h (2 Bft) SW 222 ° 0 min 47 W/m² -0,7 °C -1,6 °C 11,3 km/h (2 Bft)
12.01.2024 13:40 22,5 °C 0,4 °C 45 % 92 % 1029,6 hPa 0,0 l/m² 7,6 km/h (2 Bft) SW 220 ° 0 min 47 W/m² -0,7 °C -0,8 °C 12,9 km/h (3 Bft)
12.01.2024 13:42 22,4 °C 0,4 °C 44 % 92 % 1029,6 hPa 0,0 l/m² 8,9 km/h (2 Bft) W-SW 238 ° 0 min 51 W/m² -0,7 °C -2,1 °C 11,3 km/h (2 Bft)
12.01.2024 13:43 22,4 °C 0,4 °C 44 % 92 % 1029,6 hPa 0,0 l/m² 8,3 km/h (2 Bft) SW 215 ° 0 min 51 W/m² -0,7 °C -1,5 °C 12,9 km/h (3 Bft)
12.01.2024 13:45 22,4 °C 0,4 °C 44 % 92 % 1029,7 hPa 0,0 l/m² 7,0 km/h (2 Bft) W-SW 238 ° 2 min 53 W/m² -0,7 °C -0,2 °C 11,3 km/h (2 Bft)
12.01.2024 13:47 22,4 °C 0,4 °C 44 % 92 % 1029,6 hPa 0,0 l/m² 6,9 km/h (2 Bft) W-SW 238 ° 2 min 53 W/m² -0,7 °C -0,1 °C 9,7 km/h (2 Bft)
12.01.2024 13:49 22,5 °C 0,4 °C 44 % 92 % 1029,7 hPa 0,0 l/m² 6,0 km/h (2 Bft) SW 227 ° 0 min 49 W/m² -0,7 °C 0,4 °C 9,7 km/h (2 Bft)
12.01.2024 13:51 22,5 °C 0,4 °C 44 % 92 % 1029,6 hPa 0,0 l/m² 5,7 km/h (2 Bft) SW 234 ° 0 min 46 W/m² -0,7 °C 0,4 °C 11,3 km/h (2 Bft)
12.01.2024 13:52 22,5 °C 0,4 °C 44 % 92 % 1029,6 hPa 0,0 l/m² 5,6 km/h (2 Bft) SW 232 ° 0 min 44 W/m² -0,7 °C 0,4 °C 11,3 km/h (2 Bft)
12.01.2024 13:54 22,4 °C 0,4 °C 45 % 92 % 1029,5 hPa 0,0 l/m² 9,2 km/h (2 Bft) W-SW 250 ° 0 min 42 W/m² -0,7 °C -2,3 °C 12,9 km/h (3 Bft)
12.01.2024 13:55 22,4 °C 0,4 °C 44 % 92 % 1029,4 hPa 0,0 l/m² 6,6 km/h (2 Bft) W-SW 245 ° 0 min 40 W/m² -0,7 °C 0,2 °C 8,0 km/h (2 Bft)
12.01.2024 13:56 22,4 °C 0,4 °C 44 % 92 % 1029,4 hPa 0,0 l/m² 7,9 km/h (2 Bft) W-SW 240 ° 0 min 39 W/m² -0,7 °C -1,1 °C 9,7 km/h (2 Bft)
12.01.2024 13:58 22,4 °C 0,4 °C 44 % 92 % 1029,5 hPa 0,0 l/m² 7,2 km/h (2 Bft) W-SW 244 ° 0 min 37 W/m² -0,7 °C -0,4 °C 9,7 km/h (2 Bft)
12.01.2024 14:00 22,4 °C 0,4 °C 44 % 92 % 1029,5 hPa 0,0 l/m² 7,4 km/h (2 Bft) W-SW 238 ° 0 min 37 W/m² -0,7 °C -0,6 °C 11,3 km/h (2 Bft)
12.01.2024 14:02 22,4 °C 0,4 °C 45 % 92 % 1029,4 hPa 0,0 l/m² 7,7 km/h (2 Bft) W-SW 257 ° 0 min 39 W/m² -0,7 °C -0,9 °C 12,9 km/h (3 Bft)
12.01.2024 14:03 22,4 °C 0,4 °C 45 % 92 % 1029,4 hPa 0,0 l/m² 6,4 km/h (2 Bft) SW 236 ° 0 min 39 W/m² -0,7 °C 0,4 °C 8,0 km/h (2 Bft)
12.01.2024 14:05 22,4 °C 0,4 °C 44 % 92 % 1029,4 hPa 0,0 l/m² 7,4 km/h (2 Bft) SW 236 ° 0 min 37 W/m² -0,7 °C -0,6 °C 11,3 km/h (2 Bft)
12.01.2024 14:07 22,4 °C 0,4 °C 44 % 92 % 1029,3 hPa 0,0 l/m² 7,9 km/h (2 Bft) W-SW 238 ° 0 min 33 W/m² -0,7 °C -1,1 °C 14,5 km/h (3 Bft)
12.01.2024 14:09 22,4 °C 0,4 °C 44 % 92 % 1029,3 hPa 0,0 l/m² 5,7 km/h (2 Bft) W-SW 239 ° 0 min 32 W/m² -0,7 °C 0,4 °C 11,3 km/h (2 Bft)
12.01.2024 14:11 22,4 °C 0,4 °C 44 % 92 % 1029,4 hPa 0,0 l/m² 6,4 km/h (2 Bft) W-SW 239 ° 0 min 32 W/m² -0,7 °C 0,4 °C 9,7 km/h (2 Bft)
12.01.2024 14:12 22,4 °C 0,4 °C 44 % 92 % 1029,4 hPa 0,0 l/m² 5,0 km/h (1 Bft) W-SW 239 ° 0 min 32 W/m² -0,7 °C 0,4 °C 8,0 km/h (2 Bft)
12.01.2024 14:14 22,4 °C 0,4 °C 44 % 92 % 1029,4 hPa 0,0 l/m² 6,8 km/h (2 Bft) SW 235 ° 0 min 32 W/m² -0,7 °C 0,0 °C 11,3 km/h (2 Bft)
12.01.2024 14:16 22,4 °C 0,4 °C 44 % 92 % 1029,4 hPa 0,0 l/m² 3,9 km/h (1 Bft) W-SW 238 ° 0 min 33 W/m² -0,7 °C 0,4 °C 11,3 km/h (2 Bft)
12.01.2024 14:18 22,4 °C 0,4 °C 44 % 92 % 1029,3 hPa 0,0 l/m² 4,9 km/h (1 Bft) W-SW 245 ° 0 min 35 W/m² -0,7 °C 0,4 °C 8,0 km/h (2 Bft)
12.01.2024 14:20 22,4 °C 0,4 °C 44 % 92 % 1029,3 hPa 0,0 l/m² 5,8 km/h (2 Bft) W-SW 244 ° 0 min 37 W/m² -0,7 °C 0,4 °C 9,7 km/h (2 Bft)
12.01.2024 14:22 22,4 °C 0,5 °C 44 % 92 % 1029,2 hPa 0,0 l/m² 4,3 km/h (1 Bft) W-SW 246 ° 0 min 35 W/m² -0,6 °C 0,5 °C 9,7 km/h (2 Bft)
12.01.2024 14:23 22,4 °C 0,5 °C 44 % 92 % 1029,2 hPa 0,0 l/m² 4,9 km/h (1 Bft) W-SW 238 ° 0 min 30 W/m² -0,6 °C 0,5 °C 6,4 km/h (2 Bft)
12.01.2024 14:25 22,4 °C 0,4 °C 44 % 92 % 1029,2 hPa 0,0 l/m² 6,1 km/h (2 Bft) W-SW 254 ° 0 min 28 W/m² -0,7 °C 0,4 °C 11,3 km/h (2 Bft)
12.01.2024 14:27 22,4 °C 0,5 °C 44 % 92 % 1029,2 hPa 0,0 l/m² 4,8 km/h (1 Bft) W 269 ° 0 min 28 W/m² -0,6 °C 0,5 °C 8,0 km/h (2 Bft)
12.01.2024 14:29 22,4 °C 0,5 °C 44 % 92 % 1029,2 hPa 0,0 l/m² 4,8 km/h (1 Bft) W-SW 250 ° 0 min 28 W/m² -0,6 °C 0,5 °C 8,0 km/h (2 Bft)
12.01.2024 14:31 22,4 °C 0,5 °C 41 % 92 % 1029,2 hPa 0,0 l/m² 4,2 km/h (1 Bft) SW 234 ° 0 min 28 W/m² -0,6 °C 0,5 °C 8,0 km/h (2 Bft)
12.01.2024 14:32 22,4 °C 0,5 °C 41 % 92 % 1029,2 hPa 0,0 l/m² 7,7 km/h (2 Bft) SW 236 ° 0 min 28 W/m² -0,6 °C -0,8 °C 9,7 km/h (2 Bft)
12.01.2024 14:34 22,4 °C 0,5 °C 41 % 92 % 1029,1 hPa 0,0 l/m² 5,7 km/h (2 Bft) W-SW 237 ° 0 min 30 W/m² -0,6 °C 0,5 °C 8,0 km/h (2 Bft)
12.01.2024 14:36 22,3 °C 0,5 °C 40 % 92 % 1029,0 hPa 0,0 l/m² 4,7 km/h (1 Bft) SW 230 ° 0 min 33 W/m² -0,6 °C 0,5 °C 8,0 km/h (2 Bft)
12.01.2024 14:38 22,3 °C 0,5 °C 40 % 92 % 1028,9 hPa 0,0 l/m² 5,3 km/h (1 Bft) SW 223 ° 0 min 33 W/m² -0,6 °C 0,5 °C 9,7 km/h (2 Bft)
12.01.2024 14:40 22,3 °C 0,5 °C 40 % 92 % 1028,9 hPa 0,0 l/m² 6,7 km/h (2 Bft) SW 227 ° 0 min 32 W/m² -0,6 °C 0,2 °C 9,7 km/h (2 Bft)
12.01.2024 14:42 22,2 °C 0,5 °C 38 % 92 % 1028,8 hPa 0,0 l/m² 6,2 km/h (2 Bft) SW 230 ° 0 min 32 W/m² -0,6 °C 0,5 °C 9,7 km/h (2 Bft)
12.01.2024 14:43 22,2 °C 0,6 °C 38 % 92 % 1028,8 hPa 0,0 l/m² 4,9 km/h (1 Bft) SW 232 ° 0 min 30 W/m² -0,5 °C 0,6 °C 6,4 km/h (2 Bft)
12.01.2024 14:45 22,2 °C 0,5 °C 38 % 92 % 1028,8 hPa 0,0 l/m² 8,8 km/h (2 Bft) SW 229 ° 0 min 30 W/m² -0,6 °C -1,9 °C 12,9 km/h (3 Bft)
12.01.2024 14:47 22,1 °C 0,5 °C 38 % 92 % 1028,7 hPa 0,0 l/m² 8,5 km/h (2 Bft) SW 234 ° 0 min 26 W/m² -0,6 °C -1,6 °C 11,3 km/h (2 Bft)
12.01.2024 14:49 22,1 °C 0,5 °C 38 % 92 % 1028,7 hPa 0,0 l/m² 3,3 km/h (1 Bft) SW 234 ° 0 min 25 W/m² -0,6 °C 0,5 °C 8,0 km/h (2 Bft)
12.01.2024 14:51 22,1 °C 0,5 °C 39 % 92 % 1028,7 hPa 0,0 l/m² 6,2 km/h (2 Bft) SW 234 ° 0 min 25 W/m² -0,6 °C 0,5 °C 9,7 km/h (2 Bft)
12.01.2024 14:52 22,1 °C 0,5 °C 39 % 92 % 1028,7 hPa 0,0 l/m² 7,5 km/h (2 Bft) W-SW 246 ° 0 min 23 W/m² -0,6 °C -0,6 °C 12,9 km/h (3 Bft)
12.01.2024 14:54 22,1 °C 0,6 °C 40 % 92 % 1028,8 hPa 0,0 l/m² 6,8 km/h (2 Bft) W-SW 247 ° 0 min 25 W/m² -0,5 °C 0,2 °C 11,3 km/h (2 Bft)
12.01.2024 14:56 22,1 °C 0,5 °C 40 % 92 % 1028,8 hPa 0,0 l/m² 5,4 km/h (2 Bft) W-SW 242 ° 0 min 23 W/m² -0,6 °C 0,5 °C 8,0 km/h (2 Bft)
12.01.2024 14:58 22,1 °C 0,5 °C 40 % 92 % 1028,7 hPa 0,0 l/m² 7,1 km/h (2 Bft) SW 221 ° 0 min 25 W/m² -0,6 °C -0,2 °C 9,7 km/h (2 Bft)
12.01.2024 15:00 22,1 °C 0,6 °C 40 % 92 % 1028,7 hPa 0,0 l/m² 3,7 km/h (1 Bft) SW 229 ° 0 min 23 W/m² -0,5 °C 0,6 °C 8,0 km/h (2 Bft)
12.01.2024 15:02 22,1 °C 0,5 °C 40 % 92 % 1028,7 hPa 0,0 l/m² 5,0 km/h (1 Bft) W-SW 238 ° 0 min 21 W/m² -0,6 °C 0,5 °C 8,0 km/h (2 Bft)
12.01.2024 15:03 22,1 °C 0,5 °C 40 % 92 % 1028,7 hPa 0,0 l/m² 5,9 km/h (2 Bft) SW 226 ° 0 min 23 W/m² -0,6 °C 0,5 °C 8,0 km/h (2 Bft)
12.01.2024 15:05 22,1 °C 0,5 °C 41 % 92 % 1028,7 hPa 0,0 l/m² 4,9 km/h (1 Bft) SW 235 ° 0 min 21 W/m² -0,6 °C 0,5 °C 8,0 km/h (2 Bft)
12.01.2024 15:07 22,1 °C 0,5 °C 41 % 92 % 1028,8 hPa 0,0 l/m² 6,6 km/h (2 Bft) W-SW 254 ° 0 min 19 W/m² -0,6 °C 0,3 °C 8,0 km/h (2 Bft)
12.01.2024 15:09 22,2 °C 0,5 °C 41 % 92 % 1028,9 hPa 0,0 l/m² 4,6 km/h (1 Bft) W 270 ° 0 min 18 W/m² -0,6 °C 0,5 °C 8,0 km/h (2 Bft)
12.01.2024 15:11 22,2 °C 0,5 °C 41 % 91 % 1028,8 hPa 0,0 l/m² 3,3 km/h (1 Bft) W 277 ° 0 min 14 W/m² -0,8 °C 0,5 °C 6,4 km/h (2 Bft)
12.01.2024 15:12 22,2 °C 0,5 °C 41 % 91 % 1028,8 hPa 0,0 l/m² 1,3 km/h (1 Bft) W 277 ° 0 min 14 W/m² -0,8 °C 0,5 °C 3,2 km/h (1 Bft)
12.01.2024 15:14 22,2 °C 0,5 °C 41 % 91 % 1028,9 hPa 0,0 l/m² 3,2 km/h (1 Bft) W 275 ° 0 min 16 W/m² -0,8 °C 0,5 °C 4,8 km/h (1 Bft)
12.01.2024 15:16 22,2 °C 0,5 °C 41 % 91 % 1028,8 hPa 0,0 l/m² 4,1 km/h (1 Bft) W 269 ° 0 min 19 W/m² -0,8 °C 0,5 °C 9,7 km/h (2 Bft)
12.01.2024 15:18 22,2 °C 0,5 °C 41 % 91 % 1028,8 hPa 0,0 l/m² 3,0 km/h (1 Bft) W 273 ° 0 min 19 W/m² -0,8 °C 0,5 °C 6,4 km/h (2 Bft)
12.01.2024 15:20 22,2 °C 0,6 °C 42 % 91 % 1028,9 hPa 0,0 l/m² 4,5 km/h (1 Bft) W-SW 251 ° 0 min 19 W/m² -0,7 °C 0,6 °C 11,3 km/h (2 Bft)
12.01.2024 15:22 22,2 °C 0,6 °C 42 % 91 % 1028,9 hPa 0,0 l/m² 2,5 km/h (1 Bft) W 267 ° 0 min 16 W/m² -0,7 °C 0,6 °C 4,8 km/h (1 Bft)
12.01.2024 15:23 22,2 °C 0,6 °C 42 % 92 % 1028,9 hPa 0,0 l/m² 0,4 km/h (0 Bft) W 268 ° 0 min 16 W/m² -0,5 °C 0,6 °C 3,2 km/h (1 Bft)
12.01.2024 15:25 22,2 °C 0,6 °C 42 % 92 % 1028,9 hPa 0,0 l/m² 4,9 km/h (1 Bft) W 266 ° 0 min 16 W/m² -0,5 °C 0,6 °C 9,7 km/h (2 Bft)
12.01.2024 15:27 22,2 °C 0,6 °C 42 % 91 % 1028,9 hPa 0,0 l/m² 5,8 km/h (2 Bft) W 271 ° 0 min 14 W/m² -0,7 °C 0,6 °C 12,9 km/h (3 Bft)
12.01.2024 15:29 22,2 °C 0,6 °C 42 % 91 % 1028,9 hPa 0,0 l/m² 6,8 km/h (2 Bft) W 269 ° 0 min 12 W/m² -0,7 °C 0,2 °C 12,9 km/h (3 Bft)
12.01.2024 15:31 22,2 °C 0,6 °C 42 % 91 % 1028,9 hPa 0,0 l/m² 16,4 km/h (3 Bft) W 279 ° 0 min 12 W/m² -0,7 °C -7,1 °C 20,9 km/h (4 Bft)
12.01.2024 15:32 22,2 °C 0,6 °C 42 % 91 % 1028,9 hPa 0,0 l/m² 13,6 km/h (3 Bft) W 271 ° 0 min 12 W/m² -0,7 °C -5,4 °C 19,3 km/h (3 Bft)
12.01.2024 15:34 22,2 °C 0,6 °C 42 % 91 % 1029,0 hPa 0,0 l/m² 15,6 km/h (3 Bft) W 274 ° 0 min 11 W/m² -0,7 °C -6,6 °C 20,9 km/h (4 Bft)
12.01.2024 15:36 22,2 °C 0,6 °C 42 % 91 % 1028,9 hPa 0,0 l/m² 12,1 km/h (2 Bft) W-NW 284 ° 0 min 11 W/m² -0,7 °C -4,4 °C 16,1 km/h (3 Bft)
12.01.2024 15:38 22,2 °C 0,7 °C 42 % 91 % 1029,0 hPa 0,0 l/m² 11,3 km/h (2 Bft) W-SW 257 ° 0 min 7 W/m² -0,6 °C -3,7 °C 17,7 km/h (3 Bft)
12.01.2024 15:40 22,2 °C 0,7 °C 42 % 91 % 1029,0 hPa 0,0 l/m² 13,1 km/h (3 Bft) W 267 ° 0 min 5 W/m² -0,6 °C -4,9 °C 19,3 km/h (3 Bft)
12.01.2024 15:42 22,3 °C 0,7 °C 42 % 91 % 1029,0 hPa 0,0 l/m² 10,1 km/h (2 Bft) W 269 ° 0 min 5 W/m² -0,6 °C -2,8 °C 16,1 km/h (3 Bft)
12.01.2024 15:43 22,3 °C 0,7 °C 42 % 91 % 1029,0 hPa 0,0 l/m² 13,4 km/h (3 Bft) W 269 ° 0 min 5 W/m² -0,6 °C -5,1 °C 17,7 km/h (3 Bft)
12.01.2024 15:45 22,2 °C 0,7 °C 42 % 91 % 1028,9 hPa 0,0 l/m² 10,9 km/h (2 Bft) W 281 ° 0 min 5 W/m² -0,6 °C -3,4 °C 16,1 km/h (3 Bft)
12.01.2024 15:47 22,2 °C 0,7 °C 42 % 91 % 1028,8 hPa 0,0 l/m² 10,8 km/h (2 Bft) W 270 ° 0 min 5 W/m² -0,6 °C -3,3 °C 16,1 km/h (3 Bft)
12.01.2024 15:49 22,2 °C 0,7 °C 43 % 90 % 1028,9 hPa 0,0 l/m² 10,0 km/h (2 Bft) W 274 ° 0 min 5 W/m² -0,7 °C -2,7 °C 16,1 km/h (3 Bft)
12.01.2024 15:51 22,2 °C 0,7 °C 43 % 90 % 1028,9 hPa 0,0 l/m² 12,0 km/h (2 Bft) W-NW 283 ° 0 min 5 W/m² -0,7 °C -4,2 °C 16,1 km/h (3 Bft)
12.01.2024 15:52 22,3 °C 0,7 °C 43 % 90 % 1028,9 hPa 0,0 l/m² 9,7 km/h (2 Bft) W 268 ° 0 min 5 W/m² -0,7 °C -2,4 °C 14,5 km/h (3 Bft)
12.01.2024 15:55 22,3 °C 0,7 °C 43 % 90 % 1028,9 hPa 0,0 l/m² 10,0 km/h (2 Bft) W 273 ° 0 min 5 W/m² -0,7 °C -2,7 °C 17,7 km/h (3 Bft)
12.01.2024 15:57 22,3 °C 0,7 °C 43 % 90 % 1028,9 hPa 0,0 l/m² 12,3 km/h (2 Bft) W 280 ° 0 min 5 W/m² -0,7 °C -4,4 °C 17,7 km/h (3 Bft)
12.01.2024 15:59 22,2 °C 0,7 °C 43 % 90 % 1028,8 hPa 0,0 l/m² 10,6 km/h (2 Bft) W-NW 285 ° 0 min 5 W/m² -0,7 °C -3,2 °C 16,1 km/h (3 Bft)
12.01.2024 16:01 22,3 °C 0,7 °C 43 % 90 % 1028,4 hPa 0,0 l/m² 10,6 km/h (2 Bft) W-SW 252 ° 0 min 5 W/m² -0,7 °C -3,2 °C 16,1 km/h (3 Bft)
12.01.2024 16:02 22,3 °C 0,7 °C 43 % 90 % 1028,4 hPa 0,0 l/m² 6,3 km/h (2 Bft) W 265 ° 0 min 5 W/m² -0,7 °C 0,7 °C 11,3 km/h (2 Bft)
12.01.2024 16:04 22,2 °C 0,7 °C 43 % 90 % 1028,3 hPa 0,0 l/m² 3,6 km/h (1 Bft) W 261 ° 0 min 7 W/m² -0,7 °C 0,7 °C 11,3 km/h (2 Bft)
12.01.2024 16:06 22,2 °C 0,7 °C 43 % 90 % 1028,3 hPa 0,0 l/m² 2,6 km/h (1 Bft) W-SW 240 ° 0 min 7 W/m² -0,7 °C 0,7 °C 6,4 km/h (2 Bft)
12.01.2024 16:08 22,3 °C 0,7 °C 43 % 90 % 1028,3 hPa 0,0 l/m² 4,7 km/h (1 Bft) W-SW 242 ° 0 min 7 W/m² -0,7 °C 0,7 °C 8,0 km/h (2 Bft)
12.01.2024 16:10 22,2 °C 0,7 °C 43 % 90 % 1028,3 hPa 0,0 l/m² 3,5 km/h (1 Bft) W-SW 256 ° 0 min 7 W/m² -0,7 °C 0,7 °C 6,4 km/h (2 Bft)
12.01.2024 16:12 22,2 °C 0,6 °C 43 % 89 % 1028,2 hPa 0,0 l/m² 3,8 km/h (1 Bft) W-SW 247 ° 0 min 7 W/m² -1,0 °C 0,6 °C 6,4 km/h (2 Bft)
12.01.2024 16:13 22,2 °C 0,6 °C 43 % 89 % 1028,2 hPa 0,0 l/m² 4,5 km/h (1 Bft) W-SW 248 ° 0 min 7 W/m² -1,0 °C 0,6 °C 6,4 km/h (2 Bft)
12.01.2024 16:15 22,2 °C 0,5 °C 43 % 89 % 1028,3 hPa 0,0 l/m² 2,7 km/h (1 Bft) SW 228 ° 0 min 11 W/m² -1,1 °C 0,5 °C 6,4 km/h (2 Bft)
12.01.2024 16:17 22,2 °C 0,4 °C 43 % 89 % 1028,2 hPa 0,0 l/m² 4,3 km/h (1 Bft) SW 215 ° 0 min 12 W/m² -1,2 °C 0,4 °C 6,4 km/h (2 Bft)
12.01.2024 16:19 22,2 °C 0,4 °C 43 % 90 % 1028,3 hPa 0,0 l/m² 4,7 km/h (1 Bft) SW 224 ° 0 min 12 W/m² -1,0 °C 0,4 °C 8,0 km/h (2 Bft)
12.01.2024 16:21 22,2 °C 0,4 °C 43 % 90 % 1028,2 hPa 0,0 l/m² 5,0 km/h (1 Bft) SW 216 ° 0 min 11 W/m² -1,0 °C 0,4 °C 6,4 km/h (2 Bft)
12.01.2024 16:22 22,2 °C 0,3 °C 43 % 90 % 1028,2 hPa 0,0 l/m² 3,8 km/h (1 Bft) SW 216 ° 0 min 9 W/m² -1,1 °C 0,3 °C 4,8 km/h (1 Bft)
12.01.2024 16:24 22,2 °C 0,3 °C 43 % 90 % 1028,1 hPa 0,0 l/m² 4,3 km/h (1 Bft) S-SW 213 ° 0 min 7 W/m² -1,1 °C 0,3 °C 6,4 km/h (2 Bft)
12.01.2024 16:26 22,2 °C 0,3 °C 42 % 90 % 1028,1 hPa 0,0 l/m² 7,1 km/h (2 Bft) S-SW 194 ° 0 min 7 W/m² -1,1 °C -0,4 °C 9,7 km/h (2 Bft)
12.01.2024 16:28 22,2 °C 0,3 °C 42 % 90 % 1028,0 hPa 0,0 l/m² 7,2 km/h (2 Bft) S-SW 200 ° 0 min 5 W/m² -1,1 °C -0,5 °C 9,7 km/h (2 Bft)
12.01.2024 16:30 22,2 °C 0,3 °C 42 % 90 % 1028,0 hPa 0,0 l/m² 8,9 km/h (2 Bft) S-SW 209 ° 0 min 5 W/m² -1,1 °C -2,2 °C 11,3 km/h (2 Bft)
12.01.2024 16:32 22,2 °C 0,2 °C 43 % 90 % 1028,2 hPa 0,0 l/m² 7,4 km/h (2 Bft) S-SW 213 ° 0 min 5 W/m² -1,2 °C -0,8 °C 11,3 km/h (2 Bft)
12.01.2024 16:33 22,2 °C 0,2 °C 43 % 90 % 1028,2 hPa 0,0 l/m² 7,2 km/h (2 Bft) SW 216 ° 0 min 0 W/m² -1,2 °C -0,6 °C 12,9 km/h (3 Bft)
12.01.2024 16:35 22,2 °C 0,2 °C 43 % 90 % 1028,1 hPa 0,0 l/m² 7,2 km/h (2 Bft) SW 220 ° 0 min 0 W/m² -1,2 °C -0,6 °C 14,5 km/h (3 Bft)
12.01.2024 16:37 22,1 °C 0,1 °C 43 % 90 % 1028,1 hPa 0,0 l/m² 6,5 km/h (2 Bft) S-SW 211 ° 0 min 0 W/m² -1,3 °C 0,0 °C 9,7 km/h (2 Bft)
12.01.2024 16:39 22,2 °C 0,1 °C 43 % 90 % 1028,0 hPa 0,0 l/m² 6,3 km/h (2 Bft) S-SW 209 ° 0 min 0 W/m² -1,3 °C 0,1 °C 9,7 km/h (2 Bft)
12.01.2024 16:41 22,2 °C 0,1 °C 42 % 90 % 1028,0 hPa 0,0 l/m² 6,8 km/h (2 Bft) S-SW 211 ° 0 min 0 W/m² -1,3 °C -0,3 °C 9,7 km/h (2 Bft)
12.01.2024 16:42 22,2 °C 0,0 °C 42 % 90 % 1028,0 hPa 0,0 l/m² 5,5 km/h (2 Bft) S-SW 205 ° 0 min 0 W/m² -1,4 °C 0,0 °C 8,0 km/h (2 Bft)
12.01.2024 16:44 22,1 °C -0,1 °C 42 % 90 % 1028,0 hPa 0,0 l/m² 5,1 km/h (1 Bft) S-SW 210 ° 0 min 0 W/m² -1,5 °C -0,1 °C 8,0 km/h (2 Bft)
12.01.2024 16:46 22,1 °C -0,2 °C 42 % 90 % 1028,1 hPa 0,0 l/m² 5,3 km/h (1 Bft) SW 222 ° 0 min 0 W/m² -1,6 °C -0,2 °C 8,0 km/h (2 Bft)
12.01.2024 16:48 22,1 °C -0,2 °C 43 % 90 % 1028,1 hPa 0,0 l/m² 5,4 km/h (2 Bft) SW 214 ° 0 min 0 W/m² -1,6 °C -0,2 °C 8,0 km/h (2 Bft)
12.01.2024 16:50 22,1 °C -0,2 °C 43 % 91 % 1028,1 hPa 0,0 l/m² 5,6 km/h (2 Bft) SW 231 ° 0 min 0 W/m² -1,5 °C -0,2 °C 8,0 km/h (2 Bft)
12.01.2024 16:52 22,1 °C -0,2 °C 43 % 91 % 1028,1 hPa 0,0 l/m² 7,2 km/h (2 Bft) SW 222 ° 0 min 0 W/m² -1,5 °C -1,0 °C 11,3 km/h (2 Bft)
12.01.2024 16:53 22,1 °C -0,2 °C 43 % 91 % 1028,1 hPa 0,0 l/m² 8,0 km/h (2 Bft) SW 229 ° 0 min 0 W/m² -1,5 °C -1,9 °C 11,3 km/h (2 Bft)
12.01.2024 16:55 22,1 °C -0,3 °C 43 % 91 % 1028,2 hPa 0,0 l/m² 8,2 km/h (2 Bft) SW 229 ° 0 min 0 W/m² -1,6 °C -2,2 °C 12,9 km/h (3 Bft)
12.01.2024 16:57 22,1 °C -0,3 °C 43 % 91 % 1028,2 hPa 0,0 l/m² 6,8 km/h (2 Bft) W-SW 238 ° 0 min 0 W/m² -1,6 °C -0,7 °C 11,3 km/h (2 Bft)
12.01.2024 16:59 22,1 °C -0,3 °C 43 % 91 % 1028,3 hPa 0,0 l/m² 5,7 km/h (2 Bft) SW 219 ° 0 min 0 W/m² -1,6 °C -0,3 °C 9,7 km/h (2 Bft)
12.01.2024 17:01 22,1 °C -0,2 °C 43 % 91 % 1028,4 hPa 0,0 l/m² 5,5 km/h (2 Bft) SW 226 ° 0 min 0 W/m² -1,5 °C -0,2 °C 8,0 km/h (2 Bft)
12.01.2024 17:02 22,1 °C -0,2 °C 43 % 91 % 1028,4 hPa 0,0 l/m² 7,2 km/h (2 Bft) SW 234 ° 0 min 0 W/m² -1,5 °C -1,0 °C 9,7 km/h (2 Bft)
12.01.2024 17:04 22,1 °C -0,2 °C 43 % 91 % 1028,4 hPa 0,0 l/m² 6,8 km/h (2 Bft) SW 215 ° 0 min 0 W/m² -1,5 °C -0,6 °C 9,7 km/h (2 Bft)
12.01.2024 17:06 22,1 °C -0,2 °C 43 % 91 % 1028,5 hPa 0,0 l/m² 4,5 km/h (1 Bft) SW 225 ° 0 min 0 W/m² -1,5 °C -0,2 °C 8,0 km/h (2 Bft)
12.01.2024 17:08 22,1 °C -0,2 °C 43 % 91 % 1028,5 hPa 0,0 l/m² 4,0 km/h (1 Bft) SW 232 ° 0 min 0 W/m² -1,5 °C -0,2 °C 8,0 km/h (2 Bft)
12.01.2024 17:10 22,1 °C -0,1 °C 42 % 91 % 1028,5 hPa 0,0 l/m² 2,7 km/h (1 Bft) SW 227 ° 0 min 0 W/m² -1,4 °C -0,1 °C 4,8 km/h (1 Bft)
12.01.2024 17:12 22,1 °C -0,1 °C 43 % 92 % 1028,4 hPa 0,0 l/m² 2,0 km/h (1 Bft) SW 224 ° 0 min 0 W/m² -1,2 °C -0,1 °C 6,4 km/h (2 Bft)
12.01.2024 17:13 22,1 °C -0,1 °C 43 % 92 % 1028,4 hPa 0,0 l/m² 5,6 km/h (2 Bft) SW 235 ° 0 min 0 W/m² -1,2 °C -0,1 °C 8,0 km/h (2 Bft)
12.01.2024 17:15 22,1 °C -0,1 °C 43 % 91 % 1028,3 hPa 0,0 l/m² 2,7 km/h (1 Bft) SW 225 ° 0 min 0 W/m² -1,4 °C -0,1 °C 6,4 km/h (2 Bft)
12.01.2024 17:17 22,1 °C -0,1 °C 43 % 91 % 1028,2 hPa 0,0 l/m² 1,8 km/h (1 Bft) SW 222 ° 0 min 0 W/m² -1,4 °C -0,1 °C 4,8 km/h (1 Bft)
12.01.2024 17:19 22,1 °C -0,1 °C 43 % 91 % 1028,3 hPa 0,0 l/m² 4,2 km/h (1 Bft) SW 223 ° 0 min 0 W/m² -1,4 °C -0,1 °C 6,4 km/h (2 Bft)
12.01.2024 17:21 22,1 °C -0,1 °C 43 % 91 % 1028,3 hPa 0,0 l/m² 2,2 km/h (1 Bft) SW 223 ° 0 min 0 W/m² -1,4 °C -0,1 °C 6,4 km/h (2 Bft)
12.01.2024 17:22 22,1 °C -0,1 °C 43 % 92 % 1028,3 hPa 0,0 l/m² 1,2 km/h (1 Bft) SW 218 ° 0 min 0 W/m² -1,2 °C -0,1 °C 1,6 km/h (1 Bft)
12.01.2024 17:24 22,1 °C -0,1 °C 43 % 92 % 1028,3 hPa 0,0 l/m² 4,2 km/h (1 Bft) SW 216 ° 0 min 0 W/m² -1,2 °C -0,1 °C 6,4 km/h (2 Bft)
12.01.2024 17:26 22,1 °C -0,1 °C 43 % 92 % 1028,3 hPa 0,0 l/m² 5,9 km/h (2 Bft) SW 232 ° 0 min 0 W/m² -1,2 °C -0,1 °C 9,7 km/h (2 Bft)
12.01.2024 17:28 22,1 °C -0,1 °C 43 % 92 % 1028,3 hPa 0,0 l/m² 8,7 km/h (2 Bft) SW 215 ° 0 min 0 W/m² -1,2 °C -2,4 °C 12,9 km/h (3 Bft)
12.01.2024 17:30 22,1 °C -0,1 °C 43 % 92 % 1028,3 hPa 0,0 l/m² 8,6 km/h (2 Bft) SW 214 ° 0 min 0 W/m² -1,2 °C -2,3 °C 14,5 km/h (3 Bft)
12.01.2024 17:32 22,1 °C 0,0 °C 43 % 92 % 1028,3 hPa 0,0 l/m² 7,1 km/h (2 Bft) SW 221 ° 0 min 0 W/m² -1,1 °C -0,7 °C 11,3 km/h (2 Bft)
12.01.2024 17:33 22,1 °C 0,0 °C 43 % 92 % 1028,3 hPa 0,0 l/m² 4,6 km/h (1 Bft) SW 224 ° 0 min 0 W/m² -1,1 °C 0,0 °C 6,4 km/h (2 Bft)
12.01.2024 17:35 22,1 °C 0,0 °C 43 % 92 % 1028,3 hPa 0,0 l/m² 4,8 km/h (1 Bft) SW 229 ° 0 min 0 W/m² -1,1 °C 0,0 °C 9,7 km/h (2 Bft)
12.01.2024 17:37 22,1 °C 0,0 °C 43 % 92 % 1028,3 hPa 0,0 l/m² 4,2 km/h (1 Bft) SW 219 ° 0 min 0 W/m² -1,1 °C 0,0 °C 8,0 km/h (2 Bft)
12.01.2024 17:39 22,1 °C 0,1 °C 43 % 92 % 1028,3 hPa 0,0 l/m² 6,0 km/h (2 Bft) SW 222 ° 0 min 0 W/m² -1,0 °C 0,1 °C 9,7 km/h (2 Bft)
12.01.2024 17:41 22,1 °C 0,1 °C 43 % 92 % 1028,3 hPa 0,0 l/m² 3,5 km/h (1 Bft) SW 226 ° 0 min 0 W/m² -1,0 °C 0,1 °C 8,0 km/h (2 Bft)
12.01.2024 17:42 22,1 °C 0,1 °C 43 % 92 % 1028,3 hPa 0,0 l/m² 3,0 km/h (1 Bft) SW 235 ° 0 min 0 W/m² -1,0 °C 0,1 °C 8,0 km/h (2 Bft)
12.01.2024 17:44 22,2 °C 0,1 °C 43 % 92 % 1028,3 hPa 0,0 l/m² 2,1 km/h (1 Bft) SW 233 ° 0 min 0 W/m² -1,0 °C 0,1 °C 4,8 km/h (1 Bft)
12.01.2024 17:46 22,2 °C 0,1 °C 43 % 92 % 1028,4 hPa 0,0 l/m² 0,0 km/h (0 Bft) SW 232 ° 0 min 0 W/m² -1,0 °C 0,1 °C 0,0 km/h (0 Bft)
12.01.2024 17:48 22,2 °C 0,1 °C 43 % 92 % 1028,4 hPa 0,0 l/m² 0,2 km/h (0 Bft) SW 225 ° 0 min 0 W/m² -1,0 °C 0,1 °C 1,6 km/h (1 Bft)
12.01.2024 17:50 22,2 °C 0,1 °C 43 % 92 % 1028,3 hPa 0,0 l/m² 0,7 km/h (0 Bft) W 261 ° 0 min 0 W/m² -1,0 °C 0,1 °C 4,8 km/h (1 Bft)
12.01.2024 17:52 22,2 °C 0,1 °C 43 % 92 % 1028,2 hPa 0,0 l/m² 1,4 km/h (1 Bft) SW 233 ° 0 min 0 W/m² -1,0 °C 0,1 °C 4,8 km/h (1 Bft)
12.01.2024 17:53 22,2 °C 0,1 °C 43 % 92 % 1028,2 hPa 0,0 l/m² 0,5 km/h (0 Bft) SW 234 ° 0 min 0 W/m² -1,0 °C 0,1 °C 3,2 km/h (1 Bft)
12.01.2024 17:55 22,2 °C 0,1 °C 43 % 92 % 1028,2 hPa 0,0 l/m² 0,8 km/h (0 Bft) W-SW 238 ° 0 min 0 W/m² -1,0 °C 0,1 °C 6,4 km/h (2 Bft)
12.01.2024 17:57 22,2 °C 0,2 °C 43 % 92 % 1028,1 hPa 0,0 l/m² 1,8 km/h (1 Bft) W-SW 240 ° 0 min 0 W/m² -0,9 °C 0,2 °C 4,8 km/h (1 Bft)
12.01.2024 17:59 22,2 °C 0,2 °C 44 % 91 % 1028,2 hPa 0,0 l/m² 3,8 km/h (1 Bft) W-SW 240 ° 0 min 0 W/m² -1,1 °C 0,2 °C 9,7 km/h (2 Bft)
12.01.2024 18:01 22,2 °C 0,2 °C 44 % 91 % 1028,1 hPa 0,0 l/m² 0,5 km/h (0 Bft) SW 214 ° 0 min 0 W/m² -1,1 °C 0,2 °C 3,2 km/h (1 Bft)
12.01.2024 18:02 22,2 °C 0,2 °C 44 % 92 % 1028,1 hPa 0,0 l/m² 1,8 km/h (1 Bft) W-SW 239 ° 0 min 0 W/m² -0,9 °C 0,2 °C 4,8 km/h (1 Bft)
12.01.2024 18:04 22,2 °C 0,2 °C 44 % 92 % 1028,0 hPa 0,0 l/m² 0,7 km/h (0 Bft) W-SW 242 ° 0 min 0 W/m² -0,9 °C 0,2 °C 4,8 km/h (1 Bft)
12.01.2024 18:06 22,2 °C 0,2 °C 44 % 92 % 1028,0 hPa 0,0 l/m² 0,0 km/h (0 Bft) W-SW 242 ° 0 min 0 W/m² -0,9 °C 0,2 °C 0,0 km/h (0 Bft)
12.01.2024 18:08 22,2 °C 0,2 °C 44 % 91 % 1028,1 hPa 0,0 l/m² 0,1 km/h (0 Bft) SW 221 ° 0 min 0 W/m² -1,1 °C 0,2 °C 1,6 km/h (1 Bft)
12.01.2024 18:10 22,2 °C 0,3 °C 44 % 91 % 1028,0 hPa 0,0 l/m² 1,7 km/h (1 Bft) SW 217 ° 0 min 0 W/m² -1,0 °C 0,3 °C 6,4 km/h (2 Bft)
12.01.2024 18:12 22,2 °C 0,3 °C 44 % 91 % 1028,1 hPa 0,0 l/m² 0,4 km/h (0 Bft) SW 229 ° 0 min 0 W/m² -1,0 °C 0,3 °C 3,2 km/h (1 Bft)
12.01.2024 18:13 22,2 °C 0,2 °C 44 % 91 % 1028,1 hPa 0,0 l/m² 1,6 km/h (1 Bft) SW 222 ° 0 min 0 W/m² -1,1 °C 0,2 °C 3,2 km/h (1 Bft)
12.01.2024 18:15 22,2 °C 0,3 °C 44 % 91 % 1028,0 hPa 0,0 l/m² 3,5 km/h (1 Bft) W-SW 254 ° 0 min 0 W/m² -1,0 °C 0,3 °C 9,7 km/h (2 Bft)
12.01.2024 18:17 22,2 °C 0,3 °C 44 % 91 % 1028,1 hPa 0,0 l/m² 4,1 km/h (1 Bft) SW 233 ° 0 min 0 W/m² -1,0 °C 0,3 °C 8,0 km/h (2 Bft)
12.01.2024 18:19 22,2 °C 0,3 °C 44 % 91 % 1028,0 hPa 0,0 l/m² 6,0 km/h (2 Bft) SW 223 ° 0 min 0 W/m² -1,0 °C 0,3 °C 12,9 km/h (3 Bft)
12.01.2024 18:21 22,2 °C 0,3 °C 44 % 91 % 1028,0 hPa 0,0 l/m² 6,0 km/h (2 Bft) SW 234 ° 0 min 0 W/m² -1,0 °C 0,3 °C 9,7 km/h (2 Bft)
12.01.2024 18:22 22,2 °C 0,2 °C 44 % 91 % 1028,0 hPa 0,0 l/m² 7,1 km/h (2 Bft) S-SW 211 ° 0 min 0 W/m² -1,1 °C -0,5 °C 11,3 km/h (2 Bft)
12.01.2024 18:24 22,2 °C 0,3 °C 44 % 91 % 1028,0 hPa 0,0 l/m² 5,0 km/h (1 Bft) SW 223 ° 0 min 0 W/m² -1,0 °C 0,3 °C 8,0 km/h (2 Bft)
12.01.2024 18:26 22,2 °C 0,3 °C 44 % 91 % 1028,0 hPa 0,0 l/m² 5,7 km/h (2 Bft) S-SW 209 ° 0 min 0 W/m² -1,0 °C 0,3 °C 9,7 km/h (2 Bft)
12.01.2024 18:28 22,2 °C 0,2 °C 44 % 91 % 1027,9 hPa 0,0 l/m² 6,9 km/h (2 Bft) SW 220 ° 0 min 0 W/m² -1,1 °C -0,3 °C 11,3 km/h (2 Bft)
12.01.2024 18:30 22,2 °C 0,2 °C 44 % 91 % 1027,9 hPa 0,0 l/m² 5,9 km/h (2 Bft) W-SW 245 ° 0 min 0 W/m² -1,1 °C 0,2 °C 9,7 km/h (2 Bft)
12.01.2024 18:32 22,2 °C 0,3 °C 44 % 91 % 1027,9 hPa 0,0 l/m² 9,3 km/h (2 Bft) W-SW 238 ° 0 min 0 W/m² -1,0 °C -2,5 °C 16,1 km/h (3 Bft)
12.01.2024 18:33 22,2 °C 0,3 °C 44 % 91 % 1027,9 hPa 0,0 l/m² 7,4 km/h (2 Bft) W-SW 246 ° 0 min 0 W/m² -1,0 °C -0,7 °C 9,7 km/h (2 Bft)
12.01.2024 18:35 22,2 °C 0,3 °C 44 % 91 % 1028,0 hPa 0,0 l/m² 4,1 km/h (1 Bft) SW 229 ° 0 min 0 W/m² -1,0 °C 0,3 °C 9,7 km/h (2 Bft)
12.01.2024 18:37 22,2 °C 0,3 °C 44 % 91 % 1028,0 hPa 0,0 l/m² 3,5 km/h (1 Bft) W-SW 246 ° 0 min 0 W/m² -1,0 °C 0,3 °C 8,0 km/h (2 Bft)
12.01.2024 18:39 22,2 °C 0,3 °C 44 % 91 % 1028,0 hPa 0,0 l/m² 9,5 km/h (2 Bft) SW 235 ° 0 min 0 W/m² -1,0 °C -2,7 °C 17,7 km/h (3 Bft)
12.01.2024 18:41 22,2 °C 0,3 °C 44 % 91 % 1027,9 hPa 0,0 l/m² 9,6 km/h (2 Bft) S-SW 207 ° 0 min 0 W/m² -1,0 °C -2,8 °C 16,1 km/h (3 Bft)
12.01.2024 18:42 22,2 °C 0,3 °C 44 % 91 % 1027,9 hPa 0,0 l/m² 13,4 km/h (3 Bft) SW 227 ° 0 min 0 W/m² -1,0 °C -5,6 °C 17,7 km/h (3 Bft)
12.01.2024 18:44 22,2 °C 0,3 °C 44 % 91 % 1027,8 hPa 0,0 l/m² 6,5 km/h (2 Bft) SW 233 ° 0 min 0 W/m² -1,0 °C 0,2 °C 11,3 km/h (2 Bft)
12.01.2024 18:47 22,2 °C 0,3 °C 44 % 91 % 1027,8 hPa 0,0 l/m² 8,0 km/h (2 Bft) W-SW 253 ° 0 min 0 W/m² -1,0 °C -1,3 °C 12,9 km/h (3 Bft)
12.01.2024 18:49 22,2 °C 0,3 °C 44 % 91 % 1027,8 hPa 0,0 l/m² 10,8 km/h (2 Bft) SW 216 ° 0 min 0 W/m² -1,0 °C -3,8 °C 16,1 km/h (3 Bft)
12.01.2024 18:51 22,2 °C 0,3 °C 44 % 91 % 1027,9 hPa 0,0 l/m² 13,1 km/h (3 Bft) SW 215 ° 0 min 0 W/m² -1,0 °C -5,4 °C 19,3 km/h (3 Bft)
12.01.2024 18:52 22,2 °C 0,3 °C 44 % 91 % 1027,9 hPa 0,0 l/m² 11,4 km/h (2 Bft) SW 234 ° 0 min 0 W/m² -1,0 °C -4,2 °C 16,1 km/h (3 Bft)
12.01.2024 18:54 22,2 °C 0,3 °C 44 % 91 % 1027,9 hPa 0,0 l/m² 8,7 km/h (2 Bft) SW 224 ° 0 min 0 W/m² -1,0 °C -2,0 °C 14,5 km/h (3 Bft)
12.01.2024 18:56 22,2 °C 0,3 °C 44 % 91 % 1027,8 hPa 0,0 l/m² 10,9 km/h (2 Bft) S-SW 207 ° 0 min 0 W/m² -1,0 °C -3,8 °C 17,7 km/h (3 Bft)
12.01.2024 18:58 22,2 °C 0,3 °C 44 % 91 % 1027,8 hPa 0,0 l/m² 11,3 km/h (2 Bft) SW 227 ° 0 min 0 W/m² -1,0 °C -4,1 °C 17,7 km/h (3 Bft)
12.01.2024 19:00 22,2 °C 0,3 °C 44 % 91 % 1027,8 hPa 0,0 l/m² 7,5 km/h (2 Bft) W-SW 252 ° 0 min 0 W/m² -1,0 °C -0,8 °C 11,3 km/h (2 Bft)
12.01.2024 19:02 22,2 °C 0,3 °C 44 % 91 % 1027,8 hPa 0,0 l/m² 6,7 km/h (2 Bft) SW 227 ° 0 min 0 W/m² -1,0 °C 0,0 °C 12,9 km/h (3 Bft)
12.01.2024 19:03 22,2 °C 0,3 °C 44 % 91 % 1027,8 hPa 0,0 l/m² 9,9 km/h (2 Bft) SW 227 ° 0 min 0 W/m² -1,0 °C -3,0 °C 12,9 km/h (3 Bft)
12.01.2024 19:05 22,2 °C 0,3 °C 44 % 91 % 1027,8 hPa 0,0 l/m² 9,4 km/h (2 Bft) SW 234 ° 0 min 0 W/m² -1,0 °C -2,6 °C 14,5 km/h (3 Bft)
12.01.2024 19:07 22,2 °C 0,3 °C 44 % 91 % 1027,7 hPa 0,0 l/m² 8,9 km/h (2 Bft) W-SW 244 ° 0 min 0 W/m² -1,0 °C -2,2 °C 14,5 km/h (3 Bft)
12.01.2024 19:09 22,2 °C 0,3 °C 44 % 91 % 1027,7 hPa 0,0 l/m² 11,5 km/h (2 Bft) SW 227 ° 0 min 0 W/m² -1,0 °C -4,3 °C 17,7 km/h (3 Bft)
12.01.2024 19:11 22,2 °C 0,3 °C 44 % 91 % 1027,7 hPa 0,0 l/m² 9,6 km/h (2 Bft) W-SW 247 ° 0 min 0 W/m² -1,0 °C -2,8 °C 14,5 km/h (3 Bft)
12.01.2024 19:12 22,2 °C 0,3 °C 44 % 91 % 1027,7 hPa 0,0 l/m² 9,4 km/h (2 Bft) SW 228 ° 0 min 0 W/m² -1,0 °C -2,6 °C 11,3 km/h (2 Bft)
12.01.2024 19:14 22,2 °C 0,3 °C 44 % 91 % 1027,6 hPa 0,0 l/m² 14,8 km/h (3 Bft) SW 217 ° 0 min 0 W/m² -1,0 °C -6,5 °C 19,3 km/h (3 Bft)
12.01.2024 19:16 22,2 °C 0,3 °C 44 % 91 % 1027,6 hPa 0,0 l/m² 12,5 km/h (2 Bft) SW 234 ° 0 min 0 W/m² -1,0 °C -5,0 °C 17,7 km/h (3 Bft)
12.01.2024 19:18 22,2 °C 0,3 °C 44 % 91 % 1027,6 hPa 0,0 l/m² 9,7 km/h (2 Bft) W-SW 239 ° 0 min 0 W/m² -1,0 °C -2,9 °C 17,7 km/h (3 Bft)
12.01.2024 19:20 22,2 °C 0,3 °C 44 % 91 % 1027,6 hPa 0,0 l/m² 10,8 km/h (2 Bft) SW 226 ° 0 min 0 W/m² -1,0 °C -3,8 °C 16,1 km/h (3 Bft)
12.01.2024 19:22 22,2 °C 0,3 °C 44 % 91 % 1027,5 hPa 0,0 l/m² 8,5 km/h (2 Bft) SW 217 ° 0 min 0 W/m² -1,0 °C -1,8 °C 12,9 km/h (3 Bft)
12.01.2024 19:23 22,2 °C 0,3 °C 44 % 91 % 1027,5 hPa 0,0 l/m² 14,3 km/h (3 Bft) SW 223 ° 0 min 0 W/m² -1,0 °C -6,2 °C 17,7 km/h (3 Bft)
12.01.2024 19:25 22,2 °C 0,3 °C 44 % 91 % 1027,5 hPa 0,0 l/m² 3,9 km/h (1 Bft) SW 229 ° 0 min 0 W/m² -1,0 °C 0,3 °C 16,1 km/h (3 Bft)
12.01.2024 19:27 22,3 °C 0,3 °C 44 % 91 % 1027,5 hPa 0,0 l/m² 6,4 km/h (2 Bft) S-SW 196 ° 0 min 0 W/m² -1,0 °C 0,3 °C 11,3 km/h (2 Bft)
12.01.2024 19:29 22,3 °C 0,2 °C 44 % 91 % 1027,5 hPa 0,0 l/m² 10,6 km/h (2 Bft) SW 234 ° 0 min 0 W/m² -1,1 °C -3,7 °C 17,7 km/h (3 Bft)
12.01.2024 19:31 22,2 °C 0,3 °C 44 % 91 % 1027,5 hPa 0,0 l/m² 12,2 km/h (2 Bft) W-SW 243 ° 0 min 0 W/m² -1,0 °C -4,8 °C 19,3 km/h (3 Bft)
12.01.2024 19:32 22,2 °C 0,3 °C 44 % 91 % 1027,5 hPa 0,0 l/m² 11,4 km/h (2 Bft) SW 227 ° 0 min 0 W/m² -1,0 °C -4,2 °C 16,1 km/h (3 Bft)
12.01.2024 19:34 22,3 °C 0,3 °C 44 % 91 % 1027,5 hPa 0,0 l/m² 12,3 km/h (2 Bft) SW 223 ° 0 min 0 W/m² -1,0 °C -4,9 °C 19,3 km/h (3 Bft)
12.01.2024 19:36 22,3 °C 0,3 °C 44 % 91 % 1027,5 hPa 0,0 l/m² 14,0 km/h (3 Bft) W-SW 238 ° 0 min 0 W/m² -1,0 °C -6,0 °C 17,7 km/h (3 Bft)
12.01.2024 19:38 22,3 °C 0,3 °C 44 % 91 % 1027,5 hPa 0,0 l/m² 12,7 km/h (3 Bft) SW 231 ° 0 min 0 W/m² -1,0 °C -5,1 °C 19,3 km/h (3 Bft)
12.01.2024 19:40 22,3 °C 0,3 °C 44 % 91 % 1027,5 hPa 0,0 l/m² 14,4 km/h (3 Bft) SW 234 ° 0 min 0 W/m² -1,0 °C -6,3 °C 22,5 km/h (4 Bft)
12.01.2024 19:42 22,3 °C 0,3 °C 44 % 91 % 1027,5 hPa 0,0 l/m² 11,4 km/h (2 Bft) SW 214 ° 0 min 0 W/m² -1,0 °C -4,2 °C 17,7 km/h (3 Bft)
12.01.2024 19:43 22,3 °C 0,3 °C 44 % 91 % 1027,5 hPa 0,0 l/m² 12,4 km/h (2 Bft) W 263 ° 0 min 0 W/m² -1,0 °C -4,9 °C 20,9 km/h (4 Bft)
12.01.2024 19:45 22,3 °C 0,3 °C 44 % 91 % 1027,5 hPa 0,0 l/m² 13,3 km/h (3 Bft) SW 234 ° 0 min 0 W/m² -1,0 °C -5,6 °C 20,9 km/h (4 Bft)
12.01.2024 19:47 22,3 °C 0,3 °C 44 % 91 % 1027,6 hPa 0,0 l/m² 12,5 km/h (2 Bft) SW 223 ° 0 min 0 W/m² -1,0 °C -5,0 °C 22,5 km/h (4 Bft)
12.01.2024 19:49 22,3 °C 0,4 °C 44 % 91 % 1027,6 hPa 0,0 l/m² 14,0 km/h (3 Bft) W 262 ° 0 min 0 W/m² -0,9 °C -5,9 °C 22,5 km/h (4 Bft)
12.01.2024 19:51 22,3 °C 0,4 °C 44 % 91 % 1027,6 hPa 0,0 l/m² 12,5 km/h (2 Bft) W-SW 252 ° 0 min 0 W/m² -0,9 °C -4,9 °C 19,3 km/h (3 Bft)
12.01.2024 19:52 22,3 °C 0,4 °C 44 % 91 % 1027,6 hPa 0,0 l/m² 16,4 km/h (3 Bft) W-SW 244 ° 0 min 0 W/m² -0,9 °C -7,3 °C 20,9 km/h (4 Bft)
12.01.2024 19:54 22,3 °C 0,4 °C 44 % 91 % 1027,6 hPa 0,0 l/m² 12,0 km/h (2 Bft) W-SW 239 ° 0 min 0 W/m² -0,9 °C -4,5 °C 19,3 km/h (3 Bft)
12.01.2024 19:56 22,3 °C 0,4 °C 44 % 91 % 1027,6 hPa 0,0 l/m² 13,5 km/h (3 Bft) SW 221 ° 0 min 0 W/m² -0,9 °C -5,6 °C 19,3 km/h (3 Bft)
12.01.2024 19:58 22,3 °C 0,4 °C 44 % 91 % 1027,6 hPa 0,0 l/m² 11,8 km/h (2 Bft) SW 225 ° 0 min 0 W/m² -0,9 °C -4,4 °C 20,9 km/h (4 Bft)
12.01.2024 20:00 22,3 °C 0,4 °C 44 % 91 % 1027,6 hPa 0,0 l/m² 12,9 km/h (3 Bft) SW 221 ° 0 min 0 W/m² -0,9 °C -5,2 °C 19,3 km/h (3 Bft)
12.01.2024 20:02 22,3 °C 0,4 °C 44 % 90 % 1027,6 hPa 0,0 l/m² 10,0 km/h (2 Bft) SW 221 ° 0 min 0 W/m² -1,0 °C -3,0 °C 14,5 km/h (3 Bft)
12.01.2024 20:03 22,3 °C 0,4 °C 44 % 90 % 1027,6 hPa 0,0 l/m² 10,3 km/h (2 Bft) S-SW 213 ° 0 min 0 W/m² -1,0 °C -3,3 °C 12,9 km/h (3 Bft)
12.01.2024 20:05 22,3 °C 0,4 °C 44 % 90 % 1027,5 hPa 0,0 l/m² 14,3 km/h (3 Bft) W-SW 244 ° 0 min 0 W/m² -1,0 °C -6,1 °C 22,5 km/h (4 Bft)
12.01.2024 20:07 22,3 °C 0,4 °C 44 % 90 % 1027,5 hPa 0,0 l/m² 16,1 km/h (3 Bft) SW 220 ° 0 min 0 W/m² -1,0 °C -7,1 °C 24,1 km/h (4 Bft)
12.01.2024 20:09 22,3 °C 0,4 °C 44 % 90 % 1027,5 hPa 0,0 l/m² 15,1 km/h (3 Bft) SW 227 ° 0 min 0 W/m² -1,0 °C -6,6 °C 24,1 km/h (4 Bft)
12.01.2024 20:11 22,3 °C 0,4 °C 44 % 90 % 1027,5 hPa 0,0 l/m² 12,1 km/h (2 Bft) W-SW 246 ° 0 min 0 W/m² -1,0 °C -4,6 °C 19,3 km/h (3 Bft)
12.01.2024 20:12 22,3 °C 0,4 °C 44 % 90 % 1027,5 hPa 0,0 l/m² 14,7 km/h (3 Bft) SW 232 ° 0 min 0 W/m² -1,0 °C -6,3 °C 24,1 km/h (4 Bft)
12.01.2024 20:14 22,3 °C 0,4 °C 44 % 90 % 1027,6 hPa 0,0 l/m² 13,0 km/h (3 Bft) S-SW 212 ° 0 min 0 W/m² -1,0 °C -5,2 °C 22,5 km/h (4 Bft)
12.01.2024 20:16 22,4 °C 0,4 °C 44 % 90 % 1027,5 hPa 0,0 l/m² 12,7 km/h (3 Bft) SW 228 ° 0 min 0 W/m² -1,0 °C -5,0 °C 17,7 km/h (3 Bft)
12.01.2024 20:18 22,4 °C 0,4 °C 44 % 90 % 1027,5 hPa 0,0 l/m² 11,2 km/h (2 Bft) SW 225 ° 0 min 0 W/m² -1,0 °C -4,0 °C 17,7 km/h (3 Bft)
12.01.2024 20:20 22,4 °C 0,4 °C 44 % 90 % 1027,4 hPa 0,0 l/m² 14,6 km/h (3 Bft) S-SW 197 ° 0 min 0 W/m² -1,0 °C -6,3 °C 20,9 km/h (4 Bft)
12.01.2024 20:22 22,4 °C 0,4 °C 44 % 90 % 1027,2 hPa 0,0 l/m² 15,2 km/h (3 Bft) W-SW 246 ° 0 min 0 W/m² -1,0 °C -6,6 °C 20,9 km/h (4 Bft)
12.01.2024 20:23 22,4 °C 0,4 °C 44 % 90 % 1027,2 hPa 0,0 l/m² 15,3 km/h (3 Bft) SW 216 ° 0 min 0 W/m² -1,0 °C -6,7 °C 19,3 km/h (3 Bft)
12.01.2024 20:25 22,4 °C 0,4 °C 44 % 90 % 1027,2 hPa 0,0 l/m² 16,5 km/h (3 Bft) SW 221 ° 0 min 0 W/m² -1,0 °C -7,4 °C 24,1 km/h (4 Bft)
12.01.2024 20:27 22,4 °C 0,4 °C 44 % 90 % 1027,2 hPa 0,0 l/m² 13,8 km/h (3 Bft) SW 219 ° 0 min 0 W/m² -1,0 °C -5,8 °C 19,3 km/h (3 Bft)
12.01.2024 20:29 22,4 °C 0,4 °C 44 % 90 % 1027,3 hPa 0,0 l/m² 16,1 km/h (3 Bft) SW 224 ° 0 min 0 W/m² -1,0 °C -7,1 °C 22,5 km/h (4 Bft)
12.01.2024 20:31 22,4 °C 0,4 °C 44 % 90 % 1027,3 hPa 0,0 l/m² 14,8 km/h (3 Bft) SW 221 ° 0 min 0 W/m² -1,0 °C -6,4 °C 20,9 km/h (4 Bft)
12.01.2024 20:32 22,4 °C 0,4 °C 44 % 90 % 1027,3 hPa 0,0 l/m² 13,2 km/h (3 Bft) W-SW 238 ° 0 min 0 W/m² -1,0 °C -5,4 °C 20,9 km/h (4 Bft)
12.01.2024 20:34 22,4 °C 0,4 °C 44 % 90 % 1027,3 hPa 0,0 l/m² 15,7 km/h (3 Bft) SW 229 ° 0 min 0 W/m² -1,0 °C -6,9 °C 22,5 km/h (4 Bft)
12.01.2024 20:36 22,4 °C 0,4 °C 44 % 90 % 1027,2 hPa 0,0 l/m² 14,0 km/h (3 Bft) W-SW 238 ° 0 min 0 W/m² -1,0 °C -5,9 °C 19,3 km/h (3 Bft)
12.01.2024 20:38 22,4 °C 0,4 °C 44 % 90 % 1027,3 hPa 0,0 l/m² 14,3 km/h (3 Bft) SW 229 ° 0 min 0 W/m² -1,0 °C -6,1 °C 19,3 km/h (3 Bft)
12.01.2024 20:40 22,4 °C 0,4 °C 44 % 90 % 1027,2 hPa 0,0 l/m² 16,2 km/h (3 Bft) SW 231 ° 0 min 0 W/m² -1,0 °C -7,2 °C 20,9 km/h (4 Bft)
12.01.2024 20:42 22,4 °C 0,4 °C 44 % 90 % 1027,2 hPa 0,0 l/m² 17,0 km/h (3 Bft) W-SW 245 ° 0 min 0 W/m² -1,0 °C -7,6 °C 22,5 km/h (4 Bft)
12.01.2024 20:43 22,4 °C 0,4 °C 44 % 90 % 1027,2 hPa 0,0 l/m² 12,3 km/h (2 Bft) SW 235 ° 0 min 0 W/m² -1,0 °C -4,8 °C 19,3 km/h (3 Bft)
12.01.2024 20:45 22,4 °C 0,4 °C 44 % 90 % 1027,1 hPa 0,0 l/m² 10,6 km/h (2 Bft) SW 220 ° 0 min 0 W/m² -1,0 °C -3,5 °C 17,7 km/h (3 Bft)
12.01.2024 20:47 22,5 °C 0,4 °C 44 % 90 % 1027,1 hPa 0,0 l/m² 13,9 km/h (3 Bft) SW 221 ° 0 min 0 W/m² -1,0 °C -5,8 °C 20,9 km/h (4 Bft)
12.01.2024 20:49 22,5 °C 0,4 °C 44 % 90 % 1027,1 hPa 0,0 l/m² 14,4 km/h (3 Bft) SW 227 ° 0 min 0 W/m² -1,0 °C -6,1 °C 22,5 km/h (4 Bft)
12.01.2024 20:51 22,6 °C 0,4 °C 44 % 90 % 1027,0 hPa 0,0 l/m² 14,1 km/h (3 Bft) W-SW 250 ° 0 min 0 W/m² -1,0 °C -5,9 °C 20,9 km/h (4 Bft)
12.01.2024 20:52 22,6 °C 0,4 °C 44 % 90 % 1027,0 hPa 0,0 l/m² 10,2 km/h (2 Bft) SW 228 ° 0 min 0 W/m² -1,0 °C -3,2 °C 14,5 km/h (3 Bft)
12.01.2024 20:54 22,6 °C 0,4 °C 44 % 90 % 1027,1 hPa 0,0 l/m² 12,9 km/h (3 Bft) W-SW 244 ° 0 min 0 W/m² -1,0 °C -5,2 °C 19,3 km/h (3 Bft)
12.01.2024 20:56 22,5 °C 0,4 °C 44 % 90 % 1027,0 hPa 0,0 l/m² 13,8 km/h (3 Bft) SW 234 ° 0 min 0 W/m² -1,0 °C -5,8 °C 19,3 km/h (3 Bft)
12.01.2024 20:58 22,6 °C 0,4 °C 44 % 90 % 1026,9 hPa 0,0 l/m² 10,6 km/h (2 Bft) SW 228 ° 0 min 0 W/m² -1,0 °C -3,5 °C 17,7 km/h (3 Bft)
12.01.2024 21:00 22,5 °C 0,4 °C 44 % 90 % 1026,9 hPa 0,0 l/m² 11,5 km/h (2 Bft) SW 223 ° 0 min 0 W/m² -1,0 °C -4,2 °C 17,7 km/h (3 Bft)
12.01.2024 21:02 22,6 °C 0,4 °C 44 % 90 % 1026,9 hPa 0,0 l/m² 14,1 km/h (3 Bft) W-SW 241 ° 0 min 0 W/m² -1,0 °C -5,9 °C 24,1 km/h (4 Bft)
12.01.2024 21:03 22,6 °C 0,4 °C 44 % 90 % 1026,9 hPa 0,0 l/m² 12,2 km/h (2 Bft) SW 221 ° 0 min 0 W/m² -1,0 °C -4,7 °C 16,1 km/h (3 Bft)
12.01.2024 21:04 22,6 °C 0,4 °C 44 % 90 % 1026,9 hPa 0,0 l/m² 9,3 km/h (2 Bft) SW 230 ° 0 min 0 W/m² -1,0 °C -2,4 °C 12,9 km/h (3 Bft)
12.01.2024 21:05 22,6 °C 0,4 °C 44 % 90 % 1026,9 hPa 0,0 l/m² 12,6 km/h (3 Bft) W-SW 238 ° 0 min 0 W/m² -1,0 °C -5,0 °C 20,9 km/h (4 Bft)
12.01.2024 21:07 22,6 °C 0,4 °C 44 % 90 % 1026,8 hPa 0,0 l/m² 13,0 km/h (3 Bft) W-SW 240 ° 0 min 0 W/m² -1,0 °C -5,2 °C 19,3 km/h (3 Bft)
12.01.2024 21:09 22,6 °C 0,4 °C 44 % 90 % 1026,9 hPa 0,0 l/m² 10,4 km/h (2 Bft) SW 222 ° 0 min 0 W/m² -1,0 °C -3,3 °C 16,1 km/h (3 Bft)
12.01.2024 21:11 22,6 °C 0,4 °C 44 % 90 % 1026,9 hPa 0,0 l/m² 12,7 km/h (3 Bft) SW 229 ° 0 min 0 W/m² -1,0 °C -5,0 °C 20,9 km/h (4 Bft)
12.01.2024 21:12 22,6 °C 0,4 °C 44 % 90 % 1026,9 hPa 0,0 l/m² 13,8 km/h (3 Bft) SW 232 ° 0 min 0 W/m² -1,0 °C -5,8 °C 17,7 km/h (3 Bft)
12.01.2024 21:13 22,6 °C 0,4 °C 44 % 90 % 1026,9 hPa 0,0 l/m² 13,3 km/h (3 Bft) SW 218 ° 0 min 0 W/m² -1,0 °C -5,4 °C 19,3 km/h (3 Bft)
12.01.2024 21:14 22,6 °C 0,4 °C 44 % 90 % 1026,9 hPa 0,0 l/m² 13,0 km/h (3 Bft) SW 232 ° 0 min 0 W/m² -1,0 °C -5,2 °C 17,7 km/h (3 Bft)
12.01.2024 21:16 22,6 °C 0,4 °C 44 % 90 % 1026,9 hPa 0,0 l/m² 13,5 km/h (3 Bft) W-SW 246 ° 0 min 0 W/m² -1,0 °C -5,6 °C 19,3 km/h (3 Bft)
12.01.2024 21:18 22,6 °C 0,4 °C 44 % 90 % 1026,8 hPa 0,0 l/m² 13,8 km/h (3 Bft) W-SW 247 ° 0 min 0 W/m² -1,0 °C -5,8 °C 19,3 km/h (3 Bft)
12.01.2024 21:20 22,6 °C 0,4 °C 44 % 90 % 1026,8 hPa 0,0 l/m² 10,4 km/h (2 Bft) SW 228 ° 0 min 0 W/m² -1,0 °C -3,3 °C 16,1 km/h (3 Bft)
12.01.2024 21:22 22,6 °C 0,4 °C 44 % 90 % 1027,0 hPa 0,0 l/m² 14,8 km/h (3 Bft) W-SW 244 ° 0 min 0 W/m² -1,0 °C -6,4 °C 22,5 km/h (4 Bft)
12.01.2024 21:23 22,6 °C 0,4 °C 44 % 90 % 1027,0 hPa 0,0 l/m² 15,4 km/h (3 Bft) W-SW 247 ° 0 min 0 W/m² -1,0 °C -6,7 °C 19,3 km/h (3 Bft)
12.01.2024 21:25 22,6 °C 0,4 °C 44 % 90 % 1026,9 hPa 0,0 l/m² 13,6 km/h (3 Bft) SW 227 ° 0 min 0 W/m² -1,0 °C -5,6 °C 19,3 km/h (3 Bft)
12.01.2024 21:27 22,6 °C 0,4 °C 44 % 90 % 1026,9 hPa 0,0 l/m² 15,0 km/h (3 Bft) W-SW 240 ° 0 min 0 W/m² -1,0 °C -6,5 °C 20,9 km/h (4 Bft)
12.01.2024 21:29 22,6 °C 0,4 °C 44 % 90 % 1026,9 hPa 0,0 l/m² 11,8 km/h (2 Bft) W-SW 253 ° 0 min 0 W/m² -1,0 °C -4,4 °C 19,3 km/h (3 Bft)
12.01.2024 21:31 22,7 °C 0,5 °C 44 % 90 % 1026,9 hPa 0,0 l/m² 14,8 km/h (3 Bft) SW 234 ° 0 min 0 W/m² -0,9 °C -6,3 °C 19,3 km/h (3 Bft)
12.01.2024 21:32 22,7 °C 0,5 °C 44 % 90 % 1026,9 hPa 0,0 l/m² 9,2 km/h (2 Bft) SW 227 ° 0 min 0 W/m² -0,9 °C -2,2 °C 12,9 km/h (3 Bft)
12.01.2024 21:34 22,7 °C 0,5 °C 44 % 90 % 1026,9 hPa 0,0 l/m² 9,6 km/h (2 Bft) SW 234 ° 0 min 0 W/m² -0,9 °C -2,6 °C 17,7 km/h (3 Bft)
12.01.2024 21:36 22,7 °C 0,5 °C 44 % 90 % 1026,9 hPa 0,0 l/m² 13,6 km/h (3 Bft) SW 232 ° 0 min 0 W/m² -0,9 °C -5,5 °C 19,3 km/h (3 Bft)
12.01.2024 21:38 22,7 °C 0,5 °C 44 % 90 % 1026,9 hPa 0,0 l/m² 12,8 km/h (3 Bft) W-SW 245 ° 0 min 0 W/m² -0,9 °C -5,0 °C 19,3 km/h (3 Bft)
12.01.2024 21:40 22,7 °C 0,5 °C 44 % 90 % 1026,9 hPa 0,0 l/m² 13,0 km/h (3 Bft) SW 230 ° 0 min 0 W/m² -0,9 °C -5,1 °C 19,3 km/h (3 Bft)
12.01.2024 21:42 22,7 °C 0,6 °C 44 % 90 % 1026,9 hPa 0,0 l/m² 14,1 km/h (3 Bft) SW 219 ° 0 min 0 W/m² -0,8 °C -5,7 °C 19,3 km/h (3 Bft)
12.01.2024 21:43 22,7 °C 0,6 °C 44 % 90 % 1026,9 hPa 0,0 l/m² 15,3 km/h (3 Bft) SW 227 ° 0 min 0 W/m² -0,8 °C -6,4 °C 25,7 km/h (4 Bft)
12.01.2024 21:46 22,7 °C 0,6 °C 44 % 90 % 1026,8 hPa 0,0 l/m² 14,3 km/h (3 Bft) SW 226 ° 0 min 0 W/m² -0,8 °C -5,8 °C 22,5 km/h (4 Bft)
12.01.2024 21:48 22,7 °C 0,6 °C 44 % 90 % 1026,7 hPa 0,0 l/m² 15,9 km/h (3 Bft) SW 220 ° 0 min 0 W/m² -0,8 °C -6,8 °C 27,4 km/h (5 Bft)
12.01.2024 21:50 22,7 °C 0,6 °C 44 % 90 % 1026,8 hPa 0,0 l/m² 12,8 km/h (3 Bft) W-SW 253 ° 0 min 0 W/m² -0,8 °C -4,9 °C 19,3 km/h (3 Bft)
12.01.2024 21:52 22,7 °C 0,6 °C 44 % 90 % 1026,7 hPa 0,0 l/m² 17,7 km/h (3 Bft) SW 232 ° 0 min 0 W/m² -0,8 °C -7,7 °C 27,4 km/h (5 Bft)
12.01.2024 21:53 22,7 °C 0,6 °C 44 % 90 % 1026,7 hPa 0,0 l/m² 22,1 km/h (4 Bft) SW 234 ° 0 min 0 W/m² -0,8 °C -9,8 °C 27,4 km/h (5 Bft)
12.01.2024 21:55 22,7 °C 0,6 °C 44 % 90 % 1026,6 hPa 0,0 l/m² 18,2 km/h (3 Bft) SW 225 ° 0 min 0 W/m² -0,8 °C -8,0 °C 25,7 km/h (4 Bft)
12.01.2024 21:57 22,7 °C 0,6 °C 44 % 90 % 1026,6 hPa 0,0 l/m² 17,9 km/h (3 Bft) SW 232 ° 0 min 0 W/m² -0,8 °C -7,8 °C 24,1 km/h (4 Bft)
12.01.2024 21:59 22,7 °C 0,7 °C 44 % 90 % 1026,6 hPa 0,0 l/m² 12,9 km/h (3 Bft) W-SW 238 ° 0 min 0 W/m² -0,7 °C -4,8 °C 22,5 km/h (4 Bft)
12.01.2024 22:01 22,7 °C 0,7 °C 44 % 90 % 1026,5 hPa 0,0 l/m² 13,7 km/h (3 Bft) SW 217 ° 0 min 0 W/m² -0,7 °C -5,3 °C 22,5 km/h (4 Bft)
12.01.2024 22:02 22,7 °C 0,6 °C 44 % 90 % 1026,5 hPa 0,0 l/m² 13,2 km/h (3 Bft) W-SW 240 ° 0 min 0 W/m² -0,8 °C -5,1 °C 16,1 km/h (3 Bft)
12.01.2024 22:04 22,7 °C 0,7 °C 44 % 90 % 1026,5 hPa 0,0 l/m² 13,7 km/h (3 Bft) S-SW 205 ° 0 min 0 W/m² -0,7 °C -5,3 °C 20,9 km/h (4 Bft)
12.01.2024 22:06 22,7 °C 0,7 °C 44 % 90 % 1026,4 hPa 0,0 l/m² 17,7 km/h (3 Bft) SW 228 ° 0 min 0 W/m² -0,7 °C -7,6 °C 27,4 km/h (5 Bft)
12.01.2024 22:08 22,7 °C 0,7 °C 44 % 90 % 1026,4 hPa 0,0 l/m² 16,1 km/h (3 Bft) SW 219 ° 0 min 0 W/m² -0,7 °C -6,8 °C 25,7 km/h (4 Bft)
12.01.2024 22:10 22,7 °C 0,7 °C 44 % 90 % 1026,4 hPa 0,0 l/m² 18,7 km/h (3 Bft) SW 215 ° 0 min 0 W/m² -0,7 °C -8,1 °C 27,4 km/h (5 Bft)
12.01.2024 22:12 22,7 °C 0,7 °C 44 % 90 % 1026,4 hPa 0,0 l/m² 17,0 km/h (3 Bft) S-SW 213 ° 0 min 0 W/m² -0,7 °C -7,3 °C 24,1 km/h (4 Bft)
12.01.2024 22:13 22,7 °C 0,7 °C 44 % 90 % 1026,4 hPa 0,0 l/m² 18,2 km/h (3 Bft) SW 222 ° 0 min 0 W/m² -0,7 °C -7,9 °C 20,9 km/h (4 Bft)
12.01.2024 22:15 22,7 °C 0,7 °C 44 % 90 % 1026,4 hPa 0,0 l/m² 15,4 km/h (3 Bft) SW 226 ° 0 min 0 W/m² -0,7 °C -6,4 °C 20,9 km/h (4 Bft)
12.01.2024 22:17 22,7 °C 0,7 °C 44 % 90 % 1026,3 hPa 0,0 l/m² 15,3 km/h (3 Bft) S-SW 212 ° 0 min 0 W/m² -0,7 °C -6,3 °C 24,1 km/h (4 Bft)
12.01.2024 22:19 22,7 °C 0,7 °C 44 % 90 % 1026,3 hPa 0,0 l/m² 17,6 km/h (3 Bft) SW 216 ° 0 min 0 W/m² -0,7 °C -7,6 °C 22,5 km/h (4 Bft)
12.01.2024 22:21 22,7 °C 0,7 °C 44 % 89 % 1026,3 hPa 0,0 l/m² 16,4 km/h (3 Bft) SW 225 ° 0 min 0 W/m² -0,9 °C -6,9 °C 22,5 km/h (4 Bft)
12.01.2024 22:22 22,7 °C 0,7 °C 44 % 89 % 1026,3 hPa 0,0 l/m² 14,3 km/h (3 Bft) SW 218 ° 0 min 0 W/m² -0,9 °C -5,7 °C 20,9 km/h (4 Bft)
12.01.2024 22:23 22,7 °C 0,7 °C 44 % 89 % 1026,2 hPa 0,0 l/m² 17,7 km/h (3 Bft) SW 231 ° 0 min 0 W/m² -0,9 °C -7,6 °C 22,5 km/h (4 Bft)
12.01.2024 22:24 22,7 °C 0,7 °C 44 % 89 % 1026,2 hPa 0,0 l/m² 16,8 km/h (3 Bft) SW 233 ° 0 min 0 W/m² -0,9 °C -7,1 °C 19,3 km/h (3 Bft)
12.01.2024 22:26 22,7 °C 0,7 °C 44 % 89 % 1026,2 hPa 0,0 l/m² 17,7 km/h (3 Bft) SW 217 ° 0 min 0 W/m² -0,9 °C -7,6 °C 27,4 km/h (5 Bft)
12.01.2024 22:28 22,7 °C 0,7 °C 44 % 90 % 1026,2 hPa 0,0 l/m² 17,3 km/h (3 Bft) SW 220 ° 0 min 0 W/m² -0,7 °C -7,4 °C 22,5 km/h (4 Bft)
12.01.2024 22:30 22,7 °C 0,7 °C 44 % 90 % 1026,3 hPa 0,0 l/m² 18,3 km/h (3 Bft) SW 216 ° 0 min 0 W/m² -0,7 °C -7,9 °C 25,7 km/h (4 Bft)
12.01.2024 22:32 22,7 °C 0,7 °C 44 % 90 % 1026,3 hPa 0,0 l/m² 16,8 km/h (3 Bft) W-SW 246 ° 0 min 0 W/m² -0,7 °C -7,1 °C 25,7 km/h (4 Bft)
12.01.2024 22:33 22,7 °C 0,7 °C 44 % 90 % 1026,3 hPa 0,0 l/m² 19,4 km/h (3 Bft) S-SW 198 ° 0 min 0 W/m² -0,7 °C -8,4 °C 25,7 km/h (4 Bft)
12.01.2024 22:34 22,7 °C 0,7 °C 44 % 90 % 1026,3 hPa 0,0 l/m² 17,4 km/h (3 Bft) S-SW 211 ° 0 min 0 W/m² -0,7 °C -7,5 °C 24,1 km/h (4 Bft)
12.01.2024 22:35 22,7 °C 0,7 °C 44 % 90 % 1026,3 hPa 0,0 l/m² 17,3 km/h (3 Bft) SW 220 ° 0 min 0 W/m² -0,7 °C -7,4 °C 24,1 km/h (4 Bft)
12.01.2024 22:37 22,7 °C 0,7 °C 44 % 89 % 1026,3 hPa 0,0 l/m² 16,1 km/h (3 Bft) SW 223 ° 0 min 0 W/m² -0,9 °C -6,8 °C 24,1 km/h (4 Bft)
12.01.2024 22:39 22,7 °C 0,8 °C 44 % 90 % 1026,3 hPa 0,0 l/m² 15,1 km/h (3 Bft) SW 228 ° 0 min 0 W/m² -0,6 °C -6,1 °C 20,9 km/h (4 Bft)
12.01.2024 22:41 22,7 °C 0,7 °C 44 % 89 % 1026,3 hPa 0,0 l/m² 15,4 km/h (3 Bft) S-SW 212 ° 0 min 0 W/m² -0,9 °C -6,4 °C 24,1 km/h (4 Bft)
12.01.2024 22:42 22,7 °C 0,7 °C 44 % 89 % 1026,4 hPa 0,0 l/m² 20,2 km/h (4 Bft) SW 220 ° 0 min 0 W/m² -0,9 °C -8,8 °C 29,0 km/h (5 Bft)
12.01.2024 22:45 22,6 °C 0,8 °C 44 % 89 % 1026,4 hPa 0,0 l/m² 15,6 km/h (3 Bft) SW 220 ° 0 min 0 W/m² -0,8 °C -6,4 °C 24,1 km/h (4 Bft)
12.01.2024 22:47 22,7 °C 0,7 °C 44 % 89 % 1026,4 hPa 0,0 l/m² 15,3 km/h (3 Bft) SW 232 ° 0 min 0 W/m² -0,9 °C -6,3 °C 22,5 km/h (4 Bft)
12.01.2024 22:49 22,6 °C 0,7 °C 45 % 89 % 1026,4 hPa 0,0 l/m² 15,5 km/h (3 Bft) S-SW 208 ° 0 min 0 W/m² -0,9 °C -6,4 °C 20,9 km/h (4 Bft)
12.01.2024 22:51 22,6 °C 0,7 °C 45 % 89 % 1026,4 hPa 0,0 l/m² 16,0 km/h (3 Bft) SW 229 ° 0 min 0 W/m² -0,9 °C -6,7 °C 20,9 km/h (4 Bft)
12.01.2024 22:52 22,6 °C 0,7 °C 45 % 89 % 1026,4 hPa 0,0 l/m² 18,6 km/h (3 Bft) SW 231 ° 0 min 0 W/m² -0,9 °C -8,1 °C 22,5 km/h (4 Bft)
12.01.2024 22:54 22,6 °C 0,7 °C 45 % 89 % 1026,3 hPa 0,0 l/m² 15,9 km/h (3 Bft) SW 221 ° 0 min 0 W/m² -0,9 °C -6,7 °C 20,9 km/h (4 Bft)
12.01.2024 22:56 22,6 °C 0,7 °C 45 % 89 % 1026,3 hPa 0,0 l/m² 17,4 km/h (3 Bft) SW 232 ° 0 min 0 W/m² -0,9 °C -7,5 °C 24,1 km/h (4 Bft)
12.01.2024 22:58 22,6 °C 0,7 °C 45 % 89 % 1026,3 hPa 0,0 l/m² 18,1 km/h (3 Bft) SW 225 ° 0 min 0 W/m² -0,9 °C -7,8 °C 24,1 km/h (4 Bft)
12.01.2024 23:00 22,6 °C 0,7 °C 44 % 90 % 1026,3 hPa 0,0 l/m² 17,5 km/h (3 Bft) S-SW 204 ° 0 min 0 W/m² -0,7 °C -7,5 °C 24,1 km/h (4 Bft)
12.01.2024 23:02 22,6 °C 0,7 °C 44 % 90 % 1026,2 hPa 0,0 l/m² 17,8 km/h (3 Bft) SW 235 ° 0 min 0 W/m² -0,7 °C -7,7 °C 27,4 km/h (5 Bft)
12.01.2024 23:03 22,6 °C 0,7 °C 44 % 90 % 1026,2 hPa 0,0 l/m² 17,8 km/h (3 Bft) S-SW 211 ° 0 min 0 W/m² -0,7 °C -7,7 °C 20,9 km/h (4 Bft)
12.01.2024 23:05 22,6 °C 0,7 °C 44 % 90 % 1026,3 hPa 0,0 l/m² 16,9 km/h (3 Bft) SW 222 ° 0 min 0 W/m² -0,7 °C -7,2 °C 20,9 km/h (4 Bft)
12.01.2024 23:07 22,6 °C 0,7 °C 44 % 90 % 1026,3 hPa 0,0 l/m² 16,4 km/h (3 Bft) SW 221 ° 0 min 0 W/m² -0,7 °C -6,9 °C 24,1 km/h (4 Bft)
12.01.2024 23:09 22,6 °C 0,7 °C 44 % 90 % 1026,3 hPa 0,0 l/m² 14,7 km/h (3 Bft) SW 229 ° 0 min 0 W/m² -0,7 °C -6,0 °C 22,5 km/h (4 Bft)
12.01.2024 23:11 22,6 °C 0,8 °C 44 % 90 % 1026,3 hPa 0,0 l/m² 16,5 km/h (3 Bft) SW 223 ° 0 min 0 W/m² -0,6 °C -6,9 °C 25,7 km/h (4 Bft)
12.01.2024 23:12 22,6 °C 0,8 °C 44 % 90 % 1026,3 hPa 0,0 l/m² 13,0 km/h (3 Bft) W-SW 243 ° 0 min 0 W/m² -0,6 °C -4,8 °C 20,9 km/h (4 Bft)
12.01.2024 23:14 22,6 °C 0,7 °C 44 % 90 % 1026,3 hPa 0,0 l/m² 12,6 km/h (3 Bft) SW 218 ° 0 min 0 W/m² -0,7 °C -4,6 °C 17,7 km/h (3 Bft)
12.01.2024 23:15 22,6 °C 0,7 °C 44 % 90 % 1026,3 hPa 0,0 l/m² 12,9 km/h (3 Bft) SW 225 ° 0 min 0 W/m² -0,7 °C -4,8 °C 17,7 km/h (3 Bft)
12.01.2024 23:16 22,5 °C 0,8 °C 44 % 90 % 1026,3 hPa 0,0 l/m² 12,9 km/h (3 Bft) SW 225 ° 0 min 0 W/m² -0,6 °C -4,7 °C 22,5 km/h (4 Bft)
12.01.2024 23:22 22,4 °C 0,7 °C 44 % 90 % 1026,2 hPa 0,0 l/m² 15,3 km/h (3 Bft) S-SW 211 ° 0 min 0 W/m² -0,7 °C -6,3 °C 19,3 km/h (3 Bft)
12.01.2024 23:24 22,4 °C 0,8 °C 44 % 90 % 1026,1 hPa 0,0 l/m² 15,8 km/h (3 Bft) S-SW 210 ° 0 min 0 W/m² -0,6 °C -6,5 °C 24,1 km/h (4 Bft)
12.01.2024 23:25 22,4 °C 0,7 °C 44 % 90 % 1026,1 hPa 0,0 l/m² 14,0 km/h (3 Bft) SW 219 ° 0 min 0 W/m² -0,7 °C -5,5 °C 20,9 km/h (4 Bft)
12.01.2024 23:26 22,4 °C 0,8 °C 45 % 90 % 1026,2 hPa 0,0 l/m² 17,0 km/h (3 Bft) W-SW 250 ° 0 min 0 W/m² -0,6 °C -7,1 °C 22,5 km/h (4 Bft)
12.01.2024 23:28 22,4 °C 0,8 °C 44 % 90 % 1026,2 hPa 0,0 l/m² 16,0 km/h (3 Bft) SW 221 ° 0 min 0 W/m² -0,6 °C -6,6 °C 24,1 km/h (4 Bft)
12.01.2024 23:30 22,4 °C 0,8 °C 44 % 90 % 1026,2 hPa 0,0 l/m² 16,4 km/h (3 Bft) SW 217 ° 0 min 0 W/m² -0,6 °C -6,8 °C 22,5 km/h (4 Bft)
12.01.2024 23:31 22,4 °C 0,8 °C 44 % 90 % 1026,2 hPa 0,0 l/m² 14,1 km/h (3 Bft) S-SW 210 ° 0 min 0 W/m² -0,6 °C -5,5 °C 25,7 km/h (4 Bft)
12.01.2024 23:32 22,4 °C 0,8 °C 44 % 90 % 1026,2 hPa 0,0 l/m² 15,1 km/h (3 Bft) S-SW 211 ° 0 min 0 W/m² -0,6 °C -6,1 °C 20,9 km/h (4 Bft)
12.01.2024 23:34 22,4 °C 0,8 °C 44 % 90 % 1026,2 hPa 0,0 l/m² 13,4 km/h (3 Bft) SW 236 ° 0 min 0 W/m² -0,6 °C -5,0 °C 20,9 km/h (4 Bft)
12.01.2024 23:35 22,4 °C 0,8 °C 44 % 90 % 1026,2 hPa 0,0 l/m² 11,9 km/h (2 Bft) SW 230 ° 0 min 0 W/m² -0,6 °C -4,0 °C 14,5 km/h (3 Bft)
12.01.2024 23:37 22,4 °C 0,8 °C 45 % 90 % 1026,2 hPa 0,0 l/m² 12,1 km/h (2 Bft) W-SW 241 ° 0 min 0 W/m² -0,6 °C -4,2 °C 19,3 km/h (3 Bft)
12.01.2024 23:39 22,4 °C 0,8 °C 44 % 90 % 1026,2 hPa 0,0 l/m² 16,0 km/h (3 Bft) W-SW 238 ° 0 min 0 W/m² -0,6 °C -6,6 °C 24,1 km/h (4 Bft)
12.01.2024 23:40 22,4 °C 0,8 °C 44 % 90 % 1026,2 hPa 0,0 l/m² 12,1 km/h (2 Bft) W-SW 243 ° 0 min 0 W/m² -0,6 °C -4,2 °C 17,7 km/h (3 Bft)
12.01.2024 23:42 22,4 °C 0,8 °C 44 % 90 % 1026,1 hPa 0,0 l/m² 12,8 km/h (3 Bft) W-SW 247 ° 0 min 0 W/m² -0,6 °C -4,6 °C 17,7 km/h (3 Bft)
12.01.2024 23:43 22,4 °C 0,8 °C 44 % 90 % 1026,1 hPa 0,0 l/m² 13,2 km/h (3 Bft) SW 225 ° 0 min 0 W/m² -0,6 °C -4,9 °C 22,5 km/h (4 Bft)
12.01.2024 23:44 22,4 °C 0,8 °C 44 % 90 % 1026,1 hPa 0,0 l/m² 14,0 km/h (3 Bft) SW 219 ° 0 min 0 W/m² -0,6 °C -5,4 °C 20,9 km/h (4 Bft)
12.01.2024 23:46 22,4 °C 0,8 °C 44 % 90 % 1026,1 hPa 0,0 l/m² 14,1 km/h (3 Bft) SW 221 ° 0 min 0 W/m² -0,6 °C -5,5 °C 20,9 km/h (4 Bft)
12.01.2024 23:48 22,4 °C 0,8 °C 44 % 90 % 1026,1 hPa 0,0 l/m² 14,5 km/h (3 Bft) SW 216 ° 0 min 0 W/m² -0,6 °C -5,7 °C 20,9 km/h (4 Bft)
12.01.2024 23:50 22,4 °C 0,8 °C 44 % 90 % 1026,0 hPa 0,0 l/m² 16,5 km/h (3 Bft) S-SW 210 ° 0 min 0 W/m² -0,6 °C -6,9 °C 25,7 km/h (4 Bft)
12.01.2024 23:51 22,4 °C 0,8 °C 44 % 90 % 1026,0 hPa 0,0 l/m² 12,7 km/h (3 Bft) SW 221 ° 0 min 0 W/m² -0,6 °C -4,6 °C 17,7 km/h (3 Bft)
12.01.2024 23:52 22,4 °C 0,8 °C 44 % 90 % 1026,0 hPa 0,0 l/m² 18,7 km/h (3 Bft) SW 223 ° 0 min 0 W/m² -0,6 °C -8,0 °C 25,7 km/h (4 Bft)
12.01.2024 23:53 22,4 °C 0,8 °C 44 % 90 % 1026,0 hPa 0,0 l/m² 18,6 km/h (3 Bft) S-SW 207 ° 0 min 0 W/m² -0,6 °C -7,9 °C 22,5 km/h (4 Bft)
12.01.2024 23:54 22,4 °C 0,8 °C 44 % 90 % 1026,0 hPa 0,0 l/m² 18,1 km/h (3 Bft) SW 231 ° 0 min 0 W/m² -0,6 °C -7,7 °C 24,1 km/h (4 Bft)
12.01.2024 23:56 22,4 °C 0,8 °C 44 % 90 % 1025,9 hPa 0,0 l/m² 17,2 km/h (3 Bft) SW 225 ° 0 min 0 W/m² -0,6 °C -7,2 °C 20,9 km/h (4 Bft)
12.01.2024 23:58 22,4 °C 0,8 °C 44 % 90 % 1026,0 hPa 0,0 l/m² 20,6 km/h (4 Bft) SW 229 ° 0 min 0 W/m² -0,6 °C -8,9 °C 24,1 km/h (4 Bft)
12.01.2024 23:59 22,4 °C 0,8 °C 44 % 90 % 1025,9 hPa 0,0 l/m² 14,0 km/h (3 Bft) W-SW 253 ° 0 min 0 W/m² -0,6 °C -5,4 °C 19,3 km/h (3 Bft)
_ Min-Zeit 17:42 05:21 14:49 22:58 23:59 - 18:06 - - - - 05:21 21:53 18:06
Minimum _ 22,1 °C -0,9 °C 38 % 89 % 1025,9 hPa - 0,0 km/h (0 Bft) - - - - -1,9 °C -9,8 °C 0,0 km/h (0 Bft)
_ Max-Zeit 22:47 23:59 00:49 09:21 00:00 23:59 21:53 - - 13:47 13:31 15:25 16:10 22:42
Maximum _ 22,7 °C 0,8 °C 49 % 95 % 1032,4 hPa 0,0 l/m² 22,1 km/h
SW (4 Bft)
- - 2 min 54 W/m² -0,5 °C 0,7 °C 29,0 km/h
W-SW (5 Bft)
Durchschnitt _ 22,4 °C -0,0 °C 45 % 92 % 1029,8 hPa #0,0 l/m² 6,6 km/h (2 Bft) SW - #45 min. 10 W/m² -1,1 °C -1,9 °C 10,4 km/h (2 Bft)
© 2009 Mathias Hoßbach